<?xml version="1.0" encoding="UTF-8" standalone="no" ?>
<gpx xmlns="http://www.topografix.com/GPX/1/1" xmlns:xsi="http://www.w3.org/2001/XMLSchema-instance" xsi:schemaLocation="http://www.topografix.com/GPX/1/1 http://www.topografix.com/GPX/1/1/gpx.xsd" version="1.1" creator="VisuGPX - https://www.visugpx.com">
  <metadata>
    <name>Sur les flans de la Mandallaz</name>
    <desc><![CDATA[Sortie Trail en dilettante !]]></desc>
  </metadata>
  <trk>
    <name><![CDATA[Entraînement Trail Mandallaz]]></name>
    <trkseg>
      <trkpt lat="45.94338" lon="6.06065">
        <ele>463</ele>
        <time>2011-10-09T06:27:53.000Z</time>
      </trkpt>
      <trkpt lat="45.94334" lon="6.06048">
        <ele>463</ele>
        <time>2011-10-09T06:27:59.000Z</time>
      </trkpt>
      <trkpt lat="45.94331" lon="6.06034">
        <ele>463</ele>
        <time>2011-10-09T06:28:04.000Z</time>
      </trkpt>
      <trkpt lat="45.94332" lon="6.06032">
        <ele>463</ele>
        <time>2011-10-09T06:28:05.000Z</time>
      </trkpt>
      <trkpt lat="45.94334" lon="6.06028">
        <ele>462.79998779297</ele>
        <time>2011-10-09T06:28:07.000Z</time>
      </trkpt>
      <trkpt lat="45.94338" lon="6.06026">
        <ele>462.79998779297</ele>
        <time>2011-10-09T06:28:10.000Z</time>
      </trkpt>
      <trkpt lat="45.94342" lon="6.06024">
        <ele>462.79998779297</ele>
        <time>2011-10-09T06:28:13.000Z</time>
      </trkpt>
      <trkpt lat="45.94347" lon="6.06021">
        <ele>462.79998779297</ele>
        <time>2011-10-09T06:28:17.000Z</time>
      </trkpt>
      <trkpt lat="45.94355" lon="6.0601">
        <ele>462.79998779297</ele>
        <time>2011-10-09T06:28:25.000Z</time>
      </trkpt>
      <trkpt lat="45.9436" lon="6.06002">
        <ele>462.60000610352</ele>
        <time>2011-10-09T06:28:30.000Z</time>
      </trkpt>
      <trkpt lat="45.94368" lon="6.05987">
        <ele>463.20001220703</ele>
        <time>2011-10-09T06:28:37.000Z</time>
      </trkpt>
      <trkpt lat="45.94374" lon="6.05971">
        <ele>464.20001220703</ele>
        <time>2011-10-09T06:28:44.000Z</time>
      </trkpt>
      <trkpt lat="45.94377" lon="6.05958">
        <ele>464.79998779297</ele>
        <time>2011-10-09T06:28:49.000Z</time>
      </trkpt>
      <trkpt lat="45.94384" lon="6.05939">
        <ele>466.20001220703</ele>
        <time>2011-10-09T06:28:57.000Z</time>
      </trkpt>
      <trkpt lat="45.94391" lon="6.05923">
        <ele>467.20001220703</ele>
        <time>2011-10-09T06:29:04.000Z</time>
      </trkpt>
      <trkpt lat="45.94402" lon="6.05907">
        <ele>468.79998779297</ele>
        <time>2011-10-09T06:29:12.000Z</time>
      </trkpt>
      <trkpt lat="45.94411" lon="6.05896">
        <ele>470</ele>
        <time>2011-10-09T06:29:18.000Z</time>
      </trkpt>
      <trkpt lat="45.9442" lon="6.05887">
        <ele>471</ele>
        <time>2011-10-09T06:29:24.000Z</time>
      </trkpt>
      <trkpt lat="45.94431" lon="6.05878">
        <ele>471.60000610352</ele>
        <time>2011-10-09T06:29:31.000Z</time>
      </trkpt>
      <trkpt lat="45.94444" lon="6.0587">
        <ele>472</ele>
        <time>2011-10-09T06:29:38.000Z</time>
      </trkpt>
      <trkpt lat="45.94453" lon="6.0586">
        <ele>472.60000610352</ele>
        <time>2011-10-09T06:29:44.000Z</time>
      </trkpt>
      <trkpt lat="45.9446" lon="6.0585">
        <ele>473</ele>
        <time>2011-10-09T06:29:50.000Z</time>
      </trkpt>
      <trkpt lat="45.94464" lon="6.0584">
        <ele>473.60000610352</ele>
        <time>2011-10-09T06:29:56.000Z</time>
      </trkpt>
      <trkpt lat="45.94463" lon="6.05841">
        <ele>473.60000610352</ele>
        <time>2011-10-09T06:29:57.000Z</time>
      </trkpt>
      <trkpt lat="45.9446" lon="6.05847">
        <ele>473.20001220703</ele>
        <time>2011-10-09T06:30:00.000Z</time>
      </trkpt>
      <trkpt lat="45.94456" lon="6.05851">
        <ele>473</ele>
        <time>2011-10-09T06:30:03.000Z</time>
      </trkpt>
      <trkpt lat="45.94455" lon="6.05853">
        <ele>473</ele>
        <time>2011-10-09T06:30:04.000Z</time>
      </trkpt>
      <trkpt lat="45.94454" lon="6.05854">
        <ele>473</ele>
        <time>2011-10-09T06:30:05.000Z</time>
      </trkpt>
      <trkpt lat="45.94447" lon="6.05864">
        <ele>472.39999389648</ele>
        <time>2011-10-09T06:30:10.000Z</time>
      </trkpt>
      <trkpt lat="45.94436" lon="6.05875">
        <ele>471.79998779297</ele>
        <time>2011-10-09T06:30:16.000Z</time>
      </trkpt>
      <trkpt lat="45.94427" lon="6.05882">
        <ele>471.39999389648</ele>
        <time>2011-10-09T06:30:22.000Z</time>
      </trkpt>
      <trkpt lat="45.94413" lon="6.0589">
        <ele>470.60000610352</ele>
        <time>2011-10-09T06:30:30.000Z</time>
      </trkpt>
      <trkpt lat="45.94402" lon="6.059">
        <ele>469.39999389648</ele>
        <time>2011-10-09T06:30:36.000Z</time>
      </trkpt>
      <trkpt lat="45.94395" lon="6.0591">
        <ele>468.20001220703</ele>
        <time>2011-10-09T06:30:41.000Z</time>
      </trkpt>
      <trkpt lat="45.94389" lon="6.05924">
        <ele>467</ele>
        <time>2011-10-09T06:30:46.000Z</time>
      </trkpt>
      <trkpt lat="45.94381" lon="6.05944">
        <ele>465.79998779297</ele>
        <time>2011-10-09T06:30:53.000Z</time>
      </trkpt>
      <trkpt lat="45.94375" lon="6.05959">
        <ele>464.79998779297</ele>
        <time>2011-10-09T06:30:58.000Z</time>
      </trkpt>
      <trkpt lat="45.9437" lon="6.05973">
        <ele>464</ele>
        <time>2011-10-09T06:31:03.000Z</time>
      </trkpt>
      <trkpt lat="45.94367" lon="6.05986">
        <ele>463.39999389648</ele>
        <time>2011-10-09T06:31:08.000Z</time>
      </trkpt>
      <trkpt lat="45.94362" lon="6.06">
        <ele>462.60000610352</ele>
        <time>2011-10-09T06:31:14.000Z</time>
      </trkpt>
      <trkpt lat="45.94354" lon="6.06013">
        <ele>462.79998779297</ele>
        <time>2011-10-09T06:31:21.000Z</time>
      </trkpt>
      <trkpt lat="45.94352" lon="6.06016">
        <ele>462.79998779297</ele>
        <time>2011-10-09T06:31:25.000Z</time>
      </trkpt>
      <trkpt lat="45.9435" lon="6.0602">
        <ele>462.79998779297</ele>
        <time>2011-10-09T06:31:28.000Z</time>
      </trkpt>
      <trkpt lat="45.94342" lon="6.06029">
        <ele>463</ele>
        <time>2011-10-09T06:31:36.000Z</time>
      </trkpt>
      <trkpt lat="45.94341" lon="6.06029">
        <ele>463</ele>
        <time>2011-10-09T06:31:37.000Z</time>
      </trkpt>
      <trkpt lat="45.94336" lon="6.06033">
        <ele>463</ele>
        <time>2011-10-09T06:31:42.000Z</time>
      </trkpt>
      <trkpt lat="45.94336" lon="6.06035">
        <ele>463</ele>
        <time>2011-10-09T06:31:45.000Z</time>
      </trkpt>
      <trkpt lat="45.94336" lon="6.06039">
        <ele>463</ele>
        <time>2011-10-09T06:31:47.000Z</time>
      </trkpt>
      <trkpt lat="45.94337" lon="6.06046">
        <ele>463</ele>
        <time>2011-10-09T06:31:51.000Z</time>
      </trkpt>
      <trkpt lat="45.94337" lon="6.06048">
        <ele>463</ele>
        <time>2011-10-09T06:31:54.000Z</time>
      </trkpt>
      <trkpt lat="45.94335" lon="6.06048">
        <ele>463</ele>
        <time>2011-10-09T06:32:02.000Z</time>
      </trkpt>
      <trkpt lat="45.94331" lon="6.06049">
        <ele>463</ele>
        <time>2011-10-09T06:32:08.000Z</time>
      </trkpt>
      <trkpt lat="45.94335" lon="6.06057">
        <ele>463</ele>
        <time>2011-10-09T06:32:13.000Z</time>
      </trkpt>
      <trkpt lat="45.94338" lon="6.06062">
        <ele>463</ele>
        <time>2011-10-09T06:32:17.000Z</time>
      </trkpt>
      <trkpt lat="45.94339" lon="6.06066">
        <ele>463</ele>
        <time>2011-10-09T06:32:20.000Z</time>
      </trkpt>
      <trkpt lat="45.9434" lon="6.06067">
        <ele>463</ele>
        <time>2011-10-09T06:32:21.000Z</time>
      </trkpt>
      <trkpt lat="45.9434" lon="6.06072">
        <ele>463</ele>
        <time>2011-10-09T06:32:27.000Z</time>
      </trkpt>
      <trkpt lat="45.94338" lon="6.0608">
        <ele>463</ele>
        <time>2011-10-09T06:32:34.000Z</time>
      </trkpt>
      <trkpt lat="45.94335" lon="6.06089">
        <ele>463</ele>
        <time>2011-10-09T06:32:39.000Z</time>
      </trkpt>
      <trkpt lat="45.94332" lon="6.06092">
        <ele>462.79998779297</ele>
        <time>2011-10-09T06:32:42.000Z</time>
      </trkpt>
      <trkpt lat="45.9433" lon="6.06108">
        <ele>462.79998779297</ele>
        <time>2011-10-09T06:33:39.000Z</time>
      </trkpt>
      <trkpt lat="45.9433" lon="6.06109">
        <ele>462.79998779297</ele>
        <time>2011-10-09T06:33:40.000Z</time>
      </trkpt>
      <trkpt lat="45.94329" lon="6.06123">
        <ele>462.79998779297</ele>
        <time>2011-10-09T06:33:45.000Z</time>
      </trkpt>
      <trkpt lat="45.94325" lon="6.06141">
        <ele>462.60000610352</ele>
        <time>2011-10-09T06:33:51.000Z</time>
      </trkpt>
      <trkpt lat="45.9432" lon="6.06157">
        <ele>462.60000610352</ele>
        <time>2011-10-09T06:33:57.000Z</time>
      </trkpt>
      <trkpt lat="45.94314" lon="6.06172">
        <ele>462.39999389648</ele>
        <time>2011-10-09T06:34:02.000Z</time>
      </trkpt>
      <trkpt lat="45.9431" lon="6.06181">
        <ele>462</ele>
        <time>2011-10-09T06:34:06.000Z</time>
      </trkpt>
      <trkpt lat="45.94309" lon="6.06185">
        <ele>461.79998779297</ele>
        <time>2011-10-09T06:34:07.000Z</time>
      </trkpt>
      <trkpt lat="45.94303" lon="6.06201">
        <ele>461.39999389648</ele>
        <time>2011-10-09T06:34:12.000Z</time>
      </trkpt>
      <trkpt lat="45.94298" lon="6.06222">
        <ele>460.79998779297</ele>
        <time>2011-10-09T06:34:19.000Z</time>
      </trkpt>
      <trkpt lat="45.94296" lon="6.06241">
        <ele>460.20001220703</ele>
        <time>2011-10-09T06:34:25.000Z</time>
      </trkpt>
      <trkpt lat="45.94297" lon="6.06263">
        <ele>460.79998779297</ele>
        <time>2011-10-09T06:34:32.000Z</time>
      </trkpt>
      <trkpt lat="45.94295" lon="6.06284">
        <ele>462.20001220703</ele>
        <time>2011-10-09T06:34:38.000Z</time>
      </trkpt>
      <trkpt lat="45.94296" lon="6.06304">
        <ele>463.60000610352</ele>
        <time>2011-10-09T06:34:44.000Z</time>
      </trkpt>
      <trkpt lat="45.94297" lon="6.06324">
        <ele>465</ele>
        <time>2011-10-09T06:34:50.000Z</time>
      </trkpt>
      <trkpt lat="45.94297" lon="6.06343">
        <ele>466.79998779297</ele>
        <time>2011-10-09T06:34:55.000Z</time>
      </trkpt>
      <trkpt lat="45.94299" lon="6.06364">
        <ele>469.79998779297</ele>
        <time>2011-10-09T06:35:01.000Z</time>
      </trkpt>
      <trkpt lat="45.94297" lon="6.06384">
        <ele>472</ele>
        <time>2011-10-09T06:35:07.000Z</time>
      </trkpt>
      <trkpt lat="45.94298" lon="6.06401">
        <ele>474.39999389648</ele>
        <time>2011-10-09T06:35:13.000Z</time>
      </trkpt>
      <trkpt lat="45.94299" lon="6.06403">
        <ele>475</ele>
        <time>2011-10-09T06:35:17.000Z</time>
      </trkpt>
      <trkpt lat="45.94301" lon="6.06408">
        <ele>476.20001220703</ele>
        <time>2011-10-09T06:35:19.000Z</time>
      </trkpt>
      <trkpt lat="45.94302" lon="6.06415">
        <ele>477.60000610352</ele>
        <time>2011-10-09T06:35:21.000Z</time>
      </trkpt>
      <trkpt lat="45.94304" lon="6.06429">
        <ele>478.79998779297</ele>
        <time>2011-10-09T06:35:26.000Z</time>
      </trkpt>
      <trkpt lat="45.94302" lon="6.06437">
        <ele>478.39999389648</ele>
        <time>2011-10-09T06:35:29.000Z</time>
      </trkpt>
      <trkpt lat="45.943" lon="6.06447">
        <ele>478.20001220703</ele>
        <time>2011-10-09T06:35:32.000Z</time>
      </trkpt>
      <trkpt lat="45.94295" lon="6.06463">
        <ele>477.20001220703</ele>
        <time>2011-10-09T06:35:38.000Z</time>
      </trkpt>
      <trkpt lat="45.94287" lon="6.06478">
        <ele>475.20001220703</ele>
        <time>2011-10-09T06:35:45.000Z</time>
      </trkpt>
      <trkpt lat="45.94284" lon="6.06489">
        <ele>474.39999389648</ele>
        <time>2011-10-09T06:35:49.000Z</time>
      </trkpt>
      <trkpt lat="45.94284" lon="6.06496">
        <ele>474.79998779297</ele>
        <time>2011-10-09T06:35:51.000Z</time>
      </trkpt>
      <trkpt lat="45.94284" lon="6.06508">
        <ele>474.39999389648</ele>
        <time>2011-10-09T06:35:55.000Z</time>
      </trkpt>
      <trkpt lat="45.94284" lon="6.06508">
        <ele>474.39999389648</ele>
        <time>2011-10-09T06:35:56.000Z</time>
      </trkpt>
      <trkpt lat="45.94283" lon="6.06522">
        <ele>473.20001220703</ele>
        <time>2011-10-09T06:36:01.000Z</time>
      </trkpt>
      <trkpt lat="45.94285" lon="6.0654">
        <ele>472.79998779297</ele>
        <time>2011-10-09T06:36:06.000Z</time>
      </trkpt>
      <trkpt lat="45.94287" lon="6.06544">
        <ele>473.20001220703</ele>
        <time>2011-10-09T06:36:11.000Z</time>
      </trkpt>
      <trkpt lat="45.94286" lon="6.06548">
        <ele>472.60000610352</ele>
        <time>2011-10-09T06:36:16.000Z</time>
      </trkpt>
      <trkpt lat="45.94289" lon="6.06556">
        <ele>473.20001220703</ele>
        <time>2011-10-09T06:36:21.000Z</time>
      </trkpt>
      <trkpt lat="45.943" lon="6.06572">
        <ele>475.60000610352</ele>
        <time>2011-10-09T06:36:27.000Z</time>
      </trkpt>
      <trkpt lat="45.94308" lon="6.06579">
        <ele>477.39999389648</ele>
        <time>2011-10-09T06:36:32.000Z</time>
      </trkpt>
      <trkpt lat="45.94311" lon="6.06582">
        <ele>478.39999389648</ele>
        <time>2011-10-09T06:36:35.000Z</time>
      </trkpt>
      <trkpt lat="45.94317" lon="6.06584">
        <ele>480</ele>
        <time>2011-10-09T06:36:37.000Z</time>
      </trkpt>
      <trkpt lat="45.94318" lon="6.06586">
        <ele>479.79998779297</ele>
        <time>2011-10-09T06:36:38.000Z</time>
      </trkpt>
      <trkpt lat="45.94322" lon="6.06588">
        <ele>480.79998779297</ele>
        <time>2011-10-09T06:36:41.000Z</time>
      </trkpt>
      <trkpt lat="45.94332" lon="6.06592">
        <ele>482.79998779297</ele>
        <time>2011-10-09T06:36:47.000Z</time>
      </trkpt>
      <trkpt lat="45.94335" lon="6.06594">
        <ele>483.20001220703</ele>
        <time>2011-10-09T06:36:50.000Z</time>
      </trkpt>
      <trkpt lat="45.94337" lon="6.06595">
        <ele>483.79998779297</ele>
        <time>2011-10-09T06:36:52.000Z</time>
      </trkpt>
      <trkpt lat="45.94347" lon="6.06598">
        <ele>487</ele>
        <time>2011-10-09T06:36:58.000Z</time>
      </trkpt>
      <trkpt lat="45.94353" lon="6.06601">
        <ele>488.79998779297</ele>
        <time>2011-10-09T06:37:03.000Z</time>
      </trkpt>
      <trkpt lat="45.94354" lon="6.06602">
        <ele>489</ele>
        <time>2011-10-09T06:37:04.000Z</time>
      </trkpt>
      <trkpt lat="45.94358" lon="6.06602">
        <ele>490.20001220703</ele>
        <time>2011-10-09T06:37:08.000Z</time>
      </trkpt>
      <trkpt lat="45.94359" lon="6.06602">
        <ele>490.39999389648</ele>
        <time>2011-10-09T06:37:09.000Z</time>
      </trkpt>
      <trkpt lat="45.94365" lon="6.06606">
        <ele>492</ele>
        <time>2011-10-09T06:37:16.000Z</time>
      </trkpt>
      <trkpt lat="45.94367" lon="6.06607">
        <ele>492.39999389648</ele>
        <time>2011-10-09T06:37:17.000Z</time>
      </trkpt>
      <trkpt lat="45.94371" lon="6.0661">
        <ele>493</ele>
        <time>2011-10-09T06:37:21.000Z</time>
      </trkpt>
      <trkpt lat="45.94373" lon="6.06611">
        <ele>493.60000610352</ele>
        <time>2011-10-09T06:37:23.000Z</time>
      </trkpt>
      <trkpt lat="45.94379" lon="6.06617">
        <ele>494.20001220703</ele>
        <time>2011-10-09T06:37:29.000Z</time>
      </trkpt>
      <trkpt lat="45.94382" lon="6.06618">
        <ele>495</ele>
        <time>2011-10-09T06:37:31.000Z</time>
      </trkpt>
      <trkpt lat="45.94386" lon="6.06618">
        <ele>496.20001220703</ele>
        <time>2011-10-09T06:37:33.000Z</time>
      </trkpt>
      <trkpt lat="45.94391" lon="6.0662">
        <ele>497.39999389648</ele>
        <time>2011-10-09T06:37:36.000Z</time>
      </trkpt>
      <trkpt lat="45.94394" lon="6.06621">
        <ele>498.39999389648</ele>
        <time>2011-10-09T06:37:39.000Z</time>
      </trkpt>
      <trkpt lat="45.94395" lon="6.06622">
        <ele>498.20001220703</ele>
        <time>2011-10-09T06:37:40.000Z</time>
      </trkpt>
      <trkpt lat="45.94399" lon="6.06623">
        <ele>499.39999389648</ele>
        <time>2011-10-09T06:37:43.000Z</time>
      </trkpt>
      <trkpt lat="45.94403" lon="6.06625">
        <ele>500.39999389648</ele>
        <time>2011-10-09T06:37:46.000Z</time>
      </trkpt>
      <trkpt lat="45.94408" lon="6.06626">
        <ele>501.60000610352</ele>
        <time>2011-10-09T06:37:49.000Z</time>
      </trkpt>
      <trkpt lat="45.94415" lon="6.06627">
        <ele>503.60000610352</ele>
        <time>2011-10-09T06:37:55.000Z</time>
      </trkpt>
      <trkpt lat="45.94417" lon="6.06628">
        <ele>504.20001220703</ele>
        <time>2011-10-09T06:37:57.000Z</time>
      </trkpt>
      <trkpt lat="45.94419" lon="6.06629">
        <ele>504.20001220703</ele>
        <time>2011-10-09T06:37:59.000Z</time>
      </trkpt>
      <trkpt lat="45.94419" lon="6.06631">
        <ele>503.60000610352</ele>
        <time>2011-10-09T06:38:01.000Z</time>
      </trkpt>
      <trkpt lat="45.94422" lon="6.06631">
        <ele>504.39999389648</ele>
        <time>2011-10-09T06:38:03.000Z</time>
      </trkpt>
      <trkpt lat="45.94425" lon="6.06634">
        <ele>504.20001220703</ele>
        <time>2011-10-09T06:38:06.000Z</time>
      </trkpt>
      <trkpt lat="45.9443" lon="6.0663">
        <ele>507</ele>
        <time>2011-10-09T06:38:10.000Z</time>
      </trkpt>
      <trkpt lat="45.94431" lon="6.06631">
        <ele>507</ele>
        <time>2011-10-09T06:38:11.000Z</time>
      </trkpt>
      <trkpt lat="45.94432" lon="6.06632">
        <ele>506.79998779297</ele>
        <time>2011-10-09T06:38:12.000Z</time>
      </trkpt>
      <trkpt lat="45.94437" lon="6.06636">
        <ele>507.20001220703</ele>
        <time>2011-10-09T06:38:15.000Z</time>
      </trkpt>
      <trkpt lat="45.94443" lon="6.06637">
        <ele>508.60000610352</ele>
        <time>2011-10-09T06:38:19.000Z</time>
      </trkpt>
      <trkpt lat="45.94448" lon="6.06636">
        <ele>510.20001220703</ele>
        <time>2011-10-09T06:38:23.000Z</time>
      </trkpt>
      <trkpt lat="45.94451" lon="6.06637">
        <ele>510.79998779297</ele>
        <time>2011-10-09T06:38:25.000Z</time>
      </trkpt>
      <trkpt lat="45.9446" lon="6.06642">
        <ele>511.39999389648</ele>
        <time>2011-10-09T06:38:32.000Z</time>
      </trkpt>
      <trkpt lat="45.94462" lon="6.06645">
        <ele>511.20001220703</ele>
        <time>2011-10-09T06:38:35.000Z</time>
      </trkpt>
      <trkpt lat="45.94463" lon="6.06645">
        <ele>511.20001220703</ele>
        <time>2011-10-09T06:38:36.000Z</time>
      </trkpt>
      <trkpt lat="45.94468" lon="6.06648">
        <ele>511.39999389648</ele>
        <time>2011-10-09T06:38:40.000Z</time>
      </trkpt>
      <trkpt lat="45.94469" lon="6.06647">
        <ele>512</ele>
        <time>2011-10-09T06:38:41.000Z</time>
      </trkpt>
      <trkpt lat="45.94471" lon="6.06647">
        <ele>512.79998779297</ele>
        <time>2011-10-09T06:38:44.000Z</time>
      </trkpt>
      <trkpt lat="45.94473" lon="6.06648">
        <ele>513</ele>
        <time>2011-10-09T06:38:46.000Z</time>
      </trkpt>
      <trkpt lat="45.94481" lon="6.06647">
        <ele>515</ele>
        <time>2011-10-09T06:38:51.000Z</time>
      </trkpt>
      <trkpt lat="45.94482" lon="6.06646">
        <ele>516.20001220703</ele>
        <time>2011-10-09T06:38:52.000Z</time>
      </trkpt>
      <trkpt lat="45.94484" lon="6.06645">
        <ele>517</ele>
        <time>2011-10-09T06:38:54.000Z</time>
      </trkpt>
      <trkpt lat="45.94485" lon="6.06645">
        <ele>517.40002441406</ele>
        <time>2011-10-09T06:38:55.000Z</time>
      </trkpt>
      <trkpt lat="45.94488" lon="6.06646">
        <ele>517.40002441406</ele>
        <time>2011-10-09T06:39:00.000Z</time>
      </trkpt>
      <trkpt lat="45.94493" lon="6.06646">
        <ele>519</ele>
        <time>2011-10-09T06:39:05.000Z</time>
      </trkpt>
      <trkpt lat="45.94496" lon="6.06645">
        <ele>520</ele>
        <time>2011-10-09T06:39:07.000Z</time>
      </trkpt>
      <trkpt lat="45.94501" lon="6.06645">
        <ele>521.59997558594</ele>
        <time>2011-10-09T06:39:11.000Z</time>
      </trkpt>
      <trkpt lat="45.94508" lon="6.06644">
        <ele>523.79998779297</ele>
        <time>2011-10-09T06:39:17.000Z</time>
      </trkpt>
      <trkpt lat="45.94514" lon="6.06643">
        <ele>525.20001220703</ele>
        <time>2011-10-09T06:39:20.000Z</time>
      </trkpt>
      <trkpt lat="45.94516" lon="6.06644">
        <ele>525.40002441406</ele>
        <time>2011-10-09T06:39:22.000Z</time>
      </trkpt>
      <trkpt lat="45.94517" lon="6.06645">
        <ele>525.59997558594</ele>
        <time>2011-10-09T06:39:23.000Z</time>
      </trkpt>
      <trkpt lat="45.94521" lon="6.06644">
        <ele>526.59997558594</ele>
        <time>2011-10-09T06:39:26.000Z</time>
      </trkpt>
      <trkpt lat="45.94527" lon="6.06638">
        <ele>530.40002441406</ele>
        <time>2011-10-09T06:39:31.000Z</time>
      </trkpt>
      <trkpt lat="45.94529" lon="6.0664">
        <ele>530.20001220703</ele>
        <time>2011-10-09T06:39:33.000Z</time>
      </trkpt>
      <trkpt lat="45.94532" lon="6.06643">
        <ele>529.79998779297</ele>
        <time>2011-10-09T06:39:36.000Z</time>
      </trkpt>
      <trkpt lat="45.94534" lon="6.06642">
        <ele>530.59997558594</ele>
        <time>2011-10-09T06:39:37.000Z</time>
      </trkpt>
      <trkpt lat="45.94538" lon="6.0664">
        <ele>532.59997558594</ele>
        <time>2011-10-09T06:39:40.000Z</time>
      </trkpt>
      <trkpt lat="45.94539" lon="6.06641">
        <ele>532.40002441406</ele>
        <time>2011-10-09T06:39:41.000Z</time>
      </trkpt>
      <trkpt lat="45.94542" lon="6.06639">
        <ele>534</ele>
        <time>2011-10-09T06:39:44.000Z</time>
      </trkpt>
      <trkpt lat="45.94556" lon="6.06629">
        <ele>541.59997558594</ele>
        <time>2011-10-09T06:39:55.000Z</time>
      </trkpt>
      <trkpt lat="45.94559" lon="6.06627">
        <ele>543.40002441406</ele>
        <time>2011-10-09T06:39:58.000Z</time>
      </trkpt>
      <trkpt lat="45.9456" lon="6.06628">
        <ele>543.59997558594</ele>
        <time>2011-10-09T06:39:59.000Z</time>
      </trkpt>
      <trkpt lat="45.94564" lon="6.06627">
        <ele>544.59997558594</ele>
        <time>2011-10-09T06:40:02.000Z</time>
      </trkpt>
      <trkpt lat="45.94567" lon="6.06627">
        <ele>545.79998779297</ele>
        <time>2011-10-09T06:40:08.000Z</time>
      </trkpt>
      <trkpt lat="45.94587" lon="6.06631">
        <ele>549</ele>
        <time>2011-10-09T06:40:23.000Z</time>
      </trkpt>
      <trkpt lat="45.94603" lon="6.06633">
        <ele>551.40002441406</ele>
        <time>2011-10-09T06:40:41.000Z</time>
      </trkpt>
      <trkpt lat="45.94611" lon="6.06634">
        <ele>552.59997558594</ele>
        <time>2011-10-09T06:40:50.000Z</time>
      </trkpt>
      <trkpt lat="45.94615" lon="6.06635">
        <ele>553</ele>
        <time>2011-10-09T06:40:54.000Z</time>
      </trkpt>
      <trkpt lat="45.94616" lon="6.06636">
        <ele>553.20001220703</ele>
        <time>2011-10-09T06:40:56.000Z</time>
      </trkpt>
      <trkpt lat="45.94626" lon="6.06639">
        <ele>553.79998779297</ele>
        <time>2011-10-09T06:41:05.000Z</time>
      </trkpt>
      <trkpt lat="45.94628" lon="6.06639">
        <ele>554.20001220703</ele>
        <time>2011-10-09T06:41:07.000Z</time>
      </trkpt>
      <trkpt lat="45.94633" lon="6.06639">
        <ele>555.40002441406</ele>
        <time>2011-10-09T06:41:11.000Z</time>
      </trkpt>
      <trkpt lat="45.94633" lon="6.0664">
        <ele>554.79998779297</ele>
        <time>2011-10-09T06:41:12.000Z</time>
      </trkpt>
      <trkpt lat="45.94639" lon="6.06642">
        <ele>555.59997558594</ele>
        <time>2011-10-09T06:41:18.000Z</time>
      </trkpt>
      <trkpt lat="45.94642" lon="6.06646">
        <ele>554.40002441406</ele>
        <time>2011-10-09T06:41:23.000Z</time>
      </trkpt>
      <trkpt lat="45.94637" lon="6.06654">
        <ele>550</ele>
        <time>2011-10-09T06:41:49.000Z</time>
      </trkpt>
      <trkpt lat="45.94636" lon="6.06657">
        <ele>548.40002441406</ele>
        <time>2011-10-09T06:41:50.000Z</time>
      </trkpt>
      <trkpt lat="45.94646" lon="6.06647">
        <ele>555</ele>
        <time>2011-10-09T06:43:55.000Z</time>
      </trkpt>
      <trkpt lat="45.94646" lon="6.06645">
        <ele>555.79998779297</ele>
        <time>2011-10-09T06:43:56.000Z</time>
      </trkpt>
      <trkpt lat="45.94647" lon="6.06645">
        <ele>555.79998779297</ele>
        <time>2011-10-09T06:43:58.000Z</time>
      </trkpt>
      <trkpt lat="45.94648" lon="6.06646">
        <ele>555.59997558594</ele>
        <time>2011-10-09T06:44:00.000Z</time>
      </trkpt>
      <trkpt lat="45.94653" lon="6.06647">
        <ele>556.59997558594</ele>
        <time>2011-10-09T06:44:03.000Z</time>
      </trkpt>
      <trkpt lat="45.94654" lon="6.06649">
        <ele>556</ele>
        <time>2011-10-09T06:44:04.000Z</time>
      </trkpt>
      <trkpt lat="45.9466" lon="6.06654">
        <ele>555.40002441406</ele>
        <time>2011-10-09T06:44:08.000Z</time>
      </trkpt>
      <trkpt lat="45.94663" lon="6.06655">
        <ele>555.79998779297</ele>
        <time>2011-10-09T06:44:09.000Z</time>
      </trkpt>
      <trkpt lat="45.94675" lon="6.0666">
        <ele>556</ele>
        <time>2011-10-09T06:44:15.000Z</time>
      </trkpt>
      <trkpt lat="45.9469" lon="6.06662">
        <ele>557.79998779297</ele>
        <time>2011-10-09T06:44:20.000Z</time>
      </trkpt>
      <trkpt lat="45.94702" lon="6.06663">
        <ele>559.20001220703</ele>
        <time>2011-10-09T06:44:25.000Z</time>
      </trkpt>
      <trkpt lat="45.9471" lon="6.06664">
        <ele>560.40002441406</ele>
        <time>2011-10-09T06:44:30.000Z</time>
      </trkpt>
      <trkpt lat="45.94711" lon="6.06666">
        <ele>559.79998779297</ele>
        <time>2011-10-09T06:44:31.000Z</time>
      </trkpt>
      <trkpt lat="45.94715" lon="6.06665">
        <ele>560.79998779297</ele>
        <time>2011-10-09T06:44:34.000Z</time>
      </trkpt>
      <trkpt lat="45.94722" lon="6.06662">
        <ele>563.20001220703</ele>
        <time>2011-10-09T06:44:38.000Z</time>
      </trkpt>
      <trkpt lat="45.94726" lon="6.06661">
        <ele>564.40002441406</ele>
        <time>2011-10-09T06:44:40.000Z</time>
      </trkpt>
      <trkpt lat="45.94734" lon="6.06661">
        <ele>565.79998779297</ele>
        <time>2011-10-09T06:44:44.000Z</time>
      </trkpt>
      <trkpt lat="45.94736" lon="6.0666">
        <ele>566.59997558594</ele>
        <time>2011-10-09T06:44:45.000Z</time>
      </trkpt>
      <trkpt lat="45.94741" lon="6.06662">
        <ele>566.59997558594</ele>
        <time>2011-10-09T06:44:49.000Z</time>
      </trkpt>
      <trkpt lat="45.94741" lon="6.06662">
        <ele>566.40002441406</ele>
        <time>2011-10-09T06:44:50.000Z</time>
      </trkpt>
      <trkpt lat="45.94751" lon="6.06666">
        <ele>566</ele>
        <time>2011-10-09T06:44:54.000Z</time>
      </trkpt>
      <trkpt lat="45.94757" lon="6.06668">
        <ele>565.59997558594</ele>
        <time>2011-10-09T06:44:57.000Z</time>
      </trkpt>
      <trkpt lat="45.9476" lon="6.0667">
        <ele>565.20001220703</ele>
        <time>2011-10-09T06:44:59.000Z</time>
      </trkpt>
      <trkpt lat="45.94764" lon="6.0667">
        <ele>565.40002441406</ele>
        <time>2011-10-09T06:45:01.000Z</time>
      </trkpt>
      <trkpt lat="45.9477" lon="6.0667">
        <ele>565.59997558594</ele>
        <time>2011-10-09T06:45:04.000Z</time>
      </trkpt>
      <trkpt lat="45.94774" lon="6.0667">
        <ele>566</ele>
        <time>2011-10-09T06:45:05.000Z</time>
      </trkpt>
      <trkpt lat="45.94784" lon="6.06673">
        <ele>565.40002441406</ele>
        <time>2011-10-09T06:45:11.000Z</time>
      </trkpt>
      <trkpt lat="45.94793" lon="6.0667">
        <ele>566.79998779297</ele>
        <time>2011-10-09T06:45:17.000Z</time>
      </trkpt>
      <trkpt lat="45.94804" lon="6.06669">
        <ele>567.79998779297</ele>
        <time>2011-10-09T06:45:24.000Z</time>
      </trkpt>
      <trkpt lat="45.94809" lon="6.0667">
        <ele>567.59997558594</ele>
        <time>2011-10-09T06:45:27.000Z</time>
      </trkpt>
      <trkpt lat="45.94813" lon="6.06667">
        <ele>568.79998779297</ele>
        <time>2011-10-09T06:45:29.000Z</time>
      </trkpt>
      <trkpt lat="45.94822" lon="6.06663">
        <ele>571</ele>
        <time>2011-10-09T06:45:35.000Z</time>
      </trkpt>
      <trkpt lat="45.94828" lon="6.06663">
        <ele>571.20001220703</ele>
        <time>2011-10-09T06:45:39.000Z</time>
      </trkpt>
      <trkpt lat="45.94832" lon="6.06663">
        <ele>571.59997558594</ele>
        <time>2011-10-09T06:45:41.000Z</time>
      </trkpt>
      <trkpt lat="45.94844" lon="6.06663">
        <ele>572.40002441406</ele>
        <time>2011-10-09T06:45:46.000Z</time>
      </trkpt>
      <trkpt lat="45.94846" lon="6.06664">
        <ele>572.40002441406</ele>
        <time>2011-10-09T06:45:47.000Z</time>
      </trkpt>
      <trkpt lat="45.9485" lon="6.06664">
        <ele>572.79998779297</ele>
        <time>2011-10-09T06:45:50.000Z</time>
      </trkpt>
      <trkpt lat="45.94853" lon="6.06664">
        <ele>573</ele>
        <time>2011-10-09T06:45:52.000Z</time>
      </trkpt>
      <trkpt lat="45.94855" lon="6.06668">
        <ele>571.59997558594</ele>
        <time>2011-10-09T06:45:54.000Z</time>
      </trkpt>
      <trkpt lat="45.94859" lon="6.06669">
        <ele>571.79998779297</ele>
        <time>2011-10-09T06:45:57.000Z</time>
      </trkpt>
      <trkpt lat="45.94863" lon="6.0667">
        <ele>572</ele>
        <time>2011-10-09T06:46:00.000Z</time>
      </trkpt>
      <trkpt lat="45.94866" lon="6.0667">
        <ele>572</ele>
        <time>2011-10-09T06:46:02.000Z</time>
      </trkpt>
      <trkpt lat="45.94875" lon="6.06672">
        <ele>572.59997558594</ele>
        <time>2011-10-09T06:46:08.000Z</time>
      </trkpt>
      <trkpt lat="45.94883" lon="6.06669">
        <ele>574</ele>
        <time>2011-10-09T06:46:12.000Z</time>
      </trkpt>
      <trkpt lat="45.9489" lon="6.06673">
        <ele>573.59997558594</ele>
        <time>2011-10-09T06:46:16.000Z</time>
      </trkpt>
      <trkpt lat="45.94893" lon="6.06676">
        <ele>573.20001220703</ele>
        <time>2011-10-09T06:46:18.000Z</time>
      </trkpt>
      <trkpt lat="45.94895" lon="6.06682">
        <ele>571.79998779297</ele>
        <time>2011-10-09T06:46:20.000Z</time>
      </trkpt>
      <trkpt lat="45.94899" lon="6.0669">
        <ele>570</ele>
        <time>2011-10-09T06:46:23.000Z</time>
      </trkpt>
      <trkpt lat="45.94901" lon="6.06692">
        <ele>569.59997558594</ele>
        <time>2011-10-09T06:46:24.000Z</time>
      </trkpt>
      <trkpt lat="45.94909" lon="6.06693">
        <ele>570.40002441406</ele>
        <time>2011-10-09T06:46:27.000Z</time>
      </trkpt>
      <trkpt lat="45.94914" lon="6.06691">
        <ele>571.20001220703</ele>
        <time>2011-10-09T06:46:30.000Z</time>
      </trkpt>
      <trkpt lat="45.9492" lon="6.06692">
        <ele>571.59997558594</ele>
        <time>2011-10-09T06:46:33.000Z</time>
      </trkpt>
      <trkpt lat="45.94927" lon="6.06693">
        <ele>572</ele>
        <time>2011-10-09T06:46:38.000Z</time>
      </trkpt>
      <trkpt lat="45.94928" lon="6.06694">
        <ele>572</ele>
        <time>2011-10-09T06:46:39.000Z</time>
      </trkpt>
      <trkpt lat="45.94936" lon="6.06695">
        <ele>572.59997558594</ele>
        <time>2011-10-09T06:46:43.000Z</time>
      </trkpt>
      <trkpt lat="45.9494" lon="6.06695">
        <ele>573</ele>
        <time>2011-10-09T06:46:45.000Z</time>
      </trkpt>
      <trkpt lat="45.94949" lon="6.06695">
        <ele>573.79998779297</ele>
        <time>2011-10-09T06:46:50.000Z</time>
      </trkpt>
      <trkpt lat="45.94959" lon="6.06696">
        <ele>574.79998779297</ele>
        <time>2011-10-09T06:46:55.000Z</time>
      </trkpt>
      <trkpt lat="45.94971" lon="6.06696">
        <ele>576.20001220703</ele>
        <time>2011-10-09T06:47:01.000Z</time>
      </trkpt>
      <trkpt lat="45.94976" lon="6.06701">
        <ele>575.40002441406</ele>
        <time>2011-10-09T06:47:05.000Z</time>
      </trkpt>
      <trkpt lat="45.94978" lon="6.06701">
        <ele>575.40002441406</ele>
        <time>2011-10-09T06:47:06.000Z</time>
      </trkpt>
      <trkpt lat="45.94988" lon="6.06705">
        <ele>575.59997558594</ele>
        <time>2011-10-09T06:47:12.000Z</time>
      </trkpt>
      <trkpt lat="45.94997" lon="6.06704">
        <ele>576.79998779297</ele>
        <time>2011-10-09T06:47:17.000Z</time>
      </trkpt>
      <trkpt lat="45.95008" lon="6.06706">
        <ele>577.40002441406</ele>
        <time>2011-10-09T06:47:22.000Z</time>
      </trkpt>
      <trkpt lat="45.95022" lon="6.06712">
        <ele>577.20001220703</ele>
        <time>2011-10-09T06:47:29.000Z</time>
      </trkpt>
      <trkpt lat="45.95037" lon="6.06714">
        <ele>578</ele>
        <time>2011-10-09T06:47:36.000Z</time>
      </trkpt>
      <trkpt lat="45.95052" lon="6.06714">
        <ele>579.20001220703</ele>
        <time>2011-10-09T06:47:42.000Z</time>
      </trkpt>
      <trkpt lat="45.95065" lon="6.06715">
        <ele>580.20001220703</ele>
        <time>2011-10-09T06:47:48.000Z</time>
      </trkpt>
      <trkpt lat="45.95077" lon="6.06716">
        <ele>581.20001220703</ele>
        <time>2011-10-09T06:47:54.000Z</time>
      </trkpt>
      <trkpt lat="45.95087" lon="6.06718">
        <ele>582</ele>
        <time>2011-10-09T06:47:59.000Z</time>
      </trkpt>
      <trkpt lat="45.95099" lon="6.06718">
        <ele>583.79998779297</ele>
        <time>2011-10-09T06:48:05.000Z</time>
      </trkpt>
      <trkpt lat="45.95102" lon="6.06719">
        <ele>584</ele>
        <time>2011-10-09T06:48:07.000Z</time>
      </trkpt>
      <trkpt lat="45.95107" lon="6.06718">
        <ele>585</ele>
        <time>2011-10-09T06:48:10.000Z</time>
      </trkpt>
      <trkpt lat="45.95111" lon="6.06718">
        <ele>585.79998779297</ele>
        <time>2011-10-09T06:48:13.000Z</time>
      </trkpt>
      <trkpt lat="45.95115" lon="6.06718">
        <ele>586.40002441406</ele>
        <time>2011-10-09T06:48:15.000Z</time>
      </trkpt>
      <trkpt lat="45.95127" lon="6.06724">
        <ele>586.40002441406</ele>
        <time>2011-10-09T06:48:21.000Z</time>
      </trkpt>
      <trkpt lat="45.9514" lon="6.0673">
        <ele>586.40002441406</ele>
        <time>2011-10-09T06:48:28.000Z</time>
      </trkpt>
      <trkpt lat="45.9515" lon="6.06734">
        <ele>586.79998779297</ele>
        <time>2011-10-09T06:48:33.000Z</time>
      </trkpt>
      <trkpt lat="45.95161" lon="6.06737">
        <ele>587.20001220703</ele>
        <time>2011-10-09T06:48:38.000Z</time>
      </trkpt>
      <trkpt lat="45.95171" lon="6.06742">
        <ele>587.20001220703</ele>
        <time>2011-10-09T06:48:43.000Z</time>
      </trkpt>
      <trkpt lat="45.95182" lon="6.06747">
        <ele>587.79998779297</ele>
        <time>2011-10-09T06:48:49.000Z</time>
      </trkpt>
      <trkpt lat="45.95196" lon="6.06749">
        <ele>589.59997558594</ele>
        <time>2011-10-09T06:48:56.000Z</time>
      </trkpt>
      <trkpt lat="45.9521" lon="6.06751">
        <ele>591.59997558594</ele>
        <time>2011-10-09T06:49:04.000Z</time>
      </trkpt>
      <trkpt lat="45.95223" lon="6.06757">
        <ele>592.20001220703</ele>
        <time>2011-10-09T06:49:10.000Z</time>
      </trkpt>
      <trkpt lat="45.95239" lon="6.06762">
        <ele>593.59997558594</ele>
        <time>2011-10-09T06:49:17.000Z</time>
      </trkpt>
      <trkpt lat="45.95254" lon="6.06768">
        <ele>594.20001220703</ele>
        <time>2011-10-09T06:49:24.000Z</time>
      </trkpt>
      <trkpt lat="45.95268" lon="6.06772">
        <ele>594.20001220703</ele>
        <time>2011-10-09T06:49:30.000Z</time>
      </trkpt>
      <trkpt lat="45.95281" lon="6.06775">
        <ele>594.20001220703</ele>
        <time>2011-10-09T06:49:35.000Z</time>
      </trkpt>
      <trkpt lat="45.95299" lon="6.06782">
        <ele>594</ele>
        <time>2011-10-09T06:49:43.000Z</time>
      </trkpt>
      <trkpt lat="45.95313" lon="6.06787">
        <ele>594.20001220703</ele>
        <time>2011-10-09T06:49:49.000Z</time>
      </trkpt>
      <trkpt lat="45.95325" lon="6.0679">
        <ele>594.59997558594</ele>
        <time>2011-10-09T06:49:54.000Z</time>
      </trkpt>
      <trkpt lat="45.95338" lon="6.06799">
        <ele>594.59997558594</ele>
        <time>2011-10-09T06:50:00.000Z</time>
      </trkpt>
      <trkpt lat="45.95351" lon="6.06805">
        <ele>596.20001220703</ele>
        <time>2011-10-09T06:50:06.000Z</time>
      </trkpt>
      <trkpt lat="45.95361" lon="6.0681">
        <ele>597</ele>
        <time>2011-10-09T06:50:12.000Z</time>
      </trkpt>
      <trkpt lat="45.95372" lon="6.06817">
        <ele>597.79998779297</ele>
        <time>2011-10-09T06:50:18.000Z</time>
      </trkpt>
      <trkpt lat="45.95385" lon="6.06822">
        <ele>599.20001220703</ele>
        <time>2011-10-09T06:50:24.000Z</time>
      </trkpt>
      <trkpt lat="45.95392" lon="6.06834">
        <ele>597.40002441406</ele>
        <time>2011-10-09T06:50:29.000Z</time>
      </trkpt>
      <trkpt lat="45.95404" lon="6.06849">
        <ele>597.40002441406</ele>
        <time>2011-10-09T06:50:35.000Z</time>
      </trkpt>
      <trkpt lat="45.95412" lon="6.06859">
        <ele>597.59997558594</ele>
        <time>2011-10-09T06:50:39.000Z</time>
      </trkpt>
      <trkpt lat="45.95421" lon="6.06869">
        <ele>598.79998779297</ele>
        <time>2011-10-09T06:50:44.000Z</time>
      </trkpt>
      <trkpt lat="45.9543" lon="6.06881">
        <ele>600.20001220703</ele>
        <time>2011-10-09T06:50:50.000Z</time>
      </trkpt>
      <trkpt lat="45.95441" lon="6.06901">
        <ele>600.79998779297</ele>
        <time>2011-10-09T06:50:57.000Z</time>
      </trkpt>
      <trkpt lat="45.95452" lon="6.06916">
        <ele>601.40002441406</ele>
        <time>2011-10-09T06:51:03.000Z</time>
      </trkpt>
      <trkpt lat="45.9546" lon="6.06927">
        <ele>602.40002441406</ele>
        <time>2011-10-09T06:51:08.000Z</time>
      </trkpt>
      <trkpt lat="45.95466" lon="6.06943">
        <ele>602</ele>
        <time>2011-10-09T06:51:13.000Z</time>
      </trkpt>
      <trkpt lat="45.95473" lon="6.06956">
        <ele>602</ele>
        <time>2011-10-09T06:51:18.000Z</time>
      </trkpt>
      <trkpt lat="45.9548" lon="6.06968">
        <ele>602</ele>
        <time>2011-10-09T06:51:23.000Z</time>
      </trkpt>
      <trkpt lat="45.95489" lon="6.06981">
        <ele>602.20001220703</ele>
        <time>2011-10-09T06:51:28.000Z</time>
      </trkpt>
      <trkpt lat="45.95498" lon="6.06997">
        <ele>601.79998779297</ele>
        <time>2011-10-09T06:51:34.000Z</time>
      </trkpt>
      <trkpt lat="45.95508" lon="6.0701">
        <ele>603.59997558594</ele>
        <time>2011-10-09T06:51:40.000Z</time>
      </trkpt>
      <trkpt lat="45.95521" lon="6.07024">
        <ele>606.40002441406</ele>
        <time>2011-10-09T06:51:48.000Z</time>
      </trkpt>
      <trkpt lat="45.95529" lon="6.07034">
        <ele>607.59997558594</ele>
        <time>2011-10-09T06:51:53.000Z</time>
      </trkpt>
      <trkpt lat="45.95539" lon="6.07042">
        <ele>609.20001220703</ele>
        <time>2011-10-09T06:51:58.000Z</time>
      </trkpt>
      <trkpt lat="45.95548" lon="6.07053">
        <ele>610.40002441406</ele>
        <time>2011-10-09T06:52:04.000Z</time>
      </trkpt>
      <trkpt lat="45.9556" lon="6.07067">
        <ele>611.20001220703</ele>
        <time>2011-10-09T06:52:12.000Z</time>
      </trkpt>
      <trkpt lat="45.95571" lon="6.07074">
        <ele>612.59997558594</ele>
        <time>2011-10-09T06:52:18.000Z</time>
      </trkpt>
      <trkpt lat="45.95582" lon="6.0708">
        <ele>614.20001220703</ele>
        <time>2011-10-09T06:52:25.000Z</time>
      </trkpt>
      <trkpt lat="45.9559" lon="6.07085">
        <ele>616.59997558594</ele>
        <time>2011-10-09T06:52:30.000Z</time>
      </trkpt>
      <trkpt lat="45.95598" lon="6.0709">
        <ele>619.79998779297</ele>
        <time>2011-10-09T06:52:36.000Z</time>
      </trkpt>
      <trkpt lat="45.95606" lon="6.07097">
        <ele>622.40002441406</ele>
        <time>2011-10-09T06:52:42.000Z</time>
      </trkpt>
      <trkpt lat="45.95613" lon="6.07103">
        <ele>624.59997558594</ele>
        <time>2011-10-09T06:52:47.000Z</time>
      </trkpt>
      <trkpt lat="45.95621" lon="6.07109">
        <ele>627</ele>
        <time>2011-10-09T06:52:53.000Z</time>
      </trkpt>
      <trkpt lat="45.95626" lon="6.07111">
        <ele>628.40002441406</ele>
        <time>2011-10-09T06:52:56.000Z</time>
      </trkpt>
      <trkpt lat="45.95628" lon="6.07114">
        <ele>629</ele>
        <time>2011-10-09T06:52:58.000Z</time>
      </trkpt>
      <trkpt lat="45.95636" lon="6.07123">
        <ele>630.59997558594</ele>
        <time>2011-10-09T06:53:04.000Z</time>
      </trkpt>
      <trkpt lat="45.95639" lon="6.07126">
        <ele>631</ele>
        <time>2011-10-09T06:53:08.000Z</time>
      </trkpt>
      <trkpt lat="45.95642" lon="6.07129">
        <ele>631.79998779297</ele>
        <time>2011-10-09T06:53:10.000Z</time>
      </trkpt>
      <trkpt lat="45.95645" lon="6.07135">
        <ele>631.59997558594</ele>
        <time>2011-10-09T06:53:16.000Z</time>
      </trkpt>
      <trkpt lat="45.95651" lon="6.07141">
        <ele>632.40002441406</ele>
        <time>2011-10-09T06:53:22.000Z</time>
      </trkpt>
      <trkpt lat="45.95653" lon="6.07145">
        <ele>632.20001220703</ele>
        <time>2011-10-09T06:53:26.000Z</time>
      </trkpt>
      <trkpt lat="45.95654" lon="6.0715">
        <ele>631.79998779297</ele>
        <time>2011-10-09T06:53:28.000Z</time>
      </trkpt>
      <trkpt lat="45.95655" lon="6.07153">
        <ele>631.59997558594</ele>
        <time>2011-10-09T06:53:31.000Z</time>
      </trkpt>
      <trkpt lat="45.95655" lon="6.07156">
        <ele>631.20001220703</ele>
        <time>2011-10-09T06:53:34.000Z</time>
      </trkpt>
      <trkpt lat="45.95656" lon="6.07157">
        <ele>631.20001220703</ele>
        <time>2011-10-09T06:53:35.000Z</time>
      </trkpt>
      <trkpt lat="45.95657" lon="6.07159">
        <ele>631</ele>
        <time>2011-10-09T06:53:38.000Z</time>
      </trkpt>
      <trkpt lat="45.95659" lon="6.07164">
        <ele>630.79998779297</ele>
        <time>2011-10-09T06:53:42.000Z</time>
      </trkpt>
      <trkpt lat="45.9566" lon="6.07166">
        <ele>630.79998779297</ele>
        <time>2011-10-09T06:53:45.000Z</time>
      </trkpt>
      <trkpt lat="45.95662" lon="6.07168">
        <ele>631</ele>
        <time>2011-10-09T06:53:47.000Z</time>
      </trkpt>
      <trkpt lat="45.95662" lon="6.0717">
        <ele>631</ele>
        <time>2011-10-09T06:53:48.000Z</time>
      </trkpt>
      <trkpt lat="45.95666" lon="6.07174">
        <ele>631.59997558594</ele>
        <time>2011-10-09T06:53:53.000Z</time>
      </trkpt>
      <trkpt lat="45.95667" lon="6.07175">
        <ele>632</ele>
        <time>2011-10-09T06:53:54.000Z</time>
      </trkpt>
      <trkpt lat="45.9567" lon="6.07178">
        <ele>633</ele>
        <time>2011-10-09T06:53:57.000Z</time>
      </trkpt>
      <trkpt lat="45.95676" lon="6.07181">
        <ele>635.20001220703</ele>
        <time>2011-10-09T06:54:04.000Z</time>
      </trkpt>
      <trkpt lat="45.95682" lon="6.07183">
        <ele>637.40002441406</ele>
        <time>2011-10-09T06:54:07.000Z</time>
      </trkpt>
      <trkpt lat="45.95686" lon="6.07186">
        <ele>639.20001220703</ele>
        <time>2011-10-09T06:54:10.000Z</time>
      </trkpt>
      <trkpt lat="45.95688" lon="6.07187">
        <ele>639.79998779297</ele>
        <time>2011-10-09T06:54:11.000Z</time>
      </trkpt>
      <trkpt lat="45.95696" lon="6.07191">
        <ele>642.79998779297</ele>
        <time>2011-10-09T06:54:16.000Z</time>
      </trkpt>
      <trkpt lat="45.95709" lon="6.07195">
        <ele>646.79998779297</ele>
        <time>2011-10-09T06:54:22.000Z</time>
      </trkpt>
      <trkpt lat="45.95714" lon="6.07196">
        <ele>648.79998779297</ele>
        <time>2011-10-09T06:54:25.000Z</time>
      </trkpt>
      <trkpt lat="45.95716" lon="6.07197">
        <ele>649.20001220703</ele>
        <time>2011-10-09T06:54:27.000Z</time>
      </trkpt>
      <trkpt lat="45.95719" lon="6.07199">
        <ele>650</ele>
        <time>2011-10-09T06:54:29.000Z</time>
      </trkpt>
      <trkpt lat="45.95722" lon="6.07199">
        <ele>651</ele>
        <time>2011-10-09T06:54:31.000Z</time>
      </trkpt>
      <trkpt lat="45.95727" lon="6.07201">
        <ele>652.59997558594</ele>
        <time>2011-10-09T06:54:35.000Z</time>
      </trkpt>
      <trkpt lat="45.95727" lon="6.07202">
        <ele>652.59997558594</ele>
        <time>2011-10-09T06:54:36.000Z</time>
      </trkpt>
      <trkpt lat="45.95729" lon="6.07205">
        <ele>653</ele>
        <time>2011-10-09T06:54:40.000Z</time>
      </trkpt>
      <trkpt lat="45.9573" lon="6.07206">
        <ele>653.20001220703</ele>
        <time>2011-10-09T06:54:41.000Z</time>
      </trkpt>
      <trkpt lat="45.95733" lon="6.07208">
        <ele>653.59997558594</ele>
        <time>2011-10-09T06:54:45.000Z</time>
      </trkpt>
      <trkpt lat="45.95736" lon="6.07211">
        <ele>654.20001220703</ele>
        <time>2011-10-09T06:54:49.000Z</time>
      </trkpt>
      <trkpt lat="45.95736" lon="6.07212">
        <ele>654.20001220703</ele>
        <time>2011-10-09T06:54:50.000Z</time>
      </trkpt>
      <trkpt lat="45.95737" lon="6.07212">
        <ele>654.59997558594</ele>
        <time>2011-10-09T06:54:51.000Z</time>
      </trkpt>
      <trkpt lat="45.95742" lon="6.07214">
        <ele>655.79998779297</ele>
        <time>2011-10-09T06:54:56.000Z</time>
      </trkpt>
      <trkpt lat="45.95751" lon="6.07218">
        <ele>657.79998779297</ele>
        <time>2011-10-09T06:55:03.000Z</time>
      </trkpt>
      <trkpt lat="45.95759" lon="6.07221">
        <ele>659.59997558594</ele>
        <time>2011-10-09T06:55:09.000Z</time>
      </trkpt>
      <trkpt lat="45.95763" lon="6.07224">
        <ele>660.40002441406</ele>
        <time>2011-10-09T06:55:13.000Z</time>
      </trkpt>
      <trkpt lat="45.95763" lon="6.07225">
        <ele>660.20001220703</ele>
        <time>2011-10-09T06:55:14.000Z</time>
      </trkpt>
      <trkpt lat="45.95765" lon="6.07225">
        <ele>660.59997558594</ele>
        <time>2011-10-09T06:55:15.000Z</time>
      </trkpt>
      <trkpt lat="45.9577" lon="6.07226">
        <ele>661.79998779297</ele>
        <time>2011-10-09T06:55:19.000Z</time>
      </trkpt>
      <trkpt lat="45.95773" lon="6.07228">
        <ele>662.20001220703</ele>
        <time>2011-10-09T06:55:25.000Z</time>
      </trkpt>
      <trkpt lat="45.95774" lon="6.07232">
        <ele>662</ele>
        <time>2011-10-09T06:55:30.000Z</time>
      </trkpt>
      <trkpt lat="45.9578" lon="6.07236">
        <ele>662.79998779297</ele>
        <time>2011-10-09T06:55:36.000Z</time>
      </trkpt>
      <trkpt lat="45.95782" lon="6.07236">
        <ele>663.20001220703</ele>
        <time>2011-10-09T06:55:38.000Z</time>
      </trkpt>
      <trkpt lat="45.95787" lon="6.07237">
        <ele>664.40002441406</ele>
        <time>2011-10-09T06:55:41.000Z</time>
      </trkpt>
      <trkpt lat="45.95791" lon="6.07238">
        <ele>665.40002441406</ele>
        <time>2011-10-09T06:55:44.000Z</time>
      </trkpt>
      <trkpt lat="45.95795" lon="6.07238">
        <ele>666.40002441406</ele>
        <time>2011-10-09T06:55:47.000Z</time>
      </trkpt>
      <trkpt lat="45.95798" lon="6.07238">
        <ele>667</ele>
        <time>2011-10-09T06:55:50.000Z</time>
      </trkpt>
      <trkpt lat="45.95801" lon="6.07239">
        <ele>667.59997558594</ele>
        <time>2011-10-09T06:55:53.000Z</time>
      </trkpt>
      <trkpt lat="45.95805" lon="6.07243">
        <ele>668</ele>
        <time>2011-10-09T06:55:59.000Z</time>
      </trkpt>
      <trkpt lat="45.95807" lon="6.07244">
        <ele>668.20001220703</ele>
        <time>2011-10-09T06:56:02.000Z</time>
      </trkpt>
      <trkpt lat="45.95808" lon="6.07244">
        <ele>668.59997558594</ele>
        <time>2011-10-09T06:56:03.000Z</time>
      </trkpt>
      <trkpt lat="45.95809" lon="6.07243">
        <ele>669</ele>
        <time>2011-10-09T06:56:04.000Z</time>
      </trkpt>
      <trkpt lat="45.95811" lon="6.07242">
        <ele>669.79998779297</ele>
        <time>2011-10-09T06:56:07.000Z</time>
      </trkpt>
      <trkpt lat="45.95812" lon="6.07243">
        <ele>669.79998779297</ele>
        <time>2011-10-09T06:56:08.000Z</time>
      </trkpt>
      <trkpt lat="45.95814" lon="6.07244">
        <ele>670</ele>
        <time>2011-10-09T06:56:10.000Z</time>
      </trkpt>
      <trkpt lat="45.95816" lon="6.07246">
        <ele>670.40002441406</ele>
        <time>2011-10-09T06:56:12.000Z</time>
      </trkpt>
      <trkpt lat="45.95818" lon="6.07246">
        <ele>670.59997558594</ele>
        <time>2011-10-09T06:56:13.000Z</time>
      </trkpt>
      <trkpt lat="45.9582" lon="6.07246">
        <ele>671.20001220703</ele>
        <time>2011-10-09T06:56:16.000Z</time>
      </trkpt>
      <trkpt lat="45.95821" lon="6.07246">
        <ele>671.59997558594</ele>
        <time>2011-10-09T06:56:18.000Z</time>
      </trkpt>
      <trkpt lat="45.95824" lon="6.07246">
        <ele>672.20001220703</ele>
        <time>2011-10-09T06:56:20.000Z</time>
      </trkpt>
      <trkpt lat="45.9583" lon="6.07248">
        <ele>673.40002441406</ele>
        <time>2011-10-09T06:56:24.000Z</time>
      </trkpt>
      <trkpt lat="45.95831" lon="6.07248">
        <ele>673.59997558594</ele>
        <time>2011-10-09T06:56:25.000Z</time>
      </trkpt>
      <trkpt lat="45.95836" lon="6.07247">
        <ele>675.40002441406</ele>
        <time>2011-10-09T06:56:28.000Z</time>
      </trkpt>
      <trkpt lat="45.95839" lon="6.07248">
        <ele>676.20001220703</ele>
        <time>2011-10-09T06:56:30.000Z</time>
      </trkpt>
      <trkpt lat="45.95846" lon="6.07249">
        <ele>678.20001220703</ele>
        <time>2011-10-09T06:56:34.000Z</time>
      </trkpt>
      <trkpt lat="45.95852" lon="6.07248">
        <ele>680.20001220703</ele>
        <time>2011-10-09T06:56:37.000Z</time>
      </trkpt>
      <trkpt lat="45.95857" lon="6.07248">
        <ele>682</ele>
        <time>2011-10-09T06:56:42.000Z</time>
      </trkpt>
      <trkpt lat="45.95864" lon="6.07245">
        <ele>685</ele>
        <time>2011-10-09T06:56:48.000Z</time>
      </trkpt>
      <trkpt lat="45.95866" lon="6.07246">
        <ele>685.40002441406</ele>
        <time>2011-10-09T06:56:50.000Z</time>
      </trkpt>
      <trkpt lat="45.95873" lon="6.07247">
        <ele>687.40002441406</ele>
        <time>2011-10-09T06:56:56.000Z</time>
      </trkpt>
      <trkpt lat="45.95881" lon="6.0725">
        <ele>689.40002441406</ele>
        <time>2011-10-09T06:57:02.000Z</time>
      </trkpt>
      <trkpt lat="45.95883" lon="6.0725">
        <ele>690</ele>
        <time>2011-10-09T06:57:03.000Z</time>
      </trkpt>
      <trkpt lat="45.95884" lon="6.0725">
        <ele>690.40002441406</ele>
        <time>2011-10-09T06:57:04.000Z</time>
      </trkpt>
      <trkpt lat="45.95891" lon="6.07255">
        <ele>691.79998779297</ele>
        <time>2011-10-09T06:57:09.000Z</time>
      </trkpt>
      <trkpt lat="45.95898" lon="6.07259">
        <ele>693.59997558594</ele>
        <time>2011-10-09T06:57:17.000Z</time>
      </trkpt>
      <trkpt lat="45.95899" lon="6.07261">
        <ele>693.59997558594</ele>
        <time>2011-10-09T06:57:20.000Z</time>
      </trkpt>
      <trkpt lat="45.95901" lon="6.07264">
        <ele>694</ele>
        <time>2011-10-09T06:57:23.000Z</time>
      </trkpt>
      <trkpt lat="45.95908" lon="6.07268">
        <ele>695.40002441406</ele>
        <time>2011-10-09T06:57:30.000Z</time>
      </trkpt>
      <trkpt lat="45.95909" lon="6.0727">
        <ele>695.59997558594</ele>
        <time>2011-10-09T06:57:32.000Z</time>
      </trkpt>
      <trkpt lat="45.9591" lon="6.07271">
        <ele>695.59997558594</ele>
        <time>2011-10-09T06:57:36.000Z</time>
      </trkpt>
      <trkpt lat="45.95911" lon="6.07273">
        <ele>695.59997558594</ele>
        <time>2011-10-09T06:57:39.000Z</time>
      </trkpt>
      <trkpt lat="45.95908" lon="6.07272">
        <ele>695</ele>
        <time>2011-10-09T06:59:34.000Z</time>
      </trkpt>
      <trkpt lat="45.95908" lon="6.07273">
        <ele>694.59997558594</ele>
        <time>2011-10-09T06:59:35.000Z</time>
      </trkpt>
      <trkpt lat="45.95909" lon="6.07268">
        <ele>695.79998779297</ele>
        <time>2011-10-09T07:00:01.000Z</time>
      </trkpt>
      <trkpt lat="45.9591" lon="6.07268">
        <ele>696.20001220703</ele>
        <time>2011-10-09T07:00:03.000Z</time>
      </trkpt>
      <trkpt lat="45.95912" lon="6.07268">
        <ele>696.59997558594</ele>
        <time>2011-10-09T07:00:04.000Z</time>
      </trkpt>
      <trkpt lat="45.95915" lon="6.07269">
        <ele>697.20001220703</ele>
        <time>2011-10-09T07:00:10.000Z</time>
      </trkpt>
      <trkpt lat="45.95917" lon="6.07271">
        <ele>697.79998779297</ele>
        <time>2011-10-09T07:00:16.000Z</time>
      </trkpt>
      <trkpt lat="45.95919" lon="6.07274">
        <ele>697.79998779297</ele>
        <time>2011-10-09T07:00:21.000Z</time>
      </trkpt>
      <trkpt lat="45.95926" lon="6.0728">
        <ele>698.79998779297</ele>
        <time>2011-10-09T07:00:31.000Z</time>
      </trkpt>
      <trkpt lat="45.95936" lon="6.07289">
        <ele>700.40002441406</ele>
        <time>2011-10-09T07:00:38.000Z</time>
      </trkpt>
      <trkpt lat="45.95946" lon="6.073">
        <ele>701.79998779297</ele>
        <time>2011-10-09T07:00:44.000Z</time>
      </trkpt>
      <trkpt lat="45.9596" lon="6.07312">
        <ele>704.59997558594</ele>
        <time>2011-10-09T07:00:51.000Z</time>
      </trkpt>
      <trkpt lat="45.9597" lon="6.07323">
        <ele>706</ele>
        <time>2011-10-09T07:00:57.000Z</time>
      </trkpt>
      <trkpt lat="45.95981" lon="6.07332">
        <ele>708</ele>
        <time>2011-10-09T07:01:04.000Z</time>
      </trkpt>
      <trkpt lat="45.95985" lon="6.0734">
        <ele>708.79998779297</ele>
        <time>2011-10-09T07:01:09.000Z</time>
      </trkpt>
      <trkpt lat="45.95987" lon="6.07341">
        <ele>709.40002441406</ele>
        <time>2011-10-09T07:01:10.000Z</time>
      </trkpt>
      <trkpt lat="45.95991" lon="6.07342">
        <ele>710.59997558594</ele>
        <time>2011-10-09T07:01:13.000Z</time>
      </trkpt>
      <trkpt lat="45.96001" lon="6.07348">
        <ele>712.79998779297</ele>
        <time>2011-10-09T07:01:20.000Z</time>
      </trkpt>
      <trkpt lat="45.96008" lon="6.07353">
        <ele>713.59997558594</ele>
        <time>2011-10-09T07:01:25.000Z</time>
      </trkpt>
      <trkpt lat="45.96019" lon="6.07358">
        <ele>714.79998779297</ele>
        <time>2011-10-09T07:01:31.000Z</time>
      </trkpt>
      <trkpt lat="45.96027" lon="6.07361">
        <ele>715.79998779297</ele>
        <time>2011-10-09T07:01:37.000Z</time>
      </trkpt>
      <trkpt lat="45.96039" lon="6.07367">
        <ele>717</ele>
        <time>2011-10-09T07:01:44.000Z</time>
      </trkpt>
      <trkpt lat="45.96052" lon="6.07375">
        <ele>717.79998779297</ele>
        <time>2011-10-09T07:01:51.000Z</time>
      </trkpt>
      <trkpt lat="45.96062" lon="6.07381">
        <ele>718.59997558594</ele>
        <time>2011-10-09T07:01:57.000Z</time>
      </trkpt>
      <trkpt lat="45.96074" lon="6.07384">
        <ele>719.59997558594</ele>
        <time>2011-10-09T07:02:03.000Z</time>
      </trkpt>
      <trkpt lat="45.96081" lon="6.07377">
        <ele>721.59997558594</ele>
        <time>2011-10-09T07:02:08.000Z</time>
      </trkpt>
      <trkpt lat="45.96081" lon="6.07371">
        <ele>722.59997558594</ele>
        <time>2011-10-09T07:02:10.000Z</time>
      </trkpt>
      <trkpt lat="45.96081" lon="6.07365">
        <ele>723.59997558594</ele>
        <time>2011-10-09T07:02:13.000Z</time>
      </trkpt>
      <trkpt lat="45.96079" lon="6.07354">
        <ele>725</ele>
        <time>2011-10-09T07:02:19.000Z</time>
      </trkpt>
      <trkpt lat="45.96079" lon="6.07344">
        <ele>726.40002441406</ele>
        <time>2011-10-09T07:02:24.000Z</time>
      </trkpt>
      <trkpt lat="45.96078" lon="6.07334">
        <ele>727.79998779297</ele>
        <time>2011-10-09T07:02:28.000Z</time>
      </trkpt>
      <trkpt lat="45.96076" lon="6.07327">
        <ele>728.40002441406</ele>
        <time>2011-10-09T07:02:32.000Z</time>
      </trkpt>
      <trkpt lat="45.96073" lon="6.07324">
        <ele>728.20001220703</ele>
        <time>2011-10-09T07:02:34.000Z</time>
      </trkpt>
      <trkpt lat="45.96063" lon="6.07313">
        <ele>727.79998779297</ele>
        <time>2011-10-09T07:02:40.000Z</time>
      </trkpt>
      <trkpt lat="45.96062" lon="6.07311">
        <ele>727.79998779297</ele>
        <time>2011-10-09T07:02:41.000Z</time>
      </trkpt>
      <trkpt lat="45.96061" lon="6.07307">
        <ele>728.20001220703</ele>
        <time>2011-10-09T07:02:43.000Z</time>
      </trkpt>
      <trkpt lat="45.96059" lon="6.073">
        <ele>728.59997558594</ele>
        <time>2011-10-09T07:02:46.000Z</time>
      </trkpt>
      <trkpt lat="45.96054" lon="6.07288">
        <ele>729.40002441406</ele>
        <time>2011-10-09T07:02:51.000Z</time>
      </trkpt>
      <trkpt lat="45.9605" lon="6.07278">
        <ele>729.59997558594</ele>
        <time>2011-10-09T07:02:55.000Z</time>
      </trkpt>
      <trkpt lat="45.96047" lon="6.07262">
        <ele>731.20001220703</ele>
        <time>2011-10-09T07:03:01.000Z</time>
      </trkpt>
      <trkpt lat="45.96042" lon="6.07245">
        <ele>732.59997558594</ele>
        <time>2011-10-09T07:03:07.000Z</time>
      </trkpt>
      <trkpt lat="45.96042" lon="6.07242">
        <ele>732.79998779297</ele>
        <time>2011-10-09T07:03:08.000Z</time>
      </trkpt>
      <trkpt lat="45.96041" lon="6.07233">
        <ele>733.59997558594</ele>
        <time>2011-10-09T07:03:12.000Z</time>
      </trkpt>
      <trkpt lat="45.96041" lon="6.07222">
        <ele>734.79998779297</ele>
        <time>2011-10-09T07:03:18.000Z</time>
      </trkpt>
      <trkpt lat="45.9604" lon="6.07221">
        <ele>734.79998779297</ele>
        <time>2011-10-09T07:03:19.000Z</time>
      </trkpt>
      <trkpt lat="45.96033" lon="6.07218">
        <ele>734.20001220703</ele>
        <time>2011-10-09T07:03:24.000Z</time>
      </trkpt>
      <trkpt lat="45.96029" lon="6.07211">
        <ele>734.40002441406</ele>
        <time>2011-10-09T07:03:27.000Z</time>
      </trkpt>
      <trkpt lat="45.96027" lon="6.07207">
        <ele>734.59997558594</ele>
        <time>2011-10-09T07:03:29.000Z</time>
      </trkpt>
      <trkpt lat="45.96027" lon="6.07205">
        <ele>734.79998779297</ele>
        <time>2011-10-09T07:03:30.000Z</time>
      </trkpt>
      <trkpt lat="45.96021" lon="6.07192">
        <ele>735.79998779297</ele>
        <time>2011-10-09T07:03:35.000Z</time>
      </trkpt>
      <trkpt lat="45.9602" lon="6.07187">
        <ele>736.20001220703</ele>
        <time>2011-10-09T07:03:37.000Z</time>
      </trkpt>
      <trkpt lat="45.96021" lon="6.07183">
        <ele>736.79998779297</ele>
        <time>2011-10-09T07:03:38.000Z</time>
      </trkpt>
      <trkpt lat="45.96021" lon="6.07178">
        <ele>737.59997558594</ele>
        <time>2011-10-09T07:03:40.000Z</time>
      </trkpt>
      <trkpt lat="45.96023" lon="6.07171">
        <ele>738.59997558594</ele>
        <time>2011-10-09T07:03:42.000Z</time>
      </trkpt>
      <trkpt lat="45.96024" lon="6.07166">
        <ele>739.20001220703</ele>
        <time>2011-10-09T07:03:45.000Z</time>
      </trkpt>
      <trkpt lat="45.96028" lon="6.07153">
        <ele>740.40002441406</ele>
        <time>2011-10-09T07:03:50.000Z</time>
      </trkpt>
      <trkpt lat="45.96031" lon="6.07145">
        <ele>741.20001220703</ele>
        <time>2011-10-09T07:03:53.000Z</time>
      </trkpt>
      <trkpt lat="45.96031" lon="6.07142">
        <ele>741.40002441406</ele>
        <time>2011-10-09T07:03:55.000Z</time>
      </trkpt>
      <trkpt lat="45.96029" lon="6.07122">
        <ele>742.40002441406</ele>
        <time>2011-10-09T07:04:17.000Z</time>
      </trkpt>
      <trkpt lat="45.9603" lon="6.07121">
        <ele>742.40002441406</ele>
        <time>2011-10-09T07:04:18.000Z</time>
      </trkpt>
      <trkpt lat="45.96027" lon="6.07116">
        <ele>742.59997558594</ele>
        <time>2011-10-09T07:04:22.000Z</time>
      </trkpt>
      <trkpt lat="45.96022" lon="6.07107">
        <ele>742.59997558594</ele>
        <time>2011-10-09T07:04:29.000Z</time>
      </trkpt>
      <trkpt lat="45.96019" lon="6.07097">
        <ele>743</ele>
        <time>2011-10-09T07:04:33.000Z</time>
      </trkpt>
      <trkpt lat="45.9602" lon="6.07086">
        <ele>743.59997558594</ele>
        <time>2011-10-09T07:04:38.000Z</time>
      </trkpt>
      <trkpt lat="45.96017" lon="6.07067">
        <ele>744.59997558594</ele>
        <time>2011-10-09T07:04:44.000Z</time>
      </trkpt>
      <trkpt lat="45.96015" lon="6.07061">
        <ele>744.79998779297</ele>
        <time>2011-10-09T07:04:46.000Z</time>
      </trkpt>
      <trkpt lat="45.96011" lon="6.07053">
        <ele>745</ele>
        <time>2011-10-09T07:04:49.000Z</time>
      </trkpt>
      <trkpt lat="45.96009" lon="6.07045">
        <ele>745.40002441406</ele>
        <time>2011-10-09T07:04:52.000Z</time>
      </trkpt>
      <trkpt lat="45.96007" lon="6.07037">
        <ele>746</ele>
        <time>2011-10-09T07:04:55.000Z</time>
      </trkpt>
      <trkpt lat="45.96005" lon="6.07035">
        <ele>745.79998779297</ele>
        <time>2011-10-09T07:04:56.000Z</time>
      </trkpt>
      <trkpt lat="45.95997" lon="6.07028">
        <ele>745.59997558594</ele>
        <time>2011-10-09T07:05:00.000Z</time>
      </trkpt>
      <trkpt lat="45.95991" lon="6.07014">
        <ele>746.20001220703</ele>
        <time>2011-10-09T07:05:05.000Z</time>
      </trkpt>
      <trkpt lat="45.9599" lon="6.07011">
        <ele>746.40002441406</ele>
        <time>2011-10-09T07:05:06.000Z</time>
      </trkpt>
      <trkpt lat="45.95988" lon="6.06997">
        <ele>747</ele>
        <time>2011-10-09T07:05:11.000Z</time>
      </trkpt>
      <trkpt lat="45.95982" lon="6.06971">
        <ele>747.20001220703</ele>
        <time>2011-10-09T07:05:19.000Z</time>
      </trkpt>
      <trkpt lat="45.95976" lon="6.06956">
        <ele>747.20001220703</ele>
        <time>2011-10-09T07:05:24.000Z</time>
      </trkpt>
      <trkpt lat="45.95965" lon="6.06936">
        <ele>747.40002441406</ele>
        <time>2011-10-09T07:05:31.000Z</time>
      </trkpt>
      <trkpt lat="45.95959" lon="6.06918">
        <ele>747.79998779297</ele>
        <time>2011-10-09T07:05:37.000Z</time>
      </trkpt>
      <trkpt lat="45.95959" lon="6.06906">
        <ele>748</ele>
        <time>2011-10-09T07:05:43.000Z</time>
      </trkpt>
      <trkpt lat="45.9596" lon="6.06891">
        <ele>748</ele>
        <time>2011-10-09T07:05:48.000Z</time>
      </trkpt>
      <trkpt lat="45.9596" lon="6.06888">
        <ele>748</ele>
        <time>2011-10-09T07:05:49.000Z</time>
      </trkpt>
      <trkpt lat="45.95957" lon="6.06877">
        <ele>747.79998779297</ele>
        <time>2011-10-09T07:05:55.000Z</time>
      </trkpt>
      <trkpt lat="45.95958" lon="6.0687">
        <ele>747.79998779297</ele>
        <time>2011-10-09T07:05:58.000Z</time>
      </trkpt>
      <trkpt lat="45.95959" lon="6.06863">
        <ele>748</ele>
        <time>2011-10-09T07:06:01.000Z</time>
      </trkpt>
      <trkpt lat="45.95959" lon="6.06854">
        <ele>748</ele>
        <time>2011-10-09T07:06:05.000Z</time>
      </trkpt>
      <trkpt lat="45.95958" lon="6.06851">
        <ele>747.79998779297</ele>
        <time>2011-10-09T07:06:06.000Z</time>
      </trkpt>
      <trkpt lat="45.95952" lon="6.06841">
        <ele>747.79998779297</ele>
        <time>2011-10-09T07:06:10.000Z</time>
      </trkpt>
      <trkpt lat="45.95947" lon="6.0683">
        <ele>747.59997558594</ele>
        <time>2011-10-09T07:06:14.000Z</time>
      </trkpt>
      <trkpt lat="45.95942" lon="6.06825">
        <ele>747.59997558594</ele>
        <time>2011-10-09T07:06:17.000Z</time>
      </trkpt>
      <trkpt lat="45.95942" lon="6.06824">
        <ele>747.59997558594</ele>
        <time>2011-10-09T07:06:18.000Z</time>
      </trkpt>
      <trkpt lat="45.95941" lon="6.06822">
        <ele>747.59997558594</ele>
        <time>2011-10-09T07:06:19.000Z</time>
      </trkpt>
      <trkpt lat="45.95937" lon="6.06807">
        <ele>747.59997558594</ele>
        <time>2011-10-09T07:06:26.000Z</time>
      </trkpt>
      <trkpt lat="45.95932" lon="6.06796">
        <ele>747.59997558594</ele>
        <time>2011-10-09T07:06:32.000Z</time>
      </trkpt>
      <trkpt lat="45.95931" lon="6.06794">
        <ele>747.59997558594</ele>
        <time>2011-10-09T07:06:33.000Z</time>
      </trkpt>
      <trkpt lat="45.9593" lon="6.06787">
        <ele>747.59997558594</ele>
        <time>2011-10-09T07:06:37.000Z</time>
      </trkpt>
      <trkpt lat="45.95929" lon="6.06785">
        <ele>747.59997558594</ele>
        <time>2011-10-09T07:06:38.000Z</time>
      </trkpt>
      <trkpt lat="45.95924" lon="6.06773">
        <ele>747.59997558594</ele>
        <time>2011-10-09T07:06:43.000Z</time>
      </trkpt>
      <trkpt lat="45.95918" lon="6.06764">
        <ele>747.79998779297</ele>
        <time>2011-10-09T07:06:47.000Z</time>
      </trkpt>
      <trkpt lat="45.95916" lon="6.06762">
        <ele>747.79998779297</ele>
        <time>2011-10-09T07:06:48.000Z</time>
      </trkpt>
      <trkpt lat="45.95906" lon="6.06751">
        <ele>747.40002441406</ele>
        <time>2011-10-09T07:06:54.000Z</time>
      </trkpt>
      <trkpt lat="45.95905" lon="6.06751">
        <ele>747.40002441406</ele>
        <time>2011-10-09T07:06:55.000Z</time>
      </trkpt>
      <trkpt lat="45.95898" lon="6.0675">
        <ele>747.20001220703</ele>
        <time>2011-10-09T07:06:59.000Z</time>
      </trkpt>
      <trkpt lat="45.95896" lon="6.0675">
        <ele>747.20001220703</ele>
        <time>2011-10-09T07:07:00.000Z</time>
      </trkpt>
      <trkpt lat="45.95893" lon="6.0675">
        <ele>747</ele>
        <time>2011-10-09T07:07:01.000Z</time>
      </trkpt>
      <trkpt lat="45.95883" lon="6.06754">
        <ele>746.59997558594</ele>
        <time>2011-10-09T07:07:06.000Z</time>
      </trkpt>
      <trkpt lat="45.95879" lon="6.06756">
        <ele>746.40002441406</ele>
        <time>2011-10-09T07:07:08.000Z</time>
      </trkpt>
      <trkpt lat="45.95873" lon="6.06756">
        <ele>746</ele>
        <time>2011-10-09T07:07:10.000Z</time>
      </trkpt>
      <trkpt lat="45.95866" lon="6.06758">
        <ele>745.79998779297</ele>
        <time>2011-10-09T07:07:13.000Z</time>
      </trkpt>
      <trkpt lat="45.95862" lon="6.06758">
        <ele>745.59997558594</ele>
        <time>2011-10-09T07:07:15.000Z</time>
      </trkpt>
      <trkpt lat="45.95854" lon="6.06754">
        <ele>745.40002441406</ele>
        <time>2011-10-09T07:07:19.000Z</time>
      </trkpt>
      <trkpt lat="45.9585" lon="6.06752">
        <ele>745.40002441406</ele>
        <time>2011-10-09T07:07:21.000Z</time>
      </trkpt>
      <trkpt lat="45.95845" lon="6.06746">
        <ele>745.59997558594</ele>
        <time>2011-10-09T07:07:24.000Z</time>
      </trkpt>
      <trkpt lat="45.95834" lon="6.0674">
        <ele>745.59997558594</ele>
        <time>2011-10-09T07:07:29.000Z</time>
      </trkpt>
      <trkpt lat="45.95829" lon="6.06737">
        <ele>745.20001220703</ele>
        <time>2011-10-09T07:07:32.000Z</time>
      </trkpt>
      <trkpt lat="45.95825" lon="6.06735">
        <ele>744.79998779297</ele>
        <time>2011-10-09T07:07:34.000Z</time>
      </trkpt>
      <trkpt lat="45.95821" lon="6.06735">
        <ele>744.40002441406</ele>
        <time>2011-10-09T07:07:37.000Z</time>
      </trkpt>
      <trkpt lat="45.95818" lon="6.06732">
        <ele>744.20001220703</ele>
        <time>2011-10-09T07:07:39.000Z</time>
      </trkpt>
      <trkpt lat="45.95811" lon="6.06728">
        <ele>743.79998779297</ele>
        <time>2011-10-09T07:07:44.000Z</time>
      </trkpt>
      <trkpt lat="45.95809" lon="6.06725">
        <ele>743.79998779297</ele>
        <time>2011-10-09T07:07:46.000Z</time>
      </trkpt>
      <trkpt lat="45.95804" lon="6.06718">
        <ele>743.79998779297</ele>
        <time>2011-10-09T07:07:49.000Z</time>
      </trkpt>
      <trkpt lat="45.95798" lon="6.06712">
        <ele>743.79998779297</ele>
        <time>2011-10-09T07:07:52.000Z</time>
      </trkpt>
      <trkpt lat="45.95792" lon="6.06702">
        <ele>744.40002441406</ele>
        <time>2011-10-09T07:07:56.000Z</time>
      </trkpt>
      <trkpt lat="45.95786" lon="6.06683">
        <ele>745.79998779297</ele>
        <time>2011-10-09T07:08:02.000Z</time>
      </trkpt>
      <trkpt lat="45.95787" lon="6.06673">
        <ele>747</ele>
        <time>2011-10-09T07:08:05.000Z</time>
      </trkpt>
      <trkpt lat="45.95788" lon="6.0667">
        <ele>747.40002441406</ele>
        <time>2011-10-09T07:08:06.000Z</time>
      </trkpt>
      <trkpt lat="45.95791" lon="6.0666">
        <ele>748</ele>
        <time>2011-10-09T07:08:09.000Z</time>
      </trkpt>
      <trkpt lat="45.95792" lon="6.06653">
        <ele>748</ele>
        <time>2011-10-09T07:08:11.000Z</time>
      </trkpt>
      <trkpt lat="45.95795" lon="6.06638">
        <ele>748.20001220703</ele>
        <time>2011-10-09T07:08:15.000Z</time>
      </trkpt>
      <trkpt lat="45.95795" lon="6.06619">
        <ele>748.40002441406</ele>
        <time>2011-10-09T07:08:21.000Z</time>
      </trkpt>
      <trkpt lat="45.95795" lon="6.06617">
        <ele>748.40002441406</ele>
        <time>2011-10-09T07:08:22.000Z</time>
      </trkpt>
      <trkpt lat="45.95794" lon="6.06606">
        <ele>748.40002441406</ele>
        <time>2011-10-09T07:08:26.000Z</time>
      </trkpt>
      <trkpt lat="45.95795" lon="6.06599">
        <ele>748.40002441406</ele>
        <time>2011-10-09T07:08:29.000Z</time>
      </trkpt>
      <trkpt lat="45.95795" lon="6.06595">
        <ele>748.40002441406</ele>
        <time>2011-10-09T07:08:31.000Z</time>
      </trkpt>
      <trkpt lat="45.95795" lon="6.06585">
        <ele>748.59997558594</ele>
        <time>2011-10-09T07:08:35.000Z</time>
      </trkpt>
      <trkpt lat="45.95795" lon="6.06582">
        <ele>748.59997558594</ele>
        <time>2011-10-09T07:08:36.000Z</time>
      </trkpt>
      <trkpt lat="45.95793" lon="6.06572">
        <ele>748.59997558594</ele>
        <time>2011-10-09T07:08:41.000Z</time>
      </trkpt>
      <trkpt lat="45.9579" lon="6.06557">
        <ele>748.40002441406</ele>
        <time>2011-10-09T07:08:47.000Z</time>
      </trkpt>
      <trkpt lat="45.95789" lon="6.06543">
        <ele>748.59997558594</ele>
        <time>2011-10-09T07:08:51.000Z</time>
      </trkpt>
      <trkpt lat="45.95789" lon="6.06538">
        <ele>748.59997558594</ele>
        <time>2011-10-09T07:08:53.000Z</time>
      </trkpt>
      <trkpt lat="45.95791" lon="6.06534">
        <ele>748.59997558594</ele>
        <time>2011-10-09T07:08:55.000Z</time>
      </trkpt>
      <trkpt lat="45.95798" lon="6.06527">
        <ele>749</ele>
        <time>2011-10-09T07:09:00.000Z</time>
      </trkpt>
      <trkpt lat="45.95803" lon="6.06523">
        <ele>749.20001220703</ele>
        <time>2011-10-09T07:09:04.000Z</time>
      </trkpt>
      <trkpt lat="45.95804" lon="6.06522">
        <ele>749.40002441406</ele>
        <time>2011-10-09T07:09:05.000Z</time>
      </trkpt>
      <trkpt lat="45.95814" lon="6.06514">
        <ele>749.79998779297</ele>
        <time>2011-10-09T07:09:11.000Z</time>
      </trkpt>
      <trkpt lat="45.95819" lon="6.065">
        <ele>750.20001220703</ele>
        <time>2011-10-09T07:09:17.000Z</time>
      </trkpt>
      <trkpt lat="45.95821" lon="6.06487">
        <ele>750.59997558594</ele>
        <time>2011-10-09T07:09:22.000Z</time>
      </trkpt>
      <trkpt lat="45.95821" lon="6.0647">
        <ele>751.20001220703</ele>
        <time>2011-10-09T07:09:29.000Z</time>
      </trkpt>
      <trkpt lat="45.95821" lon="6.06461">
        <ele>751.40002441406</ele>
        <time>2011-10-09T07:09:33.000Z</time>
      </trkpt>
      <trkpt lat="45.95821" lon="6.06458">
        <ele>751.40002441406</ele>
        <time>2011-10-09T07:09:34.000Z</time>
      </trkpt>
      <trkpt lat="45.95818" lon="6.06444">
        <ele>751.79998779297</ele>
        <time>2011-10-09T07:09:39.000Z</time>
      </trkpt>
      <trkpt lat="45.95815" lon="6.0643">
        <ele>752</ele>
        <time>2011-10-09T07:09:43.000Z</time>
      </trkpt>
      <trkpt lat="45.95814" lon="6.06423">
        <ele>752.20001220703</ele>
        <time>2011-10-09T07:09:45.000Z</time>
      </trkpt>
      <trkpt lat="45.95813" lon="6.06422">
        <ele>752.20001220703</ele>
        <time>2011-10-09T07:09:46.000Z</time>
      </trkpt>
      <trkpt lat="45.95806" lon="6.06413">
        <ele>752.40002441406</ele>
        <time>2011-10-09T07:09:49.000Z</time>
      </trkpt>
      <trkpt lat="45.958" lon="6.06393">
        <ele>753.20001220703</ele>
        <time>2011-10-09T07:09:54.000Z</time>
      </trkpt>
      <trkpt lat="45.958" lon="6.06389">
        <ele>753.20001220703</ele>
        <time>2011-10-09T07:09:55.000Z</time>
      </trkpt>
      <trkpt lat="45.95796" lon="6.06375">
        <ele>753.79998779297</ele>
        <time>2011-10-09T07:10:00.000Z</time>
      </trkpt>
      <trkpt lat="45.95796" lon="6.06359">
        <ele>754.40002441406</ele>
        <time>2011-10-09T07:10:05.000Z</time>
      </trkpt>
      <trkpt lat="45.95794" lon="6.06353">
        <ele>754.59997558594</ele>
        <time>2011-10-09T07:10:07.000Z</time>
      </trkpt>
      <trkpt lat="45.95794" lon="6.06343">
        <ele>755</ele>
        <time>2011-10-09T07:10:10.000Z</time>
      </trkpt>
      <trkpt lat="45.95793" lon="6.06326">
        <ele>755.79998779297</ele>
        <time>2011-10-09T07:10:15.000Z</time>
      </trkpt>
      <trkpt lat="45.95785" lon="6.06313">
        <ele>756</ele>
        <time>2011-10-09T07:10:21.000Z</time>
      </trkpt>
      <trkpt lat="45.95781" lon="6.06304">
        <ele>756.40002441406</ele>
        <time>2011-10-09T07:10:27.000Z</time>
      </trkpt>
      <trkpt lat="45.95779" lon="6.06298">
        <ele>756.59997558594</ele>
        <time>2011-10-09T07:10:31.000Z</time>
      </trkpt>
      <trkpt lat="45.95777" lon="6.06298">
        <ele>756.59997558594</ele>
        <time>2011-10-09T07:10:32.000Z</time>
      </trkpt>
      <trkpt lat="45.95776" lon="6.06297">
        <ele>756.59997558594</ele>
        <time>2011-10-09T07:10:33.000Z</time>
      </trkpt>
      <trkpt lat="45.95773" lon="6.06292">
        <ele>756.79998779297</ele>
        <time>2011-10-09T07:10:38.000Z</time>
      </trkpt>
      <trkpt lat="45.95771" lon="6.0629">
        <ele>756.79998779297</ele>
        <time>2011-10-09T07:10:41.000Z</time>
      </trkpt>
      <trkpt lat="45.95766" lon="6.06287">
        <ele>757</ele>
        <time>2011-10-09T07:10:43.000Z</time>
      </trkpt>
      <trkpt lat="45.95757" lon="6.06283">
        <ele>757</ele>
        <time>2011-10-09T07:10:46.000Z</time>
      </trkpt>
      <trkpt lat="45.95748" lon="6.06278">
        <ele>757.20001220703</ele>
        <time>2011-10-09T07:10:50.000Z</time>
      </trkpt>
      <trkpt lat="45.95747" lon="6.06276">
        <ele>757.20001220703</ele>
        <time>2011-10-09T07:10:51.000Z</time>
      </trkpt>
      <trkpt lat="45.95738" lon="6.06267">
        <ele>757.40002441406</ele>
        <time>2011-10-09T07:10:56.000Z</time>
      </trkpt>
      <trkpt lat="45.95736" lon="6.06265">
        <ele>757.59997558594</ele>
        <time>2011-10-09T07:10:57.000Z</time>
      </trkpt>
      <trkpt lat="45.95728" lon="6.06255">
        <ele>757.79998779297</ele>
        <time>2011-10-09T07:11:01.000Z</time>
      </trkpt>
      <trkpt lat="45.95725" lon="6.06253">
        <ele>757.79998779297</ele>
        <time>2011-10-09T07:11:02.000Z</time>
      </trkpt>
      <trkpt lat="45.95715" lon="6.0624">
        <ele>757.40002441406</ele>
        <time>2011-10-09T07:11:07.000Z</time>
      </trkpt>
      <trkpt lat="45.95702" lon="6.06225">
        <ele>756.20001220703</ele>
        <time>2011-10-09T07:11:13.000Z</time>
      </trkpt>
      <trkpt lat="45.957" lon="6.06225">
        <ele>756.20001220703</ele>
        <time>2011-10-09T07:11:14.000Z</time>
      </trkpt>
      <trkpt lat="45.95697" lon="6.06226">
        <ele>756</ele>
        <time>2011-10-09T07:11:17.000Z</time>
      </trkpt>
      <trkpt lat="45.95684" lon="6.06222">
        <ele>755.40002441406</ele>
        <time>2011-10-09T07:11:23.000Z</time>
      </trkpt>
      <trkpt lat="45.95679" lon="6.0622">
        <ele>755</ele>
        <time>2011-10-09T07:11:25.000Z</time>
      </trkpt>
      <trkpt lat="45.95675" lon="6.06218">
        <ele>754.79998779297</ele>
        <time>2011-10-09T07:11:27.000Z</time>
      </trkpt>
      <trkpt lat="45.9567" lon="6.06216">
        <ele>754.40002441406</ele>
        <time>2011-10-09T07:11:29.000Z</time>
      </trkpt>
      <trkpt lat="45.95657" lon="6.06212">
        <ele>753.79998779297</ele>
        <time>2011-10-09T07:11:35.000Z</time>
      </trkpt>
      <trkpt lat="45.95647" lon="6.06206">
        <ele>753.40002441406</ele>
        <time>2011-10-09T07:11:40.000Z</time>
      </trkpt>
      <trkpt lat="45.95637" lon="6.06201">
        <ele>753.20001220703</ele>
        <time>2011-10-09T07:11:44.000Z</time>
      </trkpt>
      <trkpt lat="45.95633" lon="6.062">
        <ele>753.20001220703</ele>
        <time>2011-10-09T07:11:46.000Z</time>
      </trkpt>
      <trkpt lat="45.95627" lon="6.06196">
        <ele>753.20001220703</ele>
        <time>2011-10-09T07:11:50.000Z</time>
      </trkpt>
      <trkpt lat="45.95621" lon="6.06185">
        <ele>753.40002441406</ele>
        <time>2011-10-09T07:11:54.000Z</time>
      </trkpt>
      <trkpt lat="45.95622" lon="6.06179">
        <ele>753.40002441406</ele>
        <time>2011-10-09T07:11:55.000Z</time>
      </trkpt>
      <trkpt lat="45.95625" lon="6.0617">
        <ele>753.40002441406</ele>
        <time>2011-10-09T07:11:58.000Z</time>
      </trkpt>
      <trkpt lat="45.95633" lon="6.06159">
        <ele>753.20001220703</ele>
        <time>2011-10-09T07:12:01.000Z</time>
      </trkpt>
      <trkpt lat="45.95633" lon="6.06155">
        <ele>753.40002441406</ele>
        <time>2011-10-09T07:12:02.000Z</time>
      </trkpt>
      <trkpt lat="45.95636" lon="6.06139">
        <ele>753.40002441406</ele>
        <time>2011-10-09T07:12:07.000Z</time>
      </trkpt>
      <trkpt lat="45.9564" lon="6.06131">
        <ele>753.20001220703</ele>
        <time>2011-10-09T07:12:11.000Z</time>
      </trkpt>
      <trkpt lat="45.95641" lon="6.06129">
        <ele>753.20001220703</ele>
        <time>2011-10-09T07:12:12.000Z</time>
      </trkpt>
      <trkpt lat="45.95645" lon="6.06119">
        <ele>752.79998779297</ele>
        <time>2011-10-09T07:12:16.000Z</time>
      </trkpt>
      <trkpt lat="45.95646" lon="6.06117">
        <ele>752.59997558594</ele>
        <time>2011-10-09T07:12:17.000Z</time>
      </trkpt>
      <trkpt lat="45.95652" lon="6.06109">
        <ele>751.79998779297</ele>
        <time>2011-10-09T07:12:20.000Z</time>
      </trkpt>
      <trkpt lat="45.95656" lon="6.06105">
        <ele>751.20001220703</ele>
        <time>2011-10-09T07:12:22.000Z</time>
      </trkpt>
      <trkpt lat="45.95665" lon="6.06094">
        <ele>749.40002441406</ele>
        <time>2011-10-09T07:12:27.000Z</time>
      </trkpt>
      <trkpt lat="45.95676" lon="6.06079">
        <ele>749.20001220703</ele>
        <time>2011-10-09T07:12:32.000Z</time>
      </trkpt>
      <trkpt lat="45.95684" lon="6.06068">
        <ele>749.59997558594</ele>
        <time>2011-10-09T07:12:36.000Z</time>
      </trkpt>
      <trkpt lat="45.95687" lon="6.06064">
        <ele>749.79998779297</ele>
        <time>2011-10-09T07:12:37.000Z</time>
      </trkpt>
      <trkpt lat="45.95697" lon="6.06051">
        <ele>749.59997558594</ele>
        <time>2011-10-09T07:12:42.000Z</time>
      </trkpt>
      <trkpt lat="45.95701" lon="6.06035">
        <ele>749.40002441406</ele>
        <time>2011-10-09T07:12:47.000Z</time>
      </trkpt>
      <trkpt lat="45.95707" lon="6.06017">
        <ele>748.79998779297</ele>
        <time>2011-10-09T07:12:52.000Z</time>
      </trkpt>
      <trkpt lat="45.95711" lon="6.05999">
        <ele>748</ele>
        <time>2011-10-09T07:12:57.000Z</time>
      </trkpt>
      <trkpt lat="45.9572" lon="6.05978">
        <ele>747</ele>
        <time>2011-10-09T07:13:04.000Z</time>
      </trkpt>
      <trkpt lat="45.95724" lon="6.05961">
        <ele>746.59997558594</ele>
        <time>2011-10-09T07:13:09.000Z</time>
      </trkpt>
      <trkpt lat="45.95726" lon="6.05943">
        <ele>746.40002441406</ele>
        <time>2011-10-09T07:13:14.000Z</time>
      </trkpt>
      <trkpt lat="45.95738" lon="6.05932">
        <ele>744.20001220703</ele>
        <time>2011-10-09T07:13:19.000Z</time>
      </trkpt>
      <trkpt lat="45.95746" lon="6.05922">
        <ele>742.79998779297</ele>
        <time>2011-10-09T07:13:24.000Z</time>
      </trkpt>
      <trkpt lat="45.95754" lon="6.0591">
        <ele>742.79998779297</ele>
        <time>2011-10-09T07:13:29.000Z</time>
      </trkpt>
      <trkpt lat="45.95761" lon="6.059">
        <ele>743.79998779297</ele>
        <time>2011-10-09T07:13:34.000Z</time>
      </trkpt>
      <trkpt lat="45.95771" lon="6.05892">
        <ele>744.40002441406</ele>
        <time>2011-10-09T07:13:40.000Z</time>
      </trkpt>
      <trkpt lat="45.95778" lon="6.05872">
        <ele>745.59997558594</ele>
        <time>2011-10-09T07:13:46.000Z</time>
      </trkpt>
      <trkpt lat="45.95786" lon="6.05854">
        <ele>746</ele>
        <time>2011-10-09T07:13:52.000Z</time>
      </trkpt>
      <trkpt lat="45.95788" lon="6.05852">
        <ele>746</ele>
        <time>2011-10-09T07:13:53.000Z</time>
      </trkpt>
      <trkpt lat="45.95788" lon="6.0585">
        <ele>746.20001220703</ele>
        <time>2011-10-09T07:13:54.000Z</time>
      </trkpt>
      <trkpt lat="45.95789" lon="6.05848">
        <ele>746.20001220703</ele>
        <time>2011-10-09T07:13:56.000Z</time>
      </trkpt>
      <trkpt lat="45.95799" lon="6.05843">
        <ele>745.59997558594</ele>
        <time>2011-10-09T07:14:00.000Z</time>
      </trkpt>
      <trkpt lat="45.95812" lon="6.05841">
        <ele>744.79998779297</ele>
        <time>2011-10-09T07:14:05.000Z</time>
      </trkpt>
      <trkpt lat="45.95826" lon="6.05835">
        <ele>743.59997558594</ele>
        <time>2011-10-09T07:14:11.000Z</time>
      </trkpt>
      <trkpt lat="45.95838" lon="6.05827">
        <ele>743</ele>
        <time>2011-10-09T07:14:16.000Z</time>
      </trkpt>
      <trkpt lat="45.9585" lon="6.05819">
        <ele>742.79998779297</ele>
        <time>2011-10-09T07:14:22.000Z</time>
      </trkpt>
      <trkpt lat="45.95861" lon="6.05818">
        <ele>742.59997558594</ele>
        <time>2011-10-09T07:14:27.000Z</time>
      </trkpt>
      <trkpt lat="45.95863" lon="6.05816">
        <ele>742.59997558594</ele>
        <time>2011-10-09T07:14:29.000Z</time>
      </trkpt>
      <trkpt lat="45.9587" lon="6.05814">
        <ele>742.40002441406</ele>
        <time>2011-10-09T07:14:32.000Z</time>
      </trkpt>
      <trkpt lat="45.95871" lon="6.05812">
        <ele>742.20001220703</ele>
        <time>2011-10-09T07:14:33.000Z</time>
      </trkpt>
      <trkpt lat="45.95878" lon="6.05805">
        <ele>741.59997558594</ele>
        <time>2011-10-09T07:14:36.000Z</time>
      </trkpt>
      <trkpt lat="45.95878" lon="6.05788">
        <ele>740.59997558594</ele>
        <time>2011-10-09T07:14:41.000Z</time>
      </trkpt>
      <trkpt lat="45.9588" lon="6.0577">
        <ele>739.20001220703</ele>
        <time>2011-10-09T07:14:47.000Z</time>
      </trkpt>
      <trkpt lat="45.95886" lon="6.0576">
        <ele>738</ele>
        <time>2011-10-09T07:14:53.000Z</time>
      </trkpt>
      <trkpt lat="45.95891" lon="6.05752">
        <ele>736.79998779297</ele>
        <time>2011-10-09T07:14:58.000Z</time>
      </trkpt>
      <trkpt lat="45.95894" lon="6.05748">
        <ele>736.40002441406</ele>
        <time>2011-10-09T07:15:02.000Z</time>
      </trkpt>
      <trkpt lat="45.95903" lon="6.05746">
        <ele>735.40002441406</ele>
        <time>2011-10-09T07:15:08.000Z</time>
      </trkpt>
      <trkpt lat="45.9591" lon="6.05736">
        <ele>734.40002441406</ele>
        <time>2011-10-09T07:15:13.000Z</time>
      </trkpt>
      <trkpt lat="45.95919" lon="6.05732">
        <ele>733.20001220703</ele>
        <time>2011-10-09T07:15:18.000Z</time>
      </trkpt>
      <trkpt lat="45.95936" lon="6.05726">
        <ele>731</ele>
        <time>2011-10-09T07:15:25.000Z</time>
      </trkpt>
      <trkpt lat="45.95947" lon="6.05726">
        <ele>729.59997558594</ele>
        <time>2011-10-09T07:15:30.000Z</time>
      </trkpt>
      <trkpt lat="45.95958" lon="6.05727">
        <ele>728.40002441406</ele>
        <time>2011-10-09T07:15:35.000Z</time>
      </trkpt>
      <trkpt lat="45.95963" lon="6.05726">
        <ele>727.79998779297</ele>
        <time>2011-10-09T07:15:39.000Z</time>
      </trkpt>
      <trkpt lat="45.95968" lon="6.05727">
        <ele>727.20001220703</ele>
        <time>2011-10-09T07:15:41.000Z</time>
      </trkpt>
      <trkpt lat="45.95973" lon="6.05728">
        <ele>726.79998779297</ele>
        <time>2011-10-09T07:15:44.000Z</time>
      </trkpt>
      <trkpt lat="45.95984" lon="6.05727">
        <ele>725.20001220703</ele>
        <time>2011-10-09T07:15:48.000Z</time>
      </trkpt>
      <trkpt lat="45.95987" lon="6.05725">
        <ele>724.79998779297</ele>
        <time>2011-10-09T07:15:49.000Z</time>
      </trkpt>
      <trkpt lat="45.96" lon="6.05717">
        <ele>722.40002441406</ele>
        <time>2011-10-09T07:15:54.000Z</time>
      </trkpt>
      <trkpt lat="45.9601" lon="6.05713">
        <ele>722.40002441406</ele>
        <time>2011-10-09T07:15:58.000Z</time>
      </trkpt>
      <trkpt lat="45.96021" lon="6.05703">
        <ele>722</ele>
        <time>2011-10-09T07:16:02.000Z</time>
      </trkpt>
      <trkpt lat="45.96029" lon="6.05693">
        <ele>721.59997558594</ele>
        <time>2011-10-09T07:16:07.000Z</time>
      </trkpt>
      <trkpt lat="45.96031" lon="6.05691">
        <ele>721.59997558594</ele>
        <time>2011-10-09T07:16:08.000Z</time>
      </trkpt>
      <trkpt lat="45.96032" lon="6.05688">
        <ele>721.40002441406</ele>
        <time>2011-10-09T07:16:09.000Z</time>
      </trkpt>
      <trkpt lat="45.96041" lon="6.05679">
        <ele>721</ele>
        <time>2011-10-09T07:16:13.000Z</time>
      </trkpt>
      <trkpt lat="45.96048" lon="6.05679">
        <ele>721.40002441406</ele>
        <time>2011-10-09T07:16:15.000Z</time>
      </trkpt>
      <trkpt lat="45.96047" lon="6.05671">
        <ele>720.59997558594</ele>
        <time>2011-10-09T07:16:18.000Z</time>
      </trkpt>
      <trkpt lat="45.96051" lon="6.05654">
        <ele>719.79998779297</ele>
        <time>2011-10-09T07:16:24.000Z</time>
      </trkpt>
      <trkpt lat="45.96061" lon="6.05636">
        <ele>719</ele>
        <time>2011-10-09T07:16:31.000Z</time>
      </trkpt>
      <trkpt lat="45.96063" lon="6.05634">
        <ele>719</ele>
        <time>2011-10-09T07:16:32.000Z</time>
      </trkpt>
      <trkpt lat="45.96068" lon="6.05628">
        <ele>718.59997558594</ele>
        <time>2011-10-09T07:16:35.000Z</time>
      </trkpt>
      <trkpt lat="45.96075" lon="6.05619">
        <ele>718</ele>
        <time>2011-10-09T07:16:40.000Z</time>
      </trkpt>
      <trkpt lat="45.96078" lon="6.05616">
        <ele>718</ele>
        <time>2011-10-09T07:16:42.000Z</time>
      </trkpt>
      <trkpt lat="45.9608" lon="6.05615">
        <ele>718</ele>
        <time>2011-10-09T07:16:43.000Z</time>
      </trkpt>
      <trkpt lat="45.96083" lon="6.05615">
        <ele>718</ele>
        <time>2011-10-09T07:16:44.000Z</time>
      </trkpt>
      <trkpt lat="45.96089" lon="6.05612">
        <ele>718</ele>
        <time>2011-10-09T07:16:47.000Z</time>
      </trkpt>
      <trkpt lat="45.96091" lon="6.05606">
        <ele>717.59997558594</ele>
        <time>2011-10-09T07:16:49.000Z</time>
      </trkpt>
      <trkpt lat="45.96098" lon="6.05595">
        <ele>717</ele>
        <time>2011-10-09T07:16:54.000Z</time>
      </trkpt>
      <trkpt lat="45.961" lon="6.05593">
        <ele>717</ele>
        <time>2011-10-09T07:16:55.000Z</time>
      </trkpt>
      <trkpt lat="45.96106" lon="6.05582">
        <ele>716.40002441406</ele>
        <time>2011-10-09T07:16:59.000Z</time>
      </trkpt>
      <trkpt lat="45.96115" lon="6.05568">
        <ele>715.20001220703</ele>
        <time>2011-10-09T07:17:05.000Z</time>
      </trkpt>
      <trkpt lat="45.96127" lon="6.05557">
        <ele>714.20001220703</ele>
        <time>2011-10-09T07:17:11.000Z</time>
      </trkpt>
      <trkpt lat="45.96139" lon="6.05546">
        <ele>713.20001220703</ele>
        <time>2011-10-09T07:17:16.000Z</time>
      </trkpt>
      <trkpt lat="45.96153" lon="6.05541">
        <ele>712.59997558594</ele>
        <time>2011-10-09T07:17:22.000Z</time>
      </trkpt>
      <trkpt lat="45.96167" lon="6.05545">
        <ele>713.40002441406</ele>
        <time>2011-10-09T07:17:28.000Z</time>
      </trkpt>
      <trkpt lat="45.96178" lon="6.05543">
        <ele>711</ele>
        <time>2011-10-09T07:17:34.000Z</time>
      </trkpt>
      <trkpt lat="45.96192" lon="6.0554">
        <ele>708.40002441406</ele>
        <time>2011-10-09T07:17:39.000Z</time>
      </trkpt>
      <trkpt lat="45.96205" lon="6.05549">
        <ele>707.40002441406</ele>
        <time>2011-10-09T07:17:45.000Z</time>
      </trkpt>
      <trkpt lat="45.96212" lon="6.05557">
        <ele>707.40002441406</ele>
        <time>2011-10-09T07:17:49.000Z</time>
      </trkpt>
      <trkpt lat="45.96213" lon="6.0556">
        <ele>707.59997558594</ele>
        <time>2011-10-09T07:17:50.000Z</time>
      </trkpt>
      <trkpt lat="45.96221" lon="6.05571">
        <ele>708</ele>
        <time>2011-10-09T07:17:55.000Z</time>
      </trkpt>
      <trkpt lat="45.9623" lon="6.05582">
        <ele>707.79998779297</ele>
        <time>2011-10-09T07:18:01.000Z</time>
      </trkpt>
      <trkpt lat="45.96239" lon="6.05598">
        <ele>707.40002441406</ele>
        <time>2011-10-09T07:18:07.000Z</time>
      </trkpt>
      <trkpt lat="45.96241" lon="6.05603">
        <ele>707.40002441406</ele>
        <time>2011-10-09T07:18:09.000Z</time>
      </trkpt>
      <trkpt lat="45.96246" lon="6.05607">
        <ele>706.79998779297</ele>
        <time>2011-10-09T07:18:11.000Z</time>
      </trkpt>
      <trkpt lat="45.96248" lon="6.05613">
        <ele>706.79998779297</ele>
        <time>2011-10-09T07:18:13.000Z</time>
      </trkpt>
      <trkpt lat="45.96248" lon="6.05618">
        <ele>707.20001220703</ele>
        <time>2011-10-09T07:18:15.000Z</time>
      </trkpt>
      <trkpt lat="45.96248" lon="6.05622">
        <ele>707.40002441406</ele>
        <time>2011-10-09T07:18:16.000Z</time>
      </trkpt>
      <trkpt lat="45.96252" lon="6.0564">
        <ele>708.20001220703</ele>
        <time>2011-10-09T07:18:22.000Z</time>
      </trkpt>
      <trkpt lat="45.96254" lon="6.05646">
        <ele>708.20001220703</ele>
        <time>2011-10-09T07:18:24.000Z</time>
      </trkpt>
      <trkpt lat="45.96257" lon="6.05649">
        <ele>708</ele>
        <time>2011-10-09T07:18:26.000Z</time>
      </trkpt>
      <trkpt lat="45.9626" lon="6.05654">
        <ele>707.59997558594</ele>
        <time>2011-10-09T07:18:28.000Z</time>
      </trkpt>
      <trkpt lat="45.96266" lon="6.05662">
        <ele>707</ele>
        <time>2011-10-09T07:18:32.000Z</time>
      </trkpt>
      <trkpt lat="45.96274" lon="6.05674">
        <ele>706.20001220703</ele>
        <time>2011-10-09T07:18:37.000Z</time>
      </trkpt>
      <trkpt lat="45.96282" lon="6.05685">
        <ele>705.59997558594</ele>
        <time>2011-10-09T07:18:42.000Z</time>
      </trkpt>
      <trkpt lat="45.96289" lon="6.05696">
        <ele>705.20001220703</ele>
        <time>2011-10-09T07:18:47.000Z</time>
      </trkpt>
      <trkpt lat="45.9629" lon="6.05698">
        <ele>705.20001220703</ele>
        <time>2011-10-09T07:18:48.000Z</time>
      </trkpt>
      <trkpt lat="45.96296" lon="6.0571">
        <ele>704.79998779297</ele>
        <time>2011-10-09T07:18:53.000Z</time>
      </trkpt>
      <trkpt lat="45.96299" lon="6.05715">
        <ele>704.79998779297</ele>
        <time>2011-10-09T07:18:55.000Z</time>
      </trkpt>
      <trkpt lat="45.96302" lon="6.05725">
        <ele>705</ele>
        <time>2011-10-09T07:18:58.000Z</time>
      </trkpt>
      <trkpt lat="45.96305" lon="6.05731">
        <ele>704.79998779297</ele>
        <time>2011-10-09T07:19:00.000Z</time>
      </trkpt>
      <trkpt lat="45.96309" lon="6.05738">
        <ele>704.59997558594</ele>
        <time>2011-10-09T07:19:03.000Z</time>
      </trkpt>
      <trkpt lat="45.9631" lon="6.05738">
        <ele>704.59997558594</ele>
        <time>2011-10-09T07:19:04.000Z</time>
      </trkpt>
      <trkpt lat="45.96314" lon="6.05745">
        <ele>704.40002441406</ele>
        <time>2011-10-09T07:19:07.000Z</time>
      </trkpt>
      <trkpt lat="45.96315" lon="6.05757">
        <ele>705</ele>
        <time>2011-10-09T07:19:11.000Z</time>
      </trkpt>
      <trkpt lat="45.96316" lon="6.0576">
        <ele>705.20001220703</ele>
        <time>2011-10-09T07:19:12.000Z</time>
      </trkpt>
      <trkpt lat="45.96324" lon="6.05777">
        <ele>704.59997558594</ele>
        <time>2011-10-09T07:19:18.000Z</time>
      </trkpt>
      <trkpt lat="45.96327" lon="6.05782">
        <ele>704.40002441406</ele>
        <time>2011-10-09T07:19:21.000Z</time>
      </trkpt>
      <trkpt lat="45.96328" lon="6.05785">
        <ele>704.40002441406</ele>
        <time>2011-10-09T07:19:22.000Z</time>
      </trkpt>
      <trkpt lat="45.9633" lon="6.05802">
        <ele>705.20001220703</ele>
        <time>2011-10-09T07:19:27.000Z</time>
      </trkpt>
      <trkpt lat="45.96332" lon="6.05818">
        <ele>706</ele>
        <time>2011-10-09T07:19:32.000Z</time>
      </trkpt>
      <trkpt lat="45.96333" lon="6.05832">
        <ele>706.79998779297</ele>
        <time>2011-10-09T07:19:36.000Z</time>
      </trkpt>
      <trkpt lat="45.96333" lon="6.05836">
        <ele>707</ele>
        <time>2011-10-09T07:19:38.000Z</time>
      </trkpt>
      <trkpt lat="45.96338" lon="6.05845">
        <ele>706.79998779297</ele>
        <time>2011-10-09T07:19:41.000Z</time>
      </trkpt>
      <trkpt lat="45.96342" lon="6.05854">
        <ele>706.79998779297</ele>
        <time>2011-10-09T07:19:45.000Z</time>
      </trkpt>
      <trkpt lat="45.96343" lon="6.05857">
        <ele>706.79998779297</ele>
        <time>2011-10-09T07:19:46.000Z</time>
      </trkpt>
      <trkpt lat="45.96346" lon="6.05869">
        <ele>707</ele>
        <time>2011-10-09T07:19:50.000Z</time>
      </trkpt>
      <trkpt lat="45.96352" lon="6.05883">
        <ele>707</ele>
        <time>2011-10-09T07:19:55.000Z</time>
      </trkpt>
      <trkpt lat="45.96356" lon="6.05897">
        <ele>707.40002441406</ele>
        <time>2011-10-09T07:20:00.000Z</time>
      </trkpt>
      <trkpt lat="45.96358" lon="6.059">
        <ele>707.20001220703</ele>
        <time>2011-10-09T07:20:01.000Z</time>
      </trkpt>
      <trkpt lat="45.96363" lon="6.05911">
        <ele>707.40002441406</ele>
        <time>2011-10-09T07:20:05.000Z</time>
      </trkpt>
      <trkpt lat="45.96364" lon="6.05917">
        <ele>707.59997558594</ele>
        <time>2011-10-09T07:20:07.000Z</time>
      </trkpt>
      <trkpt lat="45.96368" lon="6.05923">
        <ele>707.59997558594</ele>
        <time>2011-10-09T07:20:10.000Z</time>
      </trkpt>
      <trkpt lat="45.96377" lon="6.0593">
        <ele>707.40002441406</ele>
        <time>2011-10-09T07:20:13.000Z</time>
      </trkpt>
      <trkpt lat="45.9638" lon="6.05932">
        <ele>707.20001220703</ele>
        <time>2011-10-09T07:20:15.000Z</time>
      </trkpt>
      <trkpt lat="45.96389" lon="6.05935">
        <ele>706.40002441406</ele>
        <time>2011-10-09T07:20:19.000Z</time>
      </trkpt>
      <trkpt lat="45.96392" lon="6.05935">
        <ele>706.20001220703</ele>
        <time>2011-10-09T07:20:20.000Z</time>
      </trkpt>
      <trkpt lat="45.96397" lon="6.05933">
        <ele>705.40002441406</ele>
        <time>2011-10-09T07:20:25.000Z</time>
      </trkpt>
      <trkpt lat="45.96398" lon="6.05931">
        <ele>705.20001220703</ele>
        <time>2011-10-09T07:20:26.000Z</time>
      </trkpt>
      <trkpt lat="45.96404" lon="6.05929">
        <ele>704.40002441406</ele>
        <time>2011-10-09T07:20:29.000Z</time>
      </trkpt>
      <trkpt lat="45.9641" lon="6.05926">
        <ele>703.59997558594</ele>
        <time>2011-10-09T07:20:33.000Z</time>
      </trkpt>
      <trkpt lat="45.96418" lon="6.05936">
        <ele>703.59997558594</ele>
        <time>2011-10-09T07:20:38.000Z</time>
      </trkpt>
      <trkpt lat="45.96416" lon="6.05948">
        <ele>705</ele>
        <time>2011-10-09T07:20:42.000Z</time>
      </trkpt>
      <trkpt lat="45.96411" lon="6.05957">
        <ele>706.40002441406</ele>
        <time>2011-10-09T07:20:46.000Z</time>
      </trkpt>
      <trkpt lat="45.96403" lon="6.05961">
        <ele>707.40002441406</ele>
        <time>2011-10-09T07:20:51.000Z</time>
      </trkpt>
      <trkpt lat="45.96396" lon="6.0597">
        <ele>709</ele>
        <time>2011-10-09T07:20:55.000Z</time>
      </trkpt>
      <trkpt lat="45.96386" lon="6.05978">
        <ele>710.59997558594</ele>
        <time>2011-10-09T07:21:01.000Z</time>
      </trkpt>
      <trkpt lat="45.96384" lon="6.05977">
        <ele>710.59997558594</ele>
        <time>2011-10-09T07:21:02.000Z</time>
      </trkpt>
      <trkpt lat="45.96377" lon="6.05978">
        <ele>711.40002441406</ele>
        <time>2011-10-09T07:21:07.000Z</time>
      </trkpt>
      <trkpt lat="45.96373" lon="6.05978">
        <ele>711.79998779297</ele>
        <time>2011-10-09T07:21:13.000Z</time>
      </trkpt>
      <trkpt lat="45.96369" lon="6.05979">
        <ele>712.20001220703</ele>
        <time>2011-10-09T07:21:15.000Z</time>
      </trkpt>
      <trkpt lat="45.96361" lon="6.0598">
        <ele>713</ele>
        <time>2011-10-09T07:21:19.000Z</time>
      </trkpt>
      <trkpt lat="45.96356" lon="6.05988">
        <ele>714</ele>
        <time>2011-10-09T07:21:23.000Z</time>
      </trkpt>
      <trkpt lat="45.96355" lon="6.05989">
        <ele>714.20001220703</ele>
        <time>2011-10-09T07:21:24.000Z</time>
      </trkpt>
      <trkpt lat="45.96348" lon="6.05997">
        <ele>715.40002441406</ele>
        <time>2011-10-09T07:21:29.000Z</time>
      </trkpt>
      <trkpt lat="45.96341" lon="6.06004">
        <ele>716.59997558594</ele>
        <time>2011-10-09T07:21:35.000Z</time>
      </trkpt>
      <trkpt lat="45.9633" lon="6.06011">
        <ele>718</ele>
        <time>2011-10-09T07:21:39.000Z</time>
      </trkpt>
      <trkpt lat="45.96321" lon="6.06018">
        <ele>719.40002441406</ele>
        <time>2011-10-09T07:21:45.000Z</time>
      </trkpt>
      <trkpt lat="45.96314" lon="6.06032">
        <ele>721.20001220703</ele>
        <time>2011-10-09T07:21:51.000Z</time>
      </trkpt>
      <trkpt lat="45.96311" lon="6.06041">
        <ele>722</ele>
        <time>2011-10-09T07:21:55.000Z</time>
      </trkpt>
      <trkpt lat="45.96308" lon="6.06047">
        <ele>722.59997558594</ele>
        <time>2011-10-09T07:21:58.000Z</time>
      </trkpt>
      <trkpt lat="45.96299" lon="6.06058">
        <ele>724.20001220703</ele>
        <time>2011-10-09T07:22:04.000Z</time>
      </trkpt>
      <trkpt lat="45.96299" lon="6.06061">
        <ele>724.40002441406</ele>
        <time>2011-10-09T07:22:05.000Z</time>
      </trkpt>
      <trkpt lat="45.96296" lon="6.06063">
        <ele>724.79998779297</ele>
        <time>2011-10-09T07:22:08.000Z</time>
      </trkpt>
      <trkpt lat="45.96294" lon="6.06059">
        <ele>724.79998779297</ele>
        <time>2011-10-09T07:22:10.000Z</time>
      </trkpt>
      <trkpt lat="45.96295" lon="6.06054">
        <ele>724.40002441406</ele>
        <time>2011-10-09T07:22:12.000Z</time>
      </trkpt>
      <trkpt lat="45.96296" lon="6.06051">
        <ele>724.20001220703</ele>
        <time>2011-10-09T07:22:13.000Z</time>
      </trkpt>
      <trkpt lat="45.96296" lon="6.0604">
        <ele>723.40002441406</ele>
        <time>2011-10-09T07:22:17.000Z</time>
      </trkpt>
      <trkpt lat="45.96293" lon="6.06027">
        <ele>723</ele>
        <time>2011-10-09T07:22:20.000Z</time>
      </trkpt>
      <trkpt lat="45.96292" lon="6.06019">
        <ele>722.40002441406</ele>
        <time>2011-10-09T07:22:22.000Z</time>
      </trkpt>
      <trkpt lat="45.96287" lon="6.06007">
        <ele>722.20001220703</ele>
        <time>2011-10-09T07:22:26.000Z</time>
      </trkpt>
      <trkpt lat="45.96287" lon="6.06006">
        <ele>722.20001220703</ele>
        <time>2011-10-09T07:22:27.000Z</time>
      </trkpt>
      <trkpt lat="45.96283" lon="6.06006">
        <ele>722.59997558594</ele>
        <time>2011-10-09T07:22:30.000Z</time>
      </trkpt>
      <trkpt lat="45.96278" lon="6.06005">
        <ele>723.20001220703</ele>
        <time>2011-10-09T07:22:33.000Z</time>
      </trkpt>
      <trkpt lat="45.96272" lon="6.06003">
        <ele>723.79998779297</ele>
        <time>2011-10-09T07:22:40.000Z</time>
      </trkpt>
      <trkpt lat="45.96271" lon="6.06004">
        <ele>723.79998779297</ele>
        <time>2011-10-09T07:22:41.000Z</time>
      </trkpt>
      <trkpt lat="45.96267" lon="6.06008">
        <ele>724.59997558594</ele>
        <time>2011-10-09T07:22:44.000Z</time>
      </trkpt>
      <trkpt lat="45.9626" lon="6.06015">
        <ele>725.59997558594</ele>
        <time>2011-10-09T07:22:49.000Z</time>
      </trkpt>
      <trkpt lat="45.96258" lon="6.06017">
        <ele>725.79998779297</ele>
        <time>2011-10-09T07:22:50.000Z</time>
      </trkpt>
      <trkpt lat="45.96253" lon="6.06027">
        <ele>726.79998779297</ele>
        <time>2011-10-09T07:22:56.000Z</time>
      </trkpt>
      <trkpt lat="45.96253" lon="6.06029">
        <ele>727</ele>
        <time>2011-10-09T07:22:57.000Z</time>
      </trkpt>
      <trkpt lat="45.96245" lon="6.06034">
        <ele>728</ele>
        <time>2011-10-09T07:23:01.000Z</time>
      </trkpt>
      <trkpt lat="45.9624" lon="6.06043">
        <ele>729</ele>
        <time>2011-10-09T07:23:07.000Z</time>
      </trkpt>
      <trkpt lat="45.96238" lon="6.06044">
        <ele>729</ele>
        <time>2011-10-09T07:23:08.000Z</time>
      </trkpt>
      <trkpt lat="45.96232" lon="6.06053">
        <ele>730.20001220703</ele>
        <time>2011-10-09T07:23:14.000Z</time>
      </trkpt>
      <trkpt lat="45.96226" lon="6.06068">
        <ele>731.40002441406</ele>
        <time>2011-10-09T07:23:20.000Z</time>
      </trkpt>
      <trkpt lat="45.9622" lon="6.06075">
        <ele>732.40002441406</ele>
        <time>2011-10-09T07:23:24.000Z</time>
      </trkpt>
      <trkpt lat="45.96217" lon="6.06077">
        <ele>732.79998779297</ele>
        <time>2011-10-09T07:23:26.000Z</time>
      </trkpt>
      <trkpt lat="45.96212" lon="6.06085">
        <ele>733.59997558594</ele>
        <time>2011-10-09T07:23:29.000Z</time>
      </trkpt>
      <trkpt lat="45.9621" lon="6.06087">
        <ele>734</ele>
        <time>2011-10-09T07:23:31.000Z</time>
      </trkpt>
      <trkpt lat="45.96202" lon="6.06092">
        <ele>735.40002441406</ele>
        <time>2011-10-09T07:23:36.000Z</time>
      </trkpt>
      <trkpt lat="45.96191" lon="6.06102">
        <ele>737.20001220703</ele>
        <time>2011-10-09T07:23:42.000Z</time>
      </trkpt>
      <trkpt lat="45.96183" lon="6.06116">
        <ele>739</ele>
        <time>2011-10-09T07:23:47.000Z</time>
      </trkpt>
      <trkpt lat="45.9618" lon="6.06133">
        <ele>740.40002441406</ele>
        <time>2011-10-09T07:23:53.000Z</time>
      </trkpt>
      <trkpt lat="45.96172" lon="6.06152">
        <ele>742.59997558594</ele>
        <time>2011-10-09T07:23:59.000Z</time>
      </trkpt>
      <trkpt lat="45.96165" lon="6.06165">
        <ele>744</ele>
        <time>2011-10-09T07:24:04.000Z</time>
      </trkpt>
      <trkpt lat="45.96162" lon="6.0617">
        <ele>744.40002441406</ele>
        <time>2011-10-09T07:24:06.000Z</time>
      </trkpt>
      <trkpt lat="45.96159" lon="6.06173">
        <ele>744.79998779297</ele>
        <time>2011-10-09T07:26:14.000Z</time>
      </trkpt>
      <trkpt lat="45.96162" lon="6.06174">
        <ele>744.59997558594</ele>
        <time>2011-10-09T07:26:15.000Z</time>
      </trkpt>
      <trkpt lat="45.9616" lon="6.06177">
        <ele>744.79998779297</ele>
        <time>2011-10-09T07:26:17.000Z</time>
      </trkpt>
      <trkpt lat="45.9616" lon="6.06182">
        <ele>745</ele>
        <time>2011-10-09T07:26:19.000Z</time>
      </trkpt>
      <trkpt lat="45.96155" lon="6.06185">
        <ele>745.40002441406</ele>
        <time>2011-10-09T07:26:21.000Z</time>
      </trkpt>
      <trkpt lat="45.96149" lon="6.0619">
        <ele>746.20001220703</ele>
        <time>2011-10-09T07:26:23.000Z</time>
      </trkpt>
      <trkpt lat="45.96141" lon="6.06201">
        <ele>747.20001220703</ele>
        <time>2011-10-09T07:26:28.000Z</time>
      </trkpt>
      <trkpt lat="45.96132" lon="6.06208">
        <ele>748</ele>
        <time>2011-10-09T07:26:32.000Z</time>
      </trkpt>
      <trkpt lat="45.96123" lon="6.06221">
        <ele>749.20001220703</ele>
        <time>2011-10-09T07:26:37.000Z</time>
      </trkpt>
      <trkpt lat="45.96115" lon="6.06237">
        <ele>750.20001220703</ele>
        <time>2011-10-09T07:26:43.000Z</time>
      </trkpt>
      <trkpt lat="45.96102" lon="6.06249">
        <ele>751.59997558594</ele>
        <time>2011-10-09T07:26:49.000Z</time>
      </trkpt>
      <trkpt lat="45.96093" lon="6.06266">
        <ele>753</ele>
        <time>2011-10-09T07:26:56.000Z</time>
      </trkpt>
      <trkpt lat="45.96087" lon="6.0628">
        <ele>754.20001220703</ele>
        <time>2011-10-09T07:27:02.000Z</time>
      </trkpt>
      <trkpt lat="45.96086" lon="6.06286">
        <ele>754.40002441406</ele>
        <time>2011-10-09T07:27:04.000Z</time>
      </trkpt>
      <trkpt lat="45.96084" lon="6.06293">
        <ele>755</ele>
        <time>2011-10-09T07:27:06.000Z</time>
      </trkpt>
      <trkpt lat="45.96083" lon="6.06315">
        <ele>756</ele>
        <time>2011-10-09T07:27:13.000Z</time>
      </trkpt>
      <trkpt lat="45.96078" lon="6.06323">
        <ele>756.40002441406</ele>
        <time>2011-10-09T07:27:18.000Z</time>
      </trkpt>
      <trkpt lat="45.96075" lon="6.06325">
        <ele>756.59997558594</ele>
        <time>2011-10-09T07:27:19.000Z</time>
      </trkpt>
      <trkpt lat="45.96069" lon="6.06336">
        <ele>757</ele>
        <time>2011-10-09T07:27:23.000Z</time>
      </trkpt>
      <trkpt lat="45.96067" lon="6.06339">
        <ele>757</ele>
        <time>2011-10-09T07:27:24.000Z</time>
      </trkpt>
      <trkpt lat="45.96062" lon="6.06346">
        <ele>757</ele>
        <time>2011-10-09T07:27:28.000Z</time>
      </trkpt>
      <trkpt lat="45.96057" lon="6.06352">
        <ele>757.20001220703</ele>
        <time>2011-10-09T07:27:32.000Z</time>
      </trkpt>
      <trkpt lat="45.96057" lon="6.06353">
        <ele>757.20001220703</ele>
        <time>2011-10-09T07:27:33.000Z</time>
      </trkpt>
      <trkpt lat="45.96056" lon="6.06359">
        <ele>757.20001220703</ele>
        <time>2011-10-09T07:27:36.000Z</time>
      </trkpt>
      <trkpt lat="45.96056" lon="6.06363">
        <ele>757.20001220703</ele>
        <time>2011-10-09T07:27:38.000Z</time>
      </trkpt>
      <trkpt lat="45.96058" lon="6.06377">
        <ele>757.40002441406</ele>
        <time>2011-10-09T07:27:44.000Z</time>
      </trkpt>
      <trkpt lat="45.9606" lon="6.06386">
        <ele>757.59997558594</ele>
        <time>2011-10-09T07:27:47.000Z</time>
      </trkpt>
      <trkpt lat="45.9606" lon="6.06393">
        <ele>757.79998779297</ele>
        <time>2011-10-09T07:27:49.000Z</time>
      </trkpt>
      <trkpt lat="45.96058" lon="6.06409">
        <ele>757.79998779297</ele>
        <time>2011-10-09T07:27:54.000Z</time>
      </trkpt>
      <trkpt lat="45.96053" lon="6.06426">
        <ele>757.59997558594</ele>
        <time>2011-10-09T07:28:00.000Z</time>
      </trkpt>
      <trkpt lat="45.96051" lon="6.06431">
        <ele>757.40002441406</ele>
        <time>2011-10-09T07:28:02.000Z</time>
      </trkpt>
      <trkpt lat="45.96046" lon="6.06442">
        <ele>757</ele>
        <time>2011-10-09T07:28:06.000Z</time>
      </trkpt>
      <trkpt lat="45.96047" lon="6.06463">
        <ele>756.59997558594</ele>
        <time>2011-10-09T07:28:11.000Z</time>
      </trkpt>
      <trkpt lat="45.96047" lon="6.0647">
        <ele>756.40002441406</ele>
        <time>2011-10-09T07:28:13.000Z</time>
      </trkpt>
      <trkpt lat="45.96048" lon="6.06487">
        <ele>756.20001220703</ele>
        <time>2011-10-09T07:28:17.000Z</time>
      </trkpt>
      <trkpt lat="45.96046" lon="6.06493">
        <ele>756</ele>
        <time>2011-10-09T07:28:19.000Z</time>
      </trkpt>
      <trkpt lat="45.96044" lon="6.06497">
        <ele>756</ele>
        <time>2011-10-09T07:28:21.000Z</time>
      </trkpt>
      <trkpt lat="45.96038" lon="6.06505">
        <ele>755.79998779297</ele>
        <time>2011-10-09T07:28:25.000Z</time>
      </trkpt>
      <trkpt lat="45.96036" lon="6.06507">
        <ele>755.79998779297</ele>
        <time>2011-10-09T07:28:26.000Z</time>
      </trkpt>
      <trkpt lat="45.96022" lon="6.0651">
        <ele>755.79998779297</ele>
        <time>2011-10-09T07:28:31.000Z</time>
      </trkpt>
      <trkpt lat="45.96019" lon="6.06512">
        <ele>755.79998779297</ele>
        <time>2011-10-09T07:28:32.000Z</time>
      </trkpt>
      <trkpt lat="45.96015" lon="6.0652">
        <ele>755.79998779297</ele>
        <time>2011-10-09T07:28:35.000Z</time>
      </trkpt>
      <trkpt lat="45.96005" lon="6.06524">
        <ele>755.79998779297</ele>
        <time>2011-10-09T07:28:40.000Z</time>
      </trkpt>
      <trkpt lat="45.95998" lon="6.06524">
        <ele>755.79998779297</ele>
        <time>2011-10-09T07:28:45.000Z</time>
      </trkpt>
      <trkpt lat="45.95996" lon="6.06522">
        <ele>755.79998779297</ele>
        <time>2011-10-09T07:28:46.000Z</time>
      </trkpt>
      <trkpt lat="45.95989" lon="6.06508">
        <ele>755.79998779297</ele>
        <time>2011-10-09T07:28:50.000Z</time>
      </trkpt>
      <trkpt lat="45.95979" lon="6.06495">
        <ele>755.59997558594</ele>
        <time>2011-10-09T07:28:55.000Z</time>
      </trkpt>
      <trkpt lat="45.95974" lon="6.06493">
        <ele>755.59997558594</ele>
        <time>2011-10-09T07:28:57.000Z</time>
      </trkpt>
      <trkpt lat="45.95967" lon="6.06494">
        <ele>755.59997558594</ele>
        <time>2011-10-09T07:29:00.000Z</time>
      </trkpt>
      <trkpt lat="45.95961" lon="6.06494">
        <ele>755.40002441406</ele>
        <time>2011-10-09T07:29:02.000Z</time>
      </trkpt>
      <trkpt lat="45.95952" lon="6.06496">
        <ele>755.40002441406</ele>
        <time>2011-10-09T07:29:06.000Z</time>
      </trkpt>
      <trkpt lat="45.95947" lon="6.06497">
        <ele>755.20001220703</ele>
        <time>2011-10-09T07:29:08.000Z</time>
      </trkpt>
      <trkpt lat="45.9594" lon="6.06499">
        <ele>755.20001220703</ele>
        <time>2011-10-09T07:29:11.000Z</time>
      </trkpt>
      <trkpt lat="45.95938" lon="6.06502">
        <ele>755.20001220703</ele>
        <time>2011-10-09T07:29:12.000Z</time>
      </trkpt>
      <trkpt lat="45.95927" lon="6.06515">
        <ele>754.79998779297</ele>
        <time>2011-10-09T07:29:18.000Z</time>
      </trkpt>
      <trkpt lat="45.95921" lon="6.0653">
        <ele>754.59997558594</ele>
        <time>2011-10-09T07:29:23.000Z</time>
      </trkpt>
      <trkpt lat="45.95916" lon="6.06546">
        <ele>754.40002441406</ele>
        <time>2011-10-09T07:29:29.000Z</time>
      </trkpt>
      <trkpt lat="45.95917" lon="6.06552">
        <ele>754.20001220703</ele>
        <time>2011-10-09T07:29:31.000Z</time>
      </trkpt>
      <trkpt lat="45.95914" lon="6.06564">
        <ele>754</ele>
        <time>2011-10-09T07:29:34.000Z</time>
      </trkpt>
      <trkpt lat="45.95914" lon="6.06567">
        <ele>754</ele>
        <time>2011-10-09T07:29:35.000Z</time>
      </trkpt>
      <trkpt lat="45.95913" lon="6.06586">
        <ele>753.59997558594</ele>
        <time>2011-10-09T07:29:40.000Z</time>
      </trkpt>
      <trkpt lat="45.95914" lon="6.06606">
        <ele>753.20001220703</ele>
        <time>2011-10-09T07:29:45.000Z</time>
      </trkpt>
      <trkpt lat="45.95914" lon="6.06625">
        <ele>752.79998779297</ele>
        <time>2011-10-09T07:29:51.000Z</time>
      </trkpt>
      <trkpt lat="45.95911" lon="6.06642">
        <ele>752.40002441406</ele>
        <time>2011-10-09T07:29:56.000Z</time>
      </trkpt>
      <trkpt lat="45.95911" lon="6.06649">
        <ele>752.20001220703</ele>
        <time>2011-10-09T07:29:58.000Z</time>
      </trkpt>
      <trkpt lat="45.95912" lon="6.06661">
        <ele>752</ele>
        <time>2011-10-09T07:30:02.000Z</time>
      </trkpt>
      <trkpt lat="45.95913" lon="6.06683">
        <ele>751</ele>
        <time>2011-10-09T07:30:07.000Z</time>
      </trkpt>
      <trkpt lat="45.95912" lon="6.06704">
        <ele>750</ele>
        <time>2011-10-09T07:30:12.000Z</time>
      </trkpt>
      <trkpt lat="45.95911" lon="6.06711">
        <ele>749.59997558594</ele>
        <time>2011-10-09T07:30:14.000Z</time>
      </trkpt>
      <trkpt lat="45.95912" lon="6.06718">
        <ele>749.20001220703</ele>
        <time>2011-10-09T07:30:16.000Z</time>
      </trkpt>
      <trkpt lat="45.95911" lon="6.06725">
        <ele>749</ele>
        <time>2011-10-09T07:30:18.000Z</time>
      </trkpt>
      <trkpt lat="45.95912" lon="6.06736">
        <ele>748.40002441406</ele>
        <time>2011-10-09T07:30:21.000Z</time>
      </trkpt>
      <trkpt lat="45.95914" lon="6.0674">
        <ele>748.20001220703</ele>
        <time>2011-10-09T07:30:22.000Z</time>
      </trkpt>
      <trkpt lat="45.95916" lon="6.0675">
        <ele>747.79998779297</ele>
        <time>2011-10-09T07:30:25.000Z</time>
      </trkpt>
      <trkpt lat="45.95917" lon="6.06757">
        <ele>747.79998779297</ele>
        <time>2011-10-09T07:30:28.000Z</time>
      </trkpt>
      <trkpt lat="45.95917" lon="6.06758">
        <ele>747.79998779297</ele>
        <time>2011-10-09T07:30:29.000Z</time>
      </trkpt>
      <trkpt lat="45.95919" lon="6.0676">
        <ele>747.79998779297</ele>
        <time>2011-10-09T07:30:30.000Z</time>
      </trkpt>
      <trkpt lat="45.95927" lon="6.06768">
        <ele>747.79998779297</ele>
        <time>2011-10-09T07:30:34.000Z</time>
      </trkpt>
      <trkpt lat="45.95928" lon="6.0677">
        <ele>747.79998779297</ele>
        <time>2011-10-09T07:30:35.000Z</time>
      </trkpt>
      <trkpt lat="45.95929" lon="6.06773">
        <ele>747.79998779297</ele>
        <time>2011-10-09T07:30:36.000Z</time>
      </trkpt>
      <trkpt lat="45.95938" lon="6.06786">
        <ele>747.59997558594</ele>
        <time>2011-10-09T07:30:41.000Z</time>
      </trkpt>
      <trkpt lat="45.95946" lon="6.06808">
        <ele>747.59997558594</ele>
        <time>2011-10-09T07:30:47.000Z</time>
      </trkpt>
      <trkpt lat="45.95949" lon="6.06811">
        <ele>747.79998779297</ele>
        <time>2011-10-09T07:30:48.000Z</time>
      </trkpt>
      <trkpt lat="45.95952" lon="6.06821">
        <ele>747.79998779297</ele>
        <time>2011-10-09T07:30:51.000Z</time>
      </trkpt>
      <trkpt lat="45.95957" lon="6.06838">
        <ele>747.79998779297</ele>
        <time>2011-10-09T07:30:56.000Z</time>
      </trkpt>
      <trkpt lat="45.95964" lon="6.06853">
        <ele>748</ele>
        <time>2011-10-09T07:31:01.000Z</time>
      </trkpt>
      <trkpt lat="45.95969" lon="6.0687">
        <ele>748.20001220703</ele>
        <time>2011-10-09T07:31:07.000Z</time>
      </trkpt>
      <trkpt lat="45.95966" lon="6.06884">
        <ele>748</ele>
        <time>2011-10-09T07:31:12.000Z</time>
      </trkpt>
      <trkpt lat="45.95967" lon="6.06902">
        <ele>748.20001220703</ele>
        <time>2011-10-09T07:31:18.000Z</time>
      </trkpt>
      <trkpt lat="45.95966" lon="6.06905">
        <ele>748</ele>
        <time>2011-10-09T07:31:19.000Z</time>
      </trkpt>
      <trkpt lat="45.95967" lon="6.06918">
        <ele>748</ele>
        <time>2011-10-09T07:31:22.000Z</time>
      </trkpt>
      <trkpt lat="45.95974" lon="6.06934">
        <ele>747.79998779297</ele>
        <time>2011-10-09T07:31:26.000Z</time>
      </trkpt>
      <trkpt lat="45.95982" lon="6.06952">
        <ele>747.59997558594</ele>
        <time>2011-10-09T07:31:31.000Z</time>
      </trkpt>
      <trkpt lat="45.95982" lon="6.0697">
        <ele>747.20001220703</ele>
        <time>2011-10-09T07:31:36.000Z</time>
      </trkpt>
      <trkpt lat="45.95984" lon="6.06972">
        <ele>747.40002441406</ele>
        <time>2011-10-09T07:31:37.000Z</time>
      </trkpt>
      <trkpt lat="45.95989" lon="6.06989">
        <ele>747.40002441406</ele>
        <time>2011-10-09T07:31:42.000Z</time>
      </trkpt>
      <trkpt lat="45.95992" lon="6.07007">
        <ele>746.79998779297</ele>
        <time>2011-10-09T07:31:47.000Z</time>
      </trkpt>
      <trkpt lat="45.95994" lon="6.0701">
        <ele>746.79998779297</ele>
        <time>2011-10-09T07:31:48.000Z</time>
      </trkpt>
      <trkpt lat="45.95999" lon="6.07018">
        <ele>746.59997558594</ele>
        <time>2011-10-09T07:31:51.000Z</time>
      </trkpt>
      <trkpt lat="45.96007" lon="6.07032">
        <ele>746.20001220703</ele>
        <time>2011-10-09T07:31:56.000Z</time>
      </trkpt>
      <trkpt lat="45.96015" lon="6.07047">
        <ele>746</ele>
        <time>2011-10-09T07:32:01.000Z</time>
      </trkpt>
      <trkpt lat="45.96017" lon="6.07053">
        <ele>745.59997558594</ele>
        <time>2011-10-09T07:32:03.000Z</time>
      </trkpt>
      <trkpt lat="45.9602" lon="6.07066">
        <ele>745</ele>
        <time>2011-10-09T07:32:07.000Z</time>
      </trkpt>
      <trkpt lat="45.9602" lon="6.0708">
        <ele>744</ele>
        <time>2011-10-09T07:32:12.000Z</time>
      </trkpt>
      <trkpt lat="45.96019" lon="6.07082">
        <ele>743.79998779297</ele>
        <time>2011-10-09T07:32:13.000Z</time>
      </trkpt>
      <trkpt lat="45.96021" lon="6.0709">
        <ele>743.59997558594</ele>
        <time>2011-10-09T07:32:17.000Z</time>
      </trkpt>
      <trkpt lat="45.96023" lon="6.07093">
        <ele>743.59997558594</ele>
        <time>2011-10-09T07:32:18.000Z</time>
      </trkpt>
      <trkpt lat="45.96026" lon="6.07108">
        <ele>743</ele>
        <time>2011-10-09T07:32:22.000Z</time>
      </trkpt>
      <trkpt lat="45.96036" lon="6.0711">
        <ele>743.79998779297</ele>
        <time>2011-10-09T07:32:26.000Z</time>
      </trkpt>
      <trkpt lat="45.96042" lon="6.07108">
        <ele>744.40002441406</ele>
        <time>2011-10-09T07:32:29.000Z</time>
      </trkpt>
      <trkpt lat="45.96046" lon="6.07107">
        <ele>745</ele>
        <time>2011-10-09T07:32:32.000Z</time>
      </trkpt>
      <trkpt lat="45.96055" lon="6.07103">
        <ele>746</ele>
        <time>2011-10-09T07:32:37.000Z</time>
      </trkpt>
      <trkpt lat="45.96063" lon="6.07093">
        <ele>747.40002441406</ele>
        <time>2011-10-09T07:32:43.000Z</time>
      </trkpt>
      <trkpt lat="45.96069" lon="6.07087">
        <ele>748.40002441406</ele>
        <time>2011-10-09T07:32:48.000Z</time>
      </trkpt>
      <trkpt lat="45.96073" lon="6.0708">
        <ele>749</ele>
        <time>2011-10-09T07:32:50.000Z</time>
      </trkpt>
      <trkpt lat="45.96079" lon="6.07074">
        <ele>750</ele>
        <time>2011-10-09T07:32:53.000Z</time>
      </trkpt>
      <trkpt lat="45.96087" lon="6.0706">
        <ele>751.79998779297</ele>
        <time>2011-10-09T07:33:00.000Z</time>
      </trkpt>
      <trkpt lat="45.96093" lon="6.07052">
        <ele>753</ele>
        <time>2011-10-09T07:33:05.000Z</time>
      </trkpt>
      <trkpt lat="45.96095" lon="6.0705">
        <ele>753.40002441406</ele>
        <time>2011-10-09T07:33:07.000Z</time>
      </trkpt>
      <trkpt lat="45.96104" lon="6.07039">
        <ele>754.59997558594</ele>
        <time>2011-10-09T07:33:12.000Z</time>
      </trkpt>
      <trkpt lat="45.9611" lon="6.07024">
        <ele>756</ele>
        <time>2011-10-09T07:33:17.000Z</time>
      </trkpt>
      <trkpt lat="45.96112" lon="6.07008">
        <ele>757</ele>
        <time>2011-10-09T07:33:23.000Z</time>
      </trkpt>
      <trkpt lat="45.96109" lon="6.06989">
        <ele>757.40002441406</ele>
        <time>2011-10-09T07:33:29.000Z</time>
      </trkpt>
      <trkpt lat="45.9611" lon="6.06975">
        <ele>757.40002441406</ele>
        <time>2011-10-09T07:33:34.000Z</time>
      </trkpt>
      <trkpt lat="45.96109" lon="6.06957">
        <ele>757.20001220703</ele>
        <time>2011-10-09T07:33:39.000Z</time>
      </trkpt>
      <trkpt lat="45.96112" lon="6.0694">
        <ele>757.40002441406</ele>
        <time>2011-10-09T07:33:45.000Z</time>
      </trkpt>
      <trkpt lat="45.96116" lon="6.06927">
        <ele>757.59997558594</ele>
        <time>2011-10-09T07:33:49.000Z</time>
      </trkpt>
      <trkpt lat="45.96116" lon="6.06924">
        <ele>757.59997558594</ele>
        <time>2011-10-09T07:33:50.000Z</time>
      </trkpt>
      <trkpt lat="45.96119" lon="6.06907">
        <ele>757.79998779297</ele>
        <time>2011-10-09T07:33:56.000Z</time>
      </trkpt>
      <trkpt lat="45.96119" lon="6.06905">
        <ele>757.79998779297</ele>
        <time>2011-10-09T07:33:57.000Z</time>
      </trkpt>
      <trkpt lat="45.96121" lon="6.06905">
        <ele>758</ele>
        <time>2011-10-09T07:33:58.000Z</time>
      </trkpt>
      <trkpt lat="45.96115" lon="6.06893">
        <ele>757.40002441406</ele>
        <time>2011-10-09T07:35:54.000Z</time>
      </trkpt>
      <trkpt lat="45.96116" lon="6.06892">
        <ele>757.59997558594</ele>
        <time>2011-10-09T07:35:55.000Z</time>
      </trkpt>
      <trkpt lat="45.96118" lon="6.06891">
        <ele>757.59997558594</ele>
        <time>2011-10-09T07:35:56.000Z</time>
      </trkpt>
      <trkpt lat="45.96123" lon="6.06879">
        <ele>758</ele>
        <time>2011-10-09T07:36:00.000Z</time>
      </trkpt>
      <trkpt lat="45.96129" lon="6.06864">
        <ele>758.40002441406</ele>
        <time>2011-10-09T07:36:05.000Z</time>
      </trkpt>
      <trkpt lat="45.96133" lon="6.06854">
        <ele>758.59997558594</ele>
        <time>2011-10-09T07:36:10.000Z</time>
      </trkpt>
      <trkpt lat="45.96141" lon="6.06844">
        <ele>759.20001220703</ele>
        <time>2011-10-09T07:36:15.000Z</time>
      </trkpt>
      <trkpt lat="45.96142" lon="6.06843">
        <ele>759.20001220703</ele>
        <time>2011-10-09T07:36:16.000Z</time>
      </trkpt>
      <trkpt lat="45.96149" lon="6.06832">
        <ele>759.59997558594</ele>
        <time>2011-10-09T07:36:20.000Z</time>
      </trkpt>
      <trkpt lat="45.96155" lon="6.06825">
        <ele>760</ele>
        <time>2011-10-09T07:36:24.000Z</time>
      </trkpt>
      <trkpt lat="45.96161" lon="6.06815">
        <ele>760.40002441406</ele>
        <time>2011-10-09T07:36:28.000Z</time>
      </trkpt>
      <trkpt lat="45.96168" lon="6.06804">
        <ele>761</ele>
        <time>2011-10-09T07:36:32.000Z</time>
      </trkpt>
      <trkpt lat="45.96169" lon="6.06803">
        <ele>761</ele>
        <time>2011-10-09T07:36:33.000Z</time>
      </trkpt>
      <trkpt lat="45.96175" lon="6.06796">
        <ele>761.59997558594</ele>
        <time>2011-10-09T07:36:36.000Z</time>
      </trkpt>
      <trkpt lat="45.96175" lon="6.06795">
        <ele>761.59997558594</ele>
        <time>2011-10-09T07:36:37.000Z</time>
      </trkpt>
      <trkpt lat="45.96181" lon="6.06785">
        <ele>762</ele>
        <time>2011-10-09T07:36:41.000Z</time>
      </trkpt>
      <trkpt lat="45.96187" lon="6.06774">
        <ele>762.40002441406</ele>
        <time>2011-10-09T07:36:45.000Z</time>
      </trkpt>
      <trkpt lat="45.96196" lon="6.06762">
        <ele>762.79998779297</ele>
        <time>2011-10-09T07:36:51.000Z</time>
      </trkpt>
      <trkpt lat="45.96205" lon="6.06748">
        <ele>763.20001220703</ele>
        <time>2011-10-09T07:36:57.000Z</time>
      </trkpt>
      <trkpt lat="45.96214" lon="6.06734">
        <ele>763.40002441406</ele>
        <time>2011-10-09T07:37:02.000Z</time>
      </trkpt>
      <trkpt lat="45.96227" lon="6.06719">
        <ele>763.79998779297</ele>
        <time>2011-10-09T07:37:08.000Z</time>
      </trkpt>
      <trkpt lat="45.96239" lon="6.06703">
        <ele>764.20001220703</ele>
        <time>2011-10-09T07:37:14.000Z</time>
      </trkpt>
      <trkpt lat="45.96247" lon="6.06692">
        <ele>764.40002441406</ele>
        <time>2011-10-09T07:37:19.000Z</time>
      </trkpt>
      <trkpt lat="45.96252" lon="6.06681">
        <ele>764.40002441406</ele>
        <time>2011-10-09T07:37:23.000Z</time>
      </trkpt>
      <trkpt lat="45.9626" lon="6.06665">
        <ele>764.40002441406</ele>
        <time>2011-10-09T07:37:28.000Z</time>
      </trkpt>
      <trkpt lat="45.96265" lon="6.0665">
        <ele>764.20001220703</ele>
        <time>2011-10-09T07:37:34.000Z</time>
      </trkpt>
      <trkpt lat="45.96279" lon="6.06648">
        <ele>764.79998779297</ele>
        <time>2011-10-09T07:37:39.000Z</time>
      </trkpt>
      <trkpt lat="45.96284" lon="6.06648">
        <ele>765.20001220703</ele>
        <time>2011-10-09T07:37:43.000Z</time>
      </trkpt>
      <trkpt lat="45.96286" lon="6.06648">
        <ele>765.20001220703</ele>
        <time>2011-10-09T07:37:44.000Z</time>
      </trkpt>
      <trkpt lat="45.96292" lon="6.06652">
        <ele>765.59997558594</ele>
        <time>2011-10-09T07:37:48.000Z</time>
      </trkpt>
      <trkpt lat="45.96293" lon="6.06653">
        <ele>765.59997558594</ele>
        <time>2011-10-09T07:37:49.000Z</time>
      </trkpt>
      <trkpt lat="45.963" lon="6.06659">
        <ele>766.20001220703</ele>
        <time>2011-10-09T07:37:53.000Z</time>
      </trkpt>
      <trkpt lat="45.96304" lon="6.06666">
        <ele>766.40002441406</ele>
        <time>2011-10-09T07:37:58.000Z</time>
      </trkpt>
      <trkpt lat="45.96308" lon="6.06669">
        <ele>766.79998779297</ele>
        <time>2011-10-09T07:38:03.000Z</time>
      </trkpt>
      <trkpt lat="45.96311" lon="6.06675">
        <ele>767.20001220703</ele>
        <time>2011-10-09T07:38:09.000Z</time>
      </trkpt>
      <trkpt lat="45.96318" lon="6.06682">
        <ele>768</ele>
        <time>2011-10-09T07:38:13.000Z</time>
      </trkpt>
      <trkpt lat="45.96321" lon="6.06683">
        <ele>768.20001220703</ele>
        <time>2011-10-09T07:38:14.000Z</time>
      </trkpt>
      <trkpt lat="45.96328" lon="6.0669">
        <ele>769</ele>
        <time>2011-10-09T07:38:21.000Z</time>
      </trkpt>
      <trkpt lat="45.96338" lon="6.06697">
        <ele>770</ele>
        <time>2011-10-09T07:38:25.000Z</time>
      </trkpt>
      <trkpt lat="45.96346" lon="6.067">
        <ele>770.79998779297</ele>
        <time>2011-10-09T07:38:30.000Z</time>
      </trkpt>
      <trkpt lat="45.96348" lon="6.06704">
        <ele>771.20001220703</ele>
        <time>2011-10-09T07:38:33.000Z</time>
      </trkpt>
      <trkpt lat="45.9635" lon="6.06706">
        <ele>771.40002441406</ele>
        <time>2011-10-09T07:38:34.000Z</time>
      </trkpt>
      <trkpt lat="45.9636" lon="6.06719">
        <ele>772.79998779297</ele>
        <time>2011-10-09T07:38:39.000Z</time>
      </trkpt>
      <trkpt lat="45.96366" lon="6.0673">
        <ele>773.79998779297</ele>
        <time>2011-10-09T07:38:44.000Z</time>
      </trkpt>
      <trkpt lat="45.96368" lon="6.06742">
        <ele>774.59997558594</ele>
        <time>2011-10-09T07:38:51.000Z</time>
      </trkpt>
      <trkpt lat="45.96374" lon="6.06752">
        <ele>775.40002441406</ele>
        <time>2011-10-09T07:38:56.000Z</time>
      </trkpt>
      <trkpt lat="45.9638" lon="6.06753">
        <ele>775.79998779297</ele>
        <time>2011-10-09T07:38:58.000Z</time>
      </trkpt>
      <trkpt lat="45.96384" lon="6.06755">
        <ele>776.20001220703</ele>
        <time>2011-10-09T07:39:01.000Z</time>
      </trkpt>
      <trkpt lat="45.96394" lon="6.06758">
        <ele>777</ele>
        <time>2011-10-09T07:39:04.000Z</time>
      </trkpt>
      <trkpt lat="45.96403" lon="6.06758">
        <ele>777.59997558594</ele>
        <time>2011-10-09T07:39:06.000Z</time>
      </trkpt>
      <trkpt lat="45.96411" lon="6.0676">
        <ele>778.20001220703</ele>
        <time>2011-10-09T07:39:08.000Z</time>
      </trkpt>
      <trkpt lat="45.96415" lon="6.06766">
        <ele>778.79998779297</ele>
        <time>2011-10-09T07:39:11.000Z</time>
      </trkpt>
      <trkpt lat="45.96416" lon="6.06769">
        <ele>779</ele>
        <time>2011-10-09T07:39:12.000Z</time>
      </trkpt>
      <trkpt lat="45.96421" lon="6.06777">
        <ele>779.79998779297</ele>
        <time>2011-10-09T07:39:15.000Z</time>
      </trkpt>
      <trkpt lat="45.9643" lon="6.06787">
        <ele>780.79998779297</ele>
        <time>2011-10-09T07:39:20.000Z</time>
      </trkpt>
      <trkpt lat="45.96435" lon="6.06795">
        <ele>781.59997558594</ele>
        <time>2011-10-09T07:39:25.000Z</time>
      </trkpt>
      <trkpt lat="45.96447" lon="6.06801">
        <ele>782.59997558594</ele>
        <time>2011-10-09T07:39:30.000Z</time>
      </trkpt>
      <trkpt lat="45.96448" lon="6.06803">
        <ele>782.79998779297</ele>
        <time>2011-10-09T07:39:31.000Z</time>
      </trkpt>
      <trkpt lat="45.96459" lon="6.06809">
        <ele>783.79998779297</ele>
        <time>2011-10-09T07:39:36.000Z</time>
      </trkpt>
      <trkpt lat="45.96463" lon="6.0681">
        <ele>784</ele>
        <time>2011-10-09T07:39:38.000Z</time>
      </trkpt>
      <trkpt lat="45.96477" lon="6.06813">
        <ele>785</ele>
        <time>2011-10-09T07:39:43.000Z</time>
      </trkpt>
      <trkpt lat="45.9648" lon="6.06816">
        <ele>785.40002441406</ele>
        <time>2011-10-09T07:39:45.000Z</time>
      </trkpt>
      <trkpt lat="45.9648" lon="6.06823">
        <ele>785.79998779297</ele>
        <time>2011-10-09T07:39:47.000Z</time>
      </trkpt>
      <trkpt lat="45.96473" lon="6.06834">
        <ele>786.20001220703</ele>
        <time>2011-10-09T07:39:51.000Z</time>
      </trkpt>
      <trkpt lat="45.96467" lon="6.06846">
        <ele>786.59997558594</ele>
        <time>2011-10-09T07:39:57.000Z</time>
      </trkpt>
      <trkpt lat="45.96468" lon="6.06846">
        <ele>786.59997558594</ele>
        <time>2011-10-09T07:39:58.000Z</time>
      </trkpt>
      <trkpt lat="45.96467" lon="6.0685">
        <ele>786.79998779297</ele>
        <time>2011-10-09T07:40:05.000Z</time>
      </trkpt>
      <trkpt lat="45.96476" lon="6.0685">
        <ele>787.40002441406</ele>
        <time>2011-10-09T07:40:31.000Z</time>
      </trkpt>
      <trkpt lat="45.96481" lon="6.06849">
        <ele>787.79998779297</ele>
        <time>2011-10-09T07:40:37.000Z</time>
      </trkpt>
      <trkpt lat="45.9648" lon="6.06852">
        <ele>787.79998779297</ele>
        <time>2011-10-09T07:40:41.000Z</time>
      </trkpt>
      <trkpt lat="45.96488" lon="6.06863">
        <ele>789.20001220703</ele>
        <time>2011-10-09T07:41:04.000Z</time>
      </trkpt>
      <trkpt lat="45.96491" lon="6.0687">
        <ele>789.79998779297</ele>
        <time>2011-10-09T07:41:07.000Z</time>
      </trkpt>
      <trkpt lat="45.96492" lon="6.06876">
        <ele>790.20001220703</ele>
        <time>2011-10-09T07:41:09.000Z</time>
      </trkpt>
      <trkpt lat="45.96489" lon="6.06877">
        <ele>790.20001220703</ele>
        <time>2011-10-09T07:41:10.000Z</time>
      </trkpt>
      <trkpt lat="45.96485" lon="6.06881">
        <ele>790</ele>
        <time>2011-10-09T07:41:12.000Z</time>
      </trkpt>
      <trkpt lat="45.96476" lon="6.06891">
        <ele>789.79998779297</ele>
        <time>2011-10-09T07:41:17.000Z</time>
      </trkpt>
      <trkpt lat="45.96472" lon="6.06899">
        <ele>790</ele>
        <time>2011-10-09T07:41:22.000Z</time>
      </trkpt>
      <trkpt lat="45.96467" lon="6.06912">
        <ele>790</ele>
        <time>2011-10-09T07:41:27.000Z</time>
      </trkpt>
      <trkpt lat="45.96467" lon="6.06914">
        <ele>790.20001220703</ele>
        <time>2011-10-09T07:41:28.000Z</time>
      </trkpt>
      <trkpt lat="45.96463" lon="6.06928">
        <ele>790</ele>
        <time>2011-10-09T07:41:32.000Z</time>
      </trkpt>
      <trkpt lat="45.96464" lon="6.06949">
        <ele>790</ele>
        <time>2011-10-09T07:41:38.000Z</time>
      </trkpt>
      <trkpt lat="45.96466" lon="6.06967">
        <ele>790.40002441406</ele>
        <time>2011-10-09T07:41:43.000Z</time>
      </trkpt>
      <trkpt lat="45.9647" lon="6.06979">
        <ele>791</ele>
        <time>2011-10-09T07:41:47.000Z</time>
      </trkpt>
      <trkpt lat="45.96471" lon="6.06984">
        <ele>791</ele>
        <time>2011-10-09T07:41:48.000Z</time>
      </trkpt>
      <trkpt lat="45.96474" lon="6.06994">
        <ele>791.40002441406</ele>
        <time>2011-10-09T07:41:51.000Z</time>
      </trkpt>
      <trkpt lat="45.96473" lon="6.07001">
        <ele>791.40002441406</ele>
        <time>2011-10-09T07:41:54.000Z</time>
      </trkpt>
      <trkpt lat="45.96474" lon="6.07016">
        <ele>791.59997558594</ele>
        <time>2011-10-09T07:41:59.000Z</time>
      </trkpt>
      <trkpt lat="45.96475" lon="6.07019">
        <ele>791.79998779297</ele>
        <time>2011-10-09T07:42:00.000Z</time>
      </trkpt>
      <trkpt lat="45.96477" lon="6.07025">
        <ele>792</ele>
        <time>2011-10-09T07:42:03.000Z</time>
      </trkpt>
      <trkpt lat="45.96476" lon="6.07026">
        <ele>791.79998779297</ele>
        <time>2011-10-09T07:42:04.000Z</time>
      </trkpt>
      <trkpt lat="45.96472" lon="6.07042">
        <ele>791.59997558594</ele>
        <time>2011-10-09T07:42:09.000Z</time>
      </trkpt>
      <trkpt lat="45.9647" lon="6.07053">
        <ele>791.40002441406</ele>
        <time>2011-10-09T07:42:12.000Z</time>
      </trkpt>
      <trkpt lat="45.96468" lon="6.07059">
        <ele>791</ele>
        <time>2011-10-09T07:42:13.000Z</time>
      </trkpt>
      <trkpt lat="45.96464" lon="6.07073">
        <ele>790.59997558594</ele>
        <time>2011-10-09T07:42:18.000Z</time>
      </trkpt>
      <trkpt lat="45.96459" lon="6.07087">
        <ele>790</ele>
        <time>2011-10-09T07:42:23.000Z</time>
      </trkpt>
      <trkpt lat="45.96453" lon="6.07096">
        <ele>789.40002441406</ele>
        <time>2011-10-09T07:42:27.000Z</time>
      </trkpt>
      <trkpt lat="45.96447" lon="6.07113">
        <ele>789</ele>
        <time>2011-10-09T07:42:33.000Z</time>
      </trkpt>
      <trkpt lat="45.96441" lon="6.07129">
        <ele>788.40002441406</ele>
        <time>2011-10-09T07:42:38.000Z</time>
      </trkpt>
      <trkpt lat="45.96434" lon="6.07149">
        <ele>788</ele>
        <time>2011-10-09T07:42:44.000Z</time>
      </trkpt>
      <trkpt lat="45.96435" lon="6.07164">
        <ele>788.40002441406</ele>
        <time>2011-10-09T07:42:49.000Z</time>
      </trkpt>
      <trkpt lat="45.96431" lon="6.07183">
        <ele>788</ele>
        <time>2011-10-09T07:42:55.000Z</time>
      </trkpt>
      <trkpt lat="45.96423" lon="6.07198">
        <ele>787</ele>
        <time>2011-10-09T07:43:00.000Z</time>
      </trkpt>
      <trkpt lat="45.96419" lon="6.07221">
        <ele>786.20001220703</ele>
        <time>2011-10-09T07:43:06.000Z</time>
      </trkpt>
      <trkpt lat="45.96417" lon="6.07239">
        <ele>786</ele>
        <time>2011-10-09T07:43:11.000Z</time>
      </trkpt>
      <trkpt lat="45.96423" lon="6.07251">
        <ele>787</ele>
        <time>2011-10-09T07:43:15.000Z</time>
      </trkpt>
      <trkpt lat="45.96422" lon="6.07263">
        <ele>786.79998779297</ele>
        <time>2011-10-09T07:43:19.000Z</time>
      </trkpt>
      <trkpt lat="45.96421" lon="6.07278">
        <ele>786.40002441406</ele>
        <time>2011-10-09T07:43:23.000Z</time>
      </trkpt>
      <trkpt lat="45.96421" lon="6.07281">
        <ele>786.40002441406</ele>
        <time>2011-10-09T07:43:24.000Z</time>
      </trkpt>
      <trkpt lat="45.96415" lon="6.073">
        <ele>785</ele>
        <time>2011-10-09T07:43:30.000Z</time>
      </trkpt>
      <trkpt lat="45.96403" lon="6.07317">
        <ele>783</ele>
        <time>2011-10-09T07:43:35.000Z</time>
      </trkpt>
      <trkpt lat="45.96393" lon="6.07333">
        <ele>781.20001220703</ele>
        <time>2011-10-09T07:43:40.000Z</time>
      </trkpt>
      <trkpt lat="45.96389" lon="6.0734">
        <ele>780.40002441406</ele>
        <time>2011-10-09T07:43:43.000Z</time>
      </trkpt>
      <trkpt lat="45.96389" lon="6.07352">
        <ele>780.40002441406</ele>
        <time>2011-10-09T07:43:45.000Z</time>
      </trkpt>
      <trkpt lat="45.96389" lon="6.07359">
        <ele>780.20001220703</ele>
        <time>2011-10-09T07:43:47.000Z</time>
      </trkpt>
      <trkpt lat="45.96389" lon="6.07371">
        <ele>780.20001220703</ele>
        <time>2011-10-09T07:43:50.000Z</time>
      </trkpt>
      <trkpt lat="45.9639" lon="6.07393">
        <ele>780</ele>
        <time>2011-10-09T07:43:56.000Z</time>
      </trkpt>
      <trkpt lat="45.96391" lon="6.07403">
        <ele>780</ele>
        <time>2011-10-09T07:43:59.000Z</time>
      </trkpt>
      <trkpt lat="45.96391" lon="6.07405">
        <ele>780.20001220703</ele>
        <time>2011-10-09T07:44:00.000Z</time>
      </trkpt>
      <trkpt lat="45.96394" lon="6.07421">
        <ele>780.20001220703</ele>
        <time>2011-10-09T07:44:05.000Z</time>
      </trkpt>
      <trkpt lat="45.96401" lon="6.07441">
        <ele>780.20001220703</ele>
        <time>2011-10-09T07:44:10.000Z</time>
      </trkpt>
      <trkpt lat="45.96409" lon="6.07455">
        <ele>780.59997558594</ele>
        <time>2011-10-09T07:44:15.000Z</time>
      </trkpt>
      <trkpt lat="45.96412" lon="6.07456">
        <ele>781</ele>
        <time>2011-10-09T07:44:20.000Z</time>
      </trkpt>
      <trkpt lat="45.96418" lon="6.07458">
        <ele>782.20001220703</ele>
        <time>2011-10-09T07:44:26.000Z</time>
      </trkpt>
      <trkpt lat="45.96422" lon="6.07457">
        <ele>782.79998779297</ele>
        <time>2011-10-09T07:44:31.000Z</time>
      </trkpt>
      <trkpt lat="45.96432" lon="6.07465">
        <ele>783.59997558594</ele>
        <time>2011-10-09T07:44:44.000Z</time>
      </trkpt>
      <trkpt lat="45.96444" lon="6.07471">
        <ele>785</ele>
        <time>2011-10-09T07:44:55.000Z</time>
      </trkpt>
      <trkpt lat="45.96449" lon="6.07473">
        <ele>785.59997558594</ele>
        <time>2011-10-09T07:44:59.000Z</time>
      </trkpt>
      <trkpt lat="45.96454" lon="6.07474">
        <ele>786.40002441406</ele>
        <time>2011-10-09T07:45:03.000Z</time>
      </trkpt>
      <trkpt lat="45.96458" lon="6.07478">
        <ele>786.40002441406</ele>
        <time>2011-10-09T07:45:05.000Z</time>
      </trkpt>
      <trkpt lat="45.96463" lon="6.07485">
        <ele>786.79998779297</ele>
        <time>2011-10-09T07:45:08.000Z</time>
      </trkpt>
      <trkpt lat="45.9647" lon="6.07497">
        <ele>786.79998779297</ele>
        <time>2011-10-09T07:45:13.000Z</time>
      </trkpt>
      <trkpt lat="45.96472" lon="6.07501">
        <ele>786.79998779297</ele>
        <time>2011-10-09T07:45:15.000Z</time>
      </trkpt>
      <trkpt lat="45.96475" lon="6.07509">
        <ele>786.40002441406</ele>
        <time>2011-10-09T07:45:20.000Z</time>
      </trkpt>
      <trkpt lat="45.96477" lon="6.07512">
        <ele>786.40002441406</ele>
        <time>2011-10-09T07:45:23.000Z</time>
      </trkpt>
      <trkpt lat="45.96478" lon="6.07515">
        <ele>786.40002441406</ele>
        <time>2011-10-09T07:45:25.000Z</time>
      </trkpt>
      <trkpt lat="45.9648" lon="6.07518">
        <ele>786.40002441406</ele>
        <time>2011-10-09T07:45:28.000Z</time>
      </trkpt>
      <trkpt lat="45.96483" lon="6.07526">
        <ele>786.20001220703</ele>
        <time>2011-10-09T07:45:33.000Z</time>
      </trkpt>
      <trkpt lat="45.96485" lon="6.07532">
        <ele>785.79998779297</ele>
        <time>2011-10-09T07:45:35.000Z</time>
      </trkpt>
      <trkpt lat="45.96487" lon="6.07537">
        <ele>785.59997558594</ele>
        <time>2011-10-09T07:45:37.000Z</time>
      </trkpt>
      <trkpt lat="45.96495" lon="6.0754">
        <ele>786.79998779297</ele>
        <time>2011-10-09T07:45:42.000Z</time>
      </trkpt>
      <trkpt lat="45.96503" lon="6.07536">
        <ele>788.59997558594</ele>
        <time>2011-10-09T07:45:47.000Z</time>
      </trkpt>
      <trkpt lat="45.96503" lon="6.07536">
        <ele>788.79998779297</ele>
        <time>2011-10-09T07:45:48.000Z</time>
      </trkpt>
      <trkpt lat="45.96505" lon="6.07535">
        <ele>789.20001220703</ele>
        <time>2011-10-09T07:45:49.000Z</time>
      </trkpt>
      <trkpt lat="45.9651" lon="6.07531">
        <ele>790.59997558594</ele>
        <time>2011-10-09T07:45:52.000Z</time>
      </trkpt>
      <trkpt lat="45.96511" lon="6.0753">
        <ele>791</ele>
        <time>2011-10-09T07:45:53.000Z</time>
      </trkpt>
      <trkpt lat="45.9652" lon="6.07524">
        <ele>793.59997558594</ele>
        <time>2011-10-09T07:45:59.000Z</time>
      </trkpt>
      <trkpt lat="45.96528" lon="6.07519">
        <ele>795.79998779297</ele>
        <time>2011-10-09T07:46:05.000Z</time>
      </trkpt>
      <trkpt lat="45.96534" lon="6.07517">
        <ele>797.40002441406</ele>
        <time>2011-10-09T07:46:12.000Z</time>
      </trkpt>
      <trkpt lat="45.96539" lon="6.07516">
        <ele>798.40002441406</ele>
        <time>2011-10-09T07:46:15.000Z</time>
      </trkpt>
      <trkpt lat="45.96541" lon="6.07515">
        <ele>798.79998779297</ele>
        <time>2011-10-09T07:46:16.000Z</time>
      </trkpt>
      <trkpt lat="45.96548" lon="6.07516">
        <ele>800.40002441406</ele>
        <time>2011-10-09T07:46:22.000Z</time>
      </trkpt>
      <trkpt lat="45.96549" lon="6.07517">
        <ele>800.59997558594</ele>
        <time>2011-10-09T07:46:23.000Z</time>
      </trkpt>
      <trkpt lat="45.9655" lon="6.07518">
        <ele>801</ele>
        <time>2011-10-09T07:46:25.000Z</time>
      </trkpt>
      <trkpt lat="45.96554" lon="6.07521">
        <ele>801.59997558594</ele>
        <time>2011-10-09T07:46:28.000Z</time>
      </trkpt>
      <trkpt lat="45.96556" lon="6.07522">
        <ele>802</ele>
        <time>2011-10-09T07:46:29.000Z</time>
      </trkpt>
      <trkpt lat="45.96559" lon="6.07523">
        <ele>802.59997558594</ele>
        <time>2011-10-09T07:46:31.000Z</time>
      </trkpt>
      <trkpt lat="45.96563" lon="6.07523">
        <ele>803.59997558594</ele>
        <time>2011-10-09T07:46:33.000Z</time>
      </trkpt>
      <trkpt lat="45.96567" lon="6.07524">
        <ele>804.59997558594</ele>
        <time>2011-10-09T07:46:35.000Z</time>
      </trkpt>
      <trkpt lat="45.96573" lon="6.07525">
        <ele>806</ele>
        <time>2011-10-09T07:46:39.000Z</time>
      </trkpt>
      <trkpt lat="45.96578" lon="6.07524">
        <ele>807</ele>
        <time>2011-10-09T07:46:43.000Z</time>
      </trkpt>
      <trkpt lat="45.96581" lon="6.07525">
        <ele>807.59997558594</ele>
        <time>2011-10-09T07:46:45.000Z</time>
      </trkpt>
      <trkpt lat="45.96587" lon="6.07526">
        <ele>809</ele>
        <time>2011-10-09T07:46:50.000Z</time>
      </trkpt>
      <trkpt lat="45.96594" lon="6.07526">
        <ele>810</ele>
        <time>2011-10-09T07:46:57.000Z</time>
      </trkpt>
      <trkpt lat="45.96599" lon="6.07526">
        <ele>811</ele>
        <time>2011-10-09T07:47:03.000Z</time>
      </trkpt>
      <trkpt lat="45.96604" lon="6.07526">
        <ele>811.79998779297</ele>
        <time>2011-10-09T07:47:05.000Z</time>
      </trkpt>
      <trkpt lat="45.96607" lon="6.07523">
        <ele>812.59997558594</ele>
        <time>2011-10-09T07:47:08.000Z</time>
      </trkpt>
      <trkpt lat="45.96618" lon="6.07524">
        <ele>814.20001220703</ele>
        <time>2011-10-09T07:47:14.000Z</time>
      </trkpt>
      <trkpt lat="45.96631" lon="6.07534">
        <ele>816.20001220703</ele>
        <time>2011-10-09T07:47:19.000Z</time>
      </trkpt>
      <trkpt lat="45.96632" lon="6.07536">
        <ele>816.40002441406</ele>
        <time>2011-10-09T07:47:20.000Z</time>
      </trkpt>
      <trkpt lat="45.96644" lon="6.07546">
        <ele>817.79998779297</ele>
        <time>2011-10-09T07:47:26.000Z</time>
      </trkpt>
      <trkpt lat="45.96654" lon="6.07547">
        <ele>819.40002441406</ele>
        <time>2011-10-09T07:47:31.000Z</time>
      </trkpt>
      <trkpt lat="45.9667" lon="6.0755">
        <ele>821.79998779297</ele>
        <time>2011-10-09T07:47:38.000Z</time>
      </trkpt>
      <trkpt lat="45.96671" lon="6.0755">
        <ele>822</ele>
        <time>2011-10-09T07:47:39.000Z</time>
      </trkpt>
      <trkpt lat="45.96675" lon="6.07555">
        <ele>822.20001220703</ele>
        <time>2011-10-09T07:47:43.000Z</time>
      </trkpt>
      <trkpt lat="45.96675" lon="6.07557">
        <ele>822</ele>
        <time>2011-10-09T07:47:45.000Z</time>
      </trkpt>
      <trkpt lat="45.96675" lon="6.07562">
        <ele>821.79998779297</ele>
        <time>2011-10-09T07:47:48.000Z</time>
      </trkpt>
      <trkpt lat="45.96681" lon="6.07565">
        <ele>822.20001220703</ele>
        <time>2011-10-09T07:47:50.000Z</time>
      </trkpt>
      <trkpt lat="45.96692" lon="6.07572">
        <ele>823</ele>
        <time>2011-10-09T07:47:54.000Z</time>
      </trkpt>
      <trkpt lat="45.96696" lon="6.07575">
        <ele>823.20001220703</ele>
        <time>2011-10-09T07:47:56.000Z</time>
      </trkpt>
      <trkpt lat="45.96704" lon="6.07582">
        <ele>823.59997558594</ele>
        <time>2011-10-09T07:48:01.000Z</time>
      </trkpt>
      <trkpt lat="45.96707" lon="6.0759">
        <ele>823.59997558594</ele>
        <time>2011-10-09T07:48:06.000Z</time>
      </trkpt>
      <trkpt lat="45.96708" lon="6.07591">
        <ele>823.79998779297</ele>
        <time>2011-10-09T07:48:07.000Z</time>
      </trkpt>
      <trkpt lat="45.96708" lon="6.07594">
        <ele>823.79998779297</ele>
        <time>2011-10-09T07:48:09.000Z</time>
      </trkpt>
      <trkpt lat="45.96708" lon="6.07599">
        <ele>823.59997558594</ele>
        <time>2011-10-09T07:48:11.000Z</time>
      </trkpt>
      <trkpt lat="45.96714" lon="6.07607">
        <ele>824.20001220703</ele>
        <time>2011-10-09T07:48:16.000Z</time>
      </trkpt>
      <trkpt lat="45.96718" lon="6.07614">
        <ele>824.40002441406</ele>
        <time>2011-10-09T07:48:23.000Z</time>
      </trkpt>
      <trkpt lat="45.96718" lon="6.07615">
        <ele>824.40002441406</ele>
        <time>2011-10-09T07:48:24.000Z</time>
      </trkpt>
      <trkpt lat="45.96723" lon="6.07616">
        <ele>825</ele>
        <time>2011-10-09T07:48:29.000Z</time>
      </trkpt>
      <trkpt lat="45.9673" lon="6.0762">
        <ele>825.59997558594</ele>
        <time>2011-10-09T07:48:35.000Z</time>
      </trkpt>
      <trkpt lat="45.96736" lon="6.07622">
        <ele>826</ele>
        <time>2011-10-09T07:48:40.000Z</time>
      </trkpt>
      <trkpt lat="45.96738" lon="6.07624">
        <ele>826.20001220703</ele>
        <time>2011-10-09T07:48:41.000Z</time>
      </trkpt>
      <trkpt lat="45.96746" lon="6.07628">
        <ele>827</ele>
        <time>2011-10-09T07:48:47.000Z</time>
      </trkpt>
      <trkpt lat="45.96754" lon="6.07626">
        <ele>827.79998779297</ele>
        <time>2011-10-09T07:48:52.000Z</time>
      </trkpt>
      <trkpt lat="45.96757" lon="6.07626">
        <ele>828.20001220703</ele>
        <time>2011-10-09T07:48:54.000Z</time>
      </trkpt>
      <trkpt lat="45.9676" lon="6.07628">
        <ele>828.59997558594</ele>
        <time>2011-10-09T07:48:57.000Z</time>
      </trkpt>
      <trkpt lat="45.96767" lon="6.07634">
        <ele>829.20001220703</ele>
        <time>2011-10-09T07:49:03.000Z</time>
      </trkpt>
      <trkpt lat="45.96769" lon="6.07634">
        <ele>829.59997558594</ele>
        <time>2011-10-09T07:49:04.000Z</time>
      </trkpt>
      <trkpt lat="45.9677" lon="6.07635">
        <ele>829.59997558594</ele>
        <time>2011-10-09T07:49:05.000Z</time>
      </trkpt>
      <trkpt lat="45.9678" lon="6.07642">
        <ele>830.59997558594</ele>
        <time>2011-10-09T07:49:09.000Z</time>
      </trkpt>
      <trkpt lat="45.96797" lon="6.07647">
        <ele>832.59997558594</ele>
        <time>2011-10-09T07:49:14.000Z</time>
      </trkpt>
      <trkpt lat="45.9681" lon="6.07653">
        <ele>833.79998779297</ele>
        <time>2011-10-09T07:49:20.000Z</time>
      </trkpt>
      <trkpt lat="45.9682" lon="6.07661">
        <ele>834.59997558594</ele>
        <time>2011-10-09T07:49:26.000Z</time>
      </trkpt>
      <trkpt lat="45.96835" lon="6.07675">
        <ele>836.20001220703</ele>
        <time>2011-10-09T07:49:32.000Z</time>
      </trkpt>
      <trkpt lat="45.96841" lon="6.07681">
        <ele>837</ele>
        <time>2011-10-09T07:49:35.000Z</time>
      </trkpt>
      <trkpt lat="45.96842" lon="6.07686">
        <ele>837.20001220703</ele>
        <time>2011-10-09T07:49:37.000Z</time>
      </trkpt>
      <trkpt lat="45.96846" lon="6.07695">
        <ele>837.59997558594</ele>
        <time>2011-10-09T07:49:41.000Z</time>
      </trkpt>
      <trkpt lat="45.96846" lon="6.07697">
        <ele>837.59997558594</ele>
        <time>2011-10-09T07:49:42.000Z</time>
      </trkpt>
      <trkpt lat="45.96847" lon="6.07698">
        <ele>837.79998779297</ele>
        <time>2011-10-09T07:49:43.000Z</time>
      </trkpt>
      <trkpt lat="45.96853" lon="6.07704">
        <ele>838.59997558594</ele>
        <time>2011-10-09T07:49:47.000Z</time>
      </trkpt>
      <trkpt lat="45.96858" lon="6.07706">
        <ele>839.20001220703</ele>
        <time>2011-10-09T07:49:51.000Z</time>
      </trkpt>
      <trkpt lat="45.96859" lon="6.07705">
        <ele>839.20001220703</ele>
        <time>2011-10-09T07:49:52.000Z</time>
      </trkpt>
      <trkpt lat="45.96866" lon="6.07701">
        <ele>840.40002441406</ele>
        <time>2011-10-09T07:49:57.000Z</time>
      </trkpt>
      <trkpt lat="45.96873" lon="6.07693">
        <ele>841.40002441406</ele>
        <time>2011-10-09T07:50:03.000Z</time>
      </trkpt>
      <trkpt lat="45.96876" lon="6.07691">
        <ele>841.79998779297</ele>
        <time>2011-10-09T07:50:05.000Z</time>
      </trkpt>
      <trkpt lat="45.96882" lon="6.07692">
        <ele>842.59997558594</ele>
        <time>2011-10-09T07:50:08.000Z</time>
      </trkpt>
      <trkpt lat="45.96891" lon="6.07695">
        <ele>843.79998779297</ele>
        <time>2011-10-09T07:50:14.000Z</time>
      </trkpt>
      <trkpt lat="45.96901" lon="6.07703">
        <ele>845</ele>
        <time>2011-10-09T07:50:19.000Z</time>
      </trkpt>
      <trkpt lat="45.96902" lon="6.07705">
        <ele>845</ele>
        <time>2011-10-09T07:50:20.000Z</time>
      </trkpt>
      <trkpt lat="45.96907" lon="6.07711">
        <ele>845.59997558594</ele>
        <time>2011-10-09T07:50:24.000Z</time>
      </trkpt>
      <trkpt lat="45.96922" lon="6.07719">
        <ele>847</ele>
        <time>2011-10-09T07:50:30.000Z</time>
      </trkpt>
      <trkpt lat="45.96932" lon="6.07726">
        <ele>847.59997558594</ele>
        <time>2011-10-09T07:50:34.000Z</time>
      </trkpt>
      <trkpt lat="45.96933" lon="6.07727">
        <ele>847.59997558594</ele>
        <time>2011-10-09T07:50:35.000Z</time>
      </trkpt>
      <trkpt lat="45.9694" lon="6.0773">
        <ele>848</ele>
        <time>2011-10-09T07:50:40.000Z</time>
      </trkpt>
      <trkpt lat="45.96948" lon="6.07733">
        <ele>848.59997558594</ele>
        <time>2011-10-09T07:50:45.000Z</time>
      </trkpt>
      <trkpt lat="45.96957" lon="6.07734">
        <ele>849.20001220703</ele>
        <time>2011-10-09T07:50:50.000Z</time>
      </trkpt>
      <trkpt lat="45.96968" lon="6.07744">
        <ele>849.79998779297</ele>
        <time>2011-10-09T07:50:55.000Z</time>
      </trkpt>
      <trkpt lat="45.96982" lon="6.07753">
        <ele>850.59997558594</ele>
        <time>2011-10-09T07:51:00.000Z</time>
      </trkpt>
      <trkpt lat="45.96993" lon="6.07765">
        <ele>851</ele>
        <time>2011-10-09T07:51:05.000Z</time>
      </trkpt>
      <trkpt lat="45.96998" lon="6.07779">
        <ele>851</ele>
        <time>2011-10-09T07:51:10.000Z</time>
      </trkpt>
      <trkpt lat="45.96999" lon="6.07796">
        <ele>850.79998779297</ele>
        <time>2011-10-09T07:51:15.000Z</time>
      </trkpt>
      <trkpt lat="45.97001" lon="6.07811">
        <ele>850.59997558594</ele>
        <time>2011-10-09T07:51:20.000Z</time>
      </trkpt>
      <trkpt lat="45.97002" lon="6.07829">
        <ele>850.20001220703</ele>
        <time>2011-10-09T07:51:26.000Z</time>
      </trkpt>
      <trkpt lat="45.97004" lon="6.07849">
        <ele>849.40002441406</ele>
        <time>2011-10-09T07:51:32.000Z</time>
      </trkpt>
      <trkpt lat="45.97011" lon="6.07865">
        <ele>849.20001220703</ele>
        <time>2011-10-09T07:51:37.000Z</time>
      </trkpt>
      <trkpt lat="45.97022" lon="6.07876">
        <ele>850</ele>
        <time>2011-10-09T07:51:42.000Z</time>
      </trkpt>
      <trkpt lat="45.97032" lon="6.07886">
        <ele>850.59997558594</ele>
        <time>2011-10-09T07:51:47.000Z</time>
      </trkpt>
      <trkpt lat="45.97036" lon="6.07892">
        <ele>850.79998779297</ele>
        <time>2011-10-09T07:51:51.000Z</time>
      </trkpt>
      <trkpt lat="45.97042" lon="6.079">
        <ele>851.20001220703</ele>
        <time>2011-10-09T07:51:56.000Z</time>
      </trkpt>
      <trkpt lat="45.97051" lon="6.07917">
        <ele>851.59997558594</ele>
        <time>2011-10-09T07:52:01.000Z</time>
      </trkpt>
      <trkpt lat="45.97056" lon="6.07925">
        <ele>851.59997558594</ele>
        <time>2011-10-09T07:52:03.000Z</time>
      </trkpt>
      <trkpt lat="45.97055" lon="6.07927">
        <ele>851.20001220703</ele>
        <time>2011-10-09T07:52:04.000Z</time>
      </trkpt>
      <trkpt lat="45.97056" lon="6.0793">
        <ele>851</ele>
        <time>2011-10-09T07:52:05.000Z</time>
      </trkpt>
      <trkpt lat="45.97063" lon="6.07952">
        <ele>850</ele>
        <time>2011-10-09T07:52:12.000Z</time>
      </trkpt>
      <trkpt lat="45.97075" lon="6.0797">
        <ele>850.20001220703</ele>
        <time>2011-10-09T07:52:18.000Z</time>
      </trkpt>
      <trkpt lat="45.97083" lon="6.07982">
        <ele>850.40002441406</ele>
        <time>2011-10-09T07:52:23.000Z</time>
      </trkpt>
      <trkpt lat="45.97083" lon="6.07985">
        <ele>850.20001220703</ele>
        <time>2011-10-09T07:52:24.000Z</time>
      </trkpt>
      <trkpt lat="45.97086" lon="6.07988">
        <ele>850.40002441406</ele>
        <time>2011-10-09T07:52:28.000Z</time>
      </trkpt>
      <trkpt lat="45.97086" lon="6.07989">
        <ele>850.20001220703</ele>
        <time>2011-10-09T07:52:29.000Z</time>
      </trkpt>
      <trkpt lat="45.97083" lon="6.07998">
        <ele>849</ele>
        <time>2011-10-09T07:52:33.000Z</time>
      </trkpt>
      <trkpt lat="45.97079" lon="6.08011">
        <ele>846.79998779297</ele>
        <time>2011-10-09T07:52:36.000Z</time>
      </trkpt>
      <trkpt lat="45.97079" lon="6.0802">
        <ele>845.59997558594</ele>
        <time>2011-10-09T07:52:38.000Z</time>
      </trkpt>
      <trkpt lat="45.97079" lon="6.08024">
        <ele>845.20001220703</ele>
        <time>2011-10-09T07:52:42.000Z</time>
      </trkpt>
      <trkpt lat="45.97082" lon="6.08021">
        <ele>845.79998779297</ele>
        <time>2011-10-09T07:52:59.000Z</time>
      </trkpt>
      <trkpt lat="45.97081" lon="6.08022">
        <ele>845.59997558594</ele>
        <time>2011-10-09T07:53:04.000Z</time>
      </trkpt>
      <trkpt lat="45.97079" lon="6.08024">
        <ele>845</ele>
        <time>2011-10-09T07:53:43.000Z</time>
      </trkpt>
      <trkpt lat="45.97081" lon="6.08024">
        <ele>845.40002441406</ele>
        <time>2011-10-09T07:54:13.000Z</time>
      </trkpt>
      <trkpt lat="45.97077" lon="6.08027">
        <ele>844.40002441406</ele>
        <time>2011-10-09T07:54:36.000Z</time>
      </trkpt>
      <trkpt lat="45.97075" lon="6.08032">
        <ele>843.40002441406</ele>
        <time>2011-10-09T07:54:55.000Z</time>
      </trkpt>
      <trkpt lat="45.97077" lon="6.08033">
        <ele>843.59997558594</ele>
        <time>2011-10-09T07:54:59.000Z</time>
      </trkpt>
      <trkpt lat="45.9708" lon="6.08039">
        <ele>843.20001220703</ele>
        <time>2011-10-09T07:55:01.000Z</time>
      </trkpt>
      <trkpt lat="45.97086" lon="6.0805">
        <ele>843</ele>
        <time>2011-10-09T07:55:05.000Z</time>
      </trkpt>
      <trkpt lat="45.97094" lon="6.08062">
        <ele>842.79998779297</ele>
        <time>2011-10-09T07:55:10.000Z</time>
      </trkpt>
      <trkpt lat="45.97097" lon="6.08072">
        <ele>842.20001220703</ele>
        <time>2011-10-09T07:55:14.000Z</time>
      </trkpt>
      <trkpt lat="45.97099" lon="6.08075">
        <ele>842</ele>
        <time>2011-10-09T07:55:15.000Z</time>
      </trkpt>
      <trkpt lat="45.9711" lon="6.08099">
        <ele>841</ele>
        <time>2011-10-09T07:55:22.000Z</time>
      </trkpt>
      <trkpt lat="45.97113" lon="6.08102">
        <ele>841.20001220703</ele>
        <time>2011-10-09T07:55:23.000Z</time>
      </trkpt>
      <trkpt lat="45.97122" lon="6.08118">
        <ele>840.79998779297</ele>
        <time>2011-10-09T07:55:28.000Z</time>
      </trkpt>
      <trkpt lat="45.97134" lon="6.08136">
        <ele>840.79998779297</ele>
        <time>2011-10-09T07:55:35.000Z</time>
      </trkpt>
      <trkpt lat="45.97143" lon="6.08151">
        <ele>840.59997558594</ele>
        <time>2011-10-09T07:55:42.000Z</time>
      </trkpt>
      <trkpt lat="45.97143" lon="6.08153">
        <ele>840.40002441406</ele>
        <time>2011-10-09T07:55:49.000Z</time>
      </trkpt>
      <trkpt lat="45.97141" lon="6.08154">
        <ele>840</ele>
        <time>2011-10-09T07:55:58.000Z</time>
      </trkpt>
      <trkpt lat="45.97118" lon="6.08125">
        <ele>839</ele>
        <time>2011-10-09T07:59:30.000Z</time>
      </trkpt>
      <trkpt lat="45.97115" lon="6.08119">
        <ele>839.20001220703</ele>
        <time>2011-10-09T07:59:33.000Z</time>
      </trkpt>
      <trkpt lat="45.97108" lon="6.08107">
        <ele>839.40002441406</ele>
        <time>2011-10-09T07:59:39.000Z</time>
      </trkpt>
      <trkpt lat="45.97107" lon="6.08103">
        <ele>839.59997558594</ele>
        <time>2011-10-09T07:59:41.000Z</time>
      </trkpt>
      <trkpt lat="45.97103" lon="6.08095">
        <ele>840.20001220703</ele>
        <time>2011-10-09T07:59:44.000Z</time>
      </trkpt>
      <trkpt lat="45.97098" lon="6.0808">
        <ele>841.40002441406</ele>
        <time>2011-10-09T07:59:50.000Z</time>
      </trkpt>
      <trkpt lat="45.97093" lon="6.08065">
        <ele>842.20001220703</ele>
        <time>2011-10-09T07:59:56.000Z</time>
      </trkpt>
      <trkpt lat="45.97088" lon="6.08054">
        <ele>842.79998779297</ele>
        <time>2011-10-09T08:00:01.000Z</time>
      </trkpt>
      <trkpt lat="45.97083" lon="6.08042">
        <ele>843.20001220703</ele>
        <time>2011-10-09T08:00:06.000Z</time>
      </trkpt>
      <trkpt lat="45.9708" lon="6.08025">
        <ele>845</ele>
        <time>2011-10-09T08:00:12.000Z</time>
      </trkpt>
      <trkpt lat="45.97083" lon="6.0801">
        <ele>847.40002441406</ele>
        <time>2011-10-09T08:00:17.000Z</time>
      </trkpt>
      <trkpt lat="45.97086" lon="6.07997">
        <ele>849.59997558594</ele>
        <time>2011-10-09T08:00:23.000Z</time>
      </trkpt>
      <trkpt lat="45.97086" lon="6.07995">
        <ele>849.79998779297</ele>
        <time>2011-10-09T08:00:24.000Z</time>
      </trkpt>
      <trkpt lat="45.9708" lon="6.07988">
        <ele>849.40002441406</ele>
        <time>2011-10-09T08:00:28.000Z</time>
      </trkpt>
      <trkpt lat="45.97071" lon="6.07974">
        <ele>849.20001220703</ele>
        <time>2011-10-09T08:00:35.000Z</time>
      </trkpt>
      <trkpt lat="45.97064" lon="6.07963">
        <ele>849.20001220703</ele>
        <time>2011-10-09T08:00:40.000Z</time>
      </trkpt>
      <trkpt lat="45.97061" lon="6.07945">
        <ele>850.40002441406</ele>
        <time>2011-10-09T08:00:46.000Z</time>
      </trkpt>
      <trkpt lat="45.9706" lon="6.07937">
        <ele>851</ele>
        <time>2011-10-09T08:00:50.000Z</time>
      </trkpt>
      <trkpt lat="45.97059" lon="6.07934">
        <ele>851</ele>
        <time>2011-10-09T08:00:51.000Z</time>
      </trkpt>
      <trkpt lat="45.97055" lon="6.07921">
        <ele>851.79998779297</ele>
        <time>2011-10-09T08:00:55.000Z</time>
      </trkpt>
      <trkpt lat="45.97046" lon="6.0791">
        <ele>851.20001220703</ele>
        <time>2011-10-09T08:01:01.000Z</time>
      </trkpt>
      <trkpt lat="45.97038" lon="6.07899">
        <ele>850.79998779297</ele>
        <time>2011-10-09T08:01:05.000Z</time>
      </trkpt>
      <trkpt lat="45.97026" lon="6.07886">
        <ele>850</ele>
        <time>2011-10-09T08:01:11.000Z</time>
      </trkpt>
      <trkpt lat="45.97014" lon="6.07873">
        <ele>849.20001220703</ele>
        <time>2011-10-09T08:01:17.000Z</time>
      </trkpt>
      <trkpt lat="45.9701" lon="6.07853">
        <ele>849.79998779297</ele>
        <time>2011-10-09T08:01:23.000Z</time>
      </trkpt>
      <trkpt lat="45.97008" lon="6.07828">
        <ele>850.79998779297</ele>
        <time>2011-10-09T08:01:31.000Z</time>
      </trkpt>
      <trkpt lat="45.97005" lon="6.07809">
        <ele>851</ele>
        <time>2011-10-09T08:01:37.000Z</time>
      </trkpt>
      <trkpt lat="45.97002" lon="6.07787">
        <ele>851.20001220703</ele>
        <time>2011-10-09T08:01:43.000Z</time>
      </trkpt>
      <trkpt lat="45.96995" lon="6.07775">
        <ele>851</ele>
        <time>2011-10-09T08:01:47.000Z</time>
      </trkpt>
      <trkpt lat="45.96984" lon="6.07763">
        <ele>850.40002441406</ele>
        <time>2011-10-09T08:01:53.000Z</time>
      </trkpt>
      <trkpt lat="45.9698" lon="6.0776">
        <ele>850.20001220703</ele>
        <time>2011-10-09T08:01:55.000Z</time>
      </trkpt>
      <trkpt lat="45.96976" lon="6.07754">
        <ele>850</ele>
        <time>2011-10-09T08:01:58.000Z</time>
      </trkpt>
      <trkpt lat="45.9697" lon="6.07748">
        <ele>849.79998779297</ele>
        <time>2011-10-09T08:02:02.000Z</time>
      </trkpt>
      <trkpt lat="45.96963" lon="6.07747">
        <ele>849.40002441406</ele>
        <time>2011-10-09T08:02:07.000Z</time>
      </trkpt>
      <trkpt lat="45.96959" lon="6.07748">
        <ele>849</ele>
        <time>2011-10-09T08:02:09.000Z</time>
      </trkpt>
      <trkpt lat="45.96953" lon="6.07749">
        <ele>848.59997558594</ele>
        <time>2011-10-09T08:02:12.000Z</time>
      </trkpt>
      <trkpt lat="45.9695" lon="6.07748">
        <ele>848.40002441406</ele>
        <time>2011-10-09T08:02:13.000Z</time>
      </trkpt>
      <trkpt lat="45.96937" lon="6.07744">
        <ele>847.40002441406</ele>
        <time>2011-10-09T08:02:20.000Z</time>
      </trkpt>
      <trkpt lat="45.96926" lon="6.07735">
        <ele>847</ele>
        <time>2011-10-09T08:02:25.000Z</time>
      </trkpt>
      <trkpt lat="45.96912" lon="6.07729">
        <ele>845.79998779297</ele>
        <time>2011-10-09T08:02:32.000Z</time>
      </trkpt>
      <trkpt lat="45.96904" lon="6.07718">
        <ele>845</ele>
        <time>2011-10-09T08:02:38.000Z</time>
      </trkpt>
      <trkpt lat="45.96902" lon="6.07715">
        <ele>844.79998779297</ele>
        <time>2011-10-09T08:02:40.000Z</time>
      </trkpt>
      <trkpt lat="45.96896" lon="6.07713">
        <ele>844.20001220703</ele>
        <time>2011-10-09T08:02:43.000Z</time>
      </trkpt>
      <trkpt lat="45.96885" lon="6.07708">
        <ele>842.79998779297</ele>
        <time>2011-10-09T08:02:49.000Z</time>
      </trkpt>
      <trkpt lat="45.9688" lon="6.07714">
        <ele>842</ele>
        <time>2011-10-09T08:02:53.000Z</time>
      </trkpt>
      <trkpt lat="45.96871" lon="6.07722">
        <ele>840.59997558594</ele>
        <time>2011-10-09T08:02:59.000Z</time>
      </trkpt>
      <trkpt lat="45.96854" lon="6.07714">
        <ele>838.59997558594</ele>
        <time>2011-10-09T08:03:06.000Z</time>
      </trkpt>
      <trkpt lat="45.96842" lon="6.07695">
        <ele>837.20001220703</ele>
        <time>2011-10-09T08:03:13.000Z</time>
      </trkpt>
      <trkpt lat="45.96837" lon="6.0768">
        <ele>836.40002441406</ele>
        <time>2011-10-09T08:03:18.000Z</time>
      </trkpt>
      <trkpt lat="45.96835" lon="6.07674">
        <ele>836</ele>
        <time>2011-10-09T08:03:21.000Z</time>
      </trkpt>
      <trkpt lat="45.9683" lon="6.07672">
        <ele>835.59997558594</ele>
        <time>2011-10-09T08:03:23.000Z</time>
      </trkpt>
      <trkpt lat="45.96817" lon="6.07668">
        <ele>834.20001220703</ele>
        <time>2011-10-09T08:03:28.000Z</time>
      </trkpt>
      <trkpt lat="45.96812" lon="6.07668">
        <ele>833.59997558594</ele>
        <time>2011-10-09T08:03:31.000Z</time>
      </trkpt>
      <trkpt lat="45.96809" lon="6.07667">
        <ele>833.20001220703</ele>
        <time>2011-10-09T08:03:33.000Z</time>
      </trkpt>
      <trkpt lat="45.96795" lon="6.07664">
        <ele>831.79998779297</ele>
        <time>2011-10-09T08:03:39.000Z</time>
      </trkpt>
      <trkpt lat="45.96794" lon="6.07661">
        <ele>831.79998779297</ele>
        <time>2011-10-09T08:03:40.000Z</time>
      </trkpt>
      <trkpt lat="45.96789" lon="6.07653">
        <ele>831.40002441406</ele>
        <time>2011-10-09T08:03:44.000Z</time>
      </trkpt>
      <trkpt lat="45.9678" lon="6.07646">
        <ele>830.59997558594</ele>
        <time>2011-10-09T08:03:49.000Z</time>
      </trkpt>
      <trkpt lat="45.96771" lon="6.07645">
        <ele>829.59997558594</ele>
        <time>2011-10-09T08:03:53.000Z</time>
      </trkpt>
      <trkpt lat="45.96768" lon="6.07645">
        <ele>829.20001220703</ele>
        <time>2011-10-09T08:03:54.000Z</time>
      </trkpt>
      <trkpt lat="45.96747" lon="6.07642">
        <ele>827</ele>
        <time>2011-10-09T08:04:00.000Z</time>
      </trkpt>
      <trkpt lat="45.96741" lon="6.07638">
        <ele>826.40002441406</ele>
        <time>2011-10-09T08:04:04.000Z</time>
      </trkpt>
      <trkpt lat="45.96728" lon="6.07633">
        <ele>825.20001220703</ele>
        <time>2011-10-09T08:04:09.000Z</time>
      </trkpt>
      <trkpt lat="45.96723" lon="6.07632">
        <ele>824.79998779297</ele>
        <time>2011-10-09T08:04:11.000Z</time>
      </trkpt>
      <trkpt lat="45.96715" lon="6.07631">
        <ele>824</ele>
        <time>2011-10-09T08:04:14.000Z</time>
      </trkpt>
      <trkpt lat="45.96715" lon="6.07628">
        <ele>824</ele>
        <time>2011-10-09T08:04:15.000Z</time>
      </trkpt>
      <trkpt lat="45.96713" lon="6.07616">
        <ele>824</ele>
        <time>2011-10-09T08:04:18.000Z</time>
      </trkpt>
      <trkpt lat="45.96706" lon="6.07602">
        <ele>823.40002441406</ele>
        <time>2011-10-09T08:04:23.000Z</time>
      </trkpt>
      <trkpt lat="45.96701" lon="6.07588">
        <ele>823.20001220703</ele>
        <time>2011-10-09T08:04:28.000Z</time>
      </trkpt>
      <trkpt lat="45.96691" lon="6.07574">
        <ele>822.59997558594</ele>
        <time>2011-10-09T08:04:34.000Z</time>
      </trkpt>
      <trkpt lat="45.96684" lon="6.07568">
        <ele>822.40002441406</ele>
        <time>2011-10-09T08:04:38.000Z</time>
      </trkpt>
      <trkpt lat="45.96669" lon="6.07564">
        <ele>821</ele>
        <time>2011-10-09T08:04:43.000Z</time>
      </trkpt>
      <trkpt lat="45.96655" lon="6.07564">
        <ele>819</ele>
        <time>2011-10-09T08:04:48.000Z</time>
      </trkpt>
      <trkpt lat="45.96638" lon="6.0755">
        <ele>816.79998779297</ele>
        <time>2011-10-09T08:04:55.000Z</time>
      </trkpt>
      <trkpt lat="45.96625" lon="6.07542">
        <ele>814.79998779297</ele>
        <time>2011-10-09T08:05:00.000Z</time>
      </trkpt>
      <trkpt lat="45.96608" lon="6.07542">
        <ele>812</ele>
        <time>2011-10-09T08:05:05.000Z</time>
      </trkpt>
      <trkpt lat="45.96599" lon="6.0754">
        <ele>810.59997558594</ele>
        <time>2011-10-09T08:05:09.000Z</time>
      </trkpt>
      <trkpt lat="45.96597" lon="6.0754">
        <ele>810.20001220703</ele>
        <time>2011-10-09T08:05:10.000Z</time>
      </trkpt>
      <trkpt lat="45.96588" lon="6.07539">
        <ele>808.79998779297</ele>
        <time>2011-10-09T08:05:13.000Z</time>
      </trkpt>
      <trkpt lat="45.96586" lon="6.07539">
        <ele>808.40002441406</ele>
        <time>2011-10-09T08:05:14.000Z</time>
      </trkpt>
      <trkpt lat="45.96576" lon="6.0754">
        <ele>806.20001220703</ele>
        <time>2011-10-09T08:05:19.000Z</time>
      </trkpt>
      <trkpt lat="45.96575" lon="6.0754">
        <ele>805.79998779297</ele>
        <time>2011-10-09T08:05:20.000Z</time>
      </trkpt>
      <trkpt lat="45.96567" lon="6.07538">
        <ele>804</ele>
        <time>2011-10-09T08:05:24.000Z</time>
      </trkpt>
      <trkpt lat="45.96563" lon="6.07537">
        <ele>803</ele>
        <time>2011-10-09T08:05:26.000Z</time>
      </trkpt>
      <trkpt lat="45.96558" lon="6.07534">
        <ele>802</ele>
        <time>2011-10-09T08:05:29.000Z</time>
      </trkpt>
      <trkpt lat="45.96551" lon="6.07533">
        <ele>800.40002441406</ele>
        <time>2011-10-09T08:05:33.000Z</time>
      </trkpt>
      <trkpt lat="45.96549" lon="6.07532">
        <ele>799.79998779297</ele>
        <time>2011-10-09T08:05:34.000Z</time>
      </trkpt>
      <trkpt lat="45.96534" lon="6.07538">
        <ele>796</ele>
        <time>2011-10-09T08:05:40.000Z</time>
      </trkpt>
      <trkpt lat="45.9652" lon="6.07548">
        <ele>791.79998779297</ele>
        <time>2011-10-09T08:05:46.000Z</time>
      </trkpt>
      <trkpt lat="45.96503" lon="6.07555">
        <ele>787</ele>
        <time>2011-10-09T08:05:51.000Z</time>
      </trkpt>
      <trkpt lat="45.96497" lon="6.07553">
        <ele>785.79998779297</ele>
        <time>2011-10-09T08:05:53.000Z</time>
      </trkpt>
      <trkpt lat="45.96493" lon="6.07547">
        <ele>785.79998779297</ele>
        <time>2011-10-09T08:05:55.000Z</time>
      </trkpt>
      <trkpt lat="45.96487" lon="6.07535">
        <ele>786</ele>
        <time>2011-10-09T08:05:59.000Z</time>
      </trkpt>
      <trkpt lat="45.96487" lon="6.07534">
        <ele>786</ele>
        <time>2011-10-09T08:06:00.000Z</time>
      </trkpt>
      <trkpt lat="45.96485" lon="6.07533">
        <ele>785.79998779297</ele>
        <time>2011-10-09T08:06:01.000Z</time>
      </trkpt>
      <trkpt lat="45.9648" lon="6.07524">
        <ele>785.79998779297</ele>
        <time>2011-10-09T08:06:05.000Z</time>
      </trkpt>
      <trkpt lat="45.96476" lon="6.07511">
        <ele>786.40002441406</ele>
        <time>2011-10-09T08:06:09.000Z</time>
      </trkpt>
      <trkpt lat="45.96468" lon="6.07497">
        <ele>786.59997558594</ele>
        <time>2011-10-09T08:06:14.000Z</time>
      </trkpt>
      <trkpt lat="45.96456" lon="6.07492">
        <ele>785.20001220703</ele>
        <time>2011-10-09T08:06:19.000Z</time>
      </trkpt>
      <trkpt lat="45.96446" lon="6.07489">
        <ele>784</ele>
        <time>2011-10-09T08:06:24.000Z</time>
      </trkpt>
      <trkpt lat="45.96446" lon="6.07487">
        <ele>784.20001220703</ele>
        <time>2011-10-09T08:06:28.000Z</time>
      </trkpt>
      <trkpt lat="45.96447" lon="6.07487">
        <ele>784.20001220703</ele>
        <time>2011-10-09T08:06:29.000Z</time>
      </trkpt>
      <trkpt lat="45.96449" lon="6.07487">
        <ele>784.59997558594</ele>
        <time>2011-10-09T08:06:31.000Z</time>
      </trkpt>
      <trkpt lat="45.96449" lon="6.07486">
        <ele>784.59997558594</ele>
        <time>2011-10-09T08:06:32.000Z</time>
      </trkpt>
      <trkpt lat="45.96452" lon="6.07478">
        <ele>785.79998779297</ele>
        <time>2011-10-09T08:06:42.000Z</time>
      </trkpt>
      <trkpt lat="45.96457" lon="6.07463">
        <ele>787.59997558594</ele>
        <time>2011-10-09T08:06:50.000Z</time>
      </trkpt>
      <trkpt lat="45.96462" lon="6.07449">
        <ele>789.40002441406</ele>
        <time>2011-10-09T08:06:56.000Z</time>
      </trkpt>
      <trkpt lat="45.96464" lon="6.07433">
        <ele>791</ele>
        <time>2011-10-09T08:07:02.000Z</time>
      </trkpt>
      <trkpt lat="45.96465" lon="6.07427">
        <ele>791.59997558594</ele>
        <time>2011-10-09T08:07:04.000Z</time>
      </trkpt>
      <trkpt lat="45.96465" lon="6.07421">
        <ele>792.20001220703</ele>
        <time>2011-10-09T08:07:06.000Z</time>
      </trkpt>
      <trkpt lat="45.96467" lon="6.07414">
        <ele>792.79998779297</ele>
        <time>2011-10-09T08:07:09.000Z</time>
      </trkpt>
      <trkpt lat="45.96467" lon="6.07409">
        <ele>792.79998779297</ele>
        <time>2011-10-09T08:07:11.000Z</time>
      </trkpt>
      <trkpt lat="45.96467" lon="6.07404">
        <ele>792.79998779297</ele>
        <time>2011-10-09T08:07:13.000Z</time>
      </trkpt>
      <trkpt lat="45.96469" lon="6.07393">
        <ele>793.40002441406</ele>
        <time>2011-10-09T08:07:16.000Z</time>
      </trkpt>
      <trkpt lat="45.9647" lon="6.0739">
        <ele>793.59997558594</ele>
        <time>2011-10-09T08:07:17.000Z</time>
      </trkpt>
      <trkpt lat="45.96471" lon="6.07379">
        <ele>794</ele>
        <time>2011-10-09T08:07:21.000Z</time>
      </trkpt>
      <trkpt lat="45.96472" lon="6.07371">
        <ele>794.40002441406</ele>
        <time>2011-10-09T08:07:25.000Z</time>
      </trkpt>
      <trkpt lat="45.96474" lon="6.07367">
        <ele>794.59997558594</ele>
        <time>2011-10-09T08:07:27.000Z</time>
      </trkpt>
      <trkpt lat="45.96478" lon="6.0736">
        <ele>795.40002441406</ele>
        <time>2011-10-09T08:07:30.000Z</time>
      </trkpt>
      <trkpt lat="45.96481" lon="6.07352">
        <ele>796</ele>
        <time>2011-10-09T08:07:34.000Z</time>
      </trkpt>
      <trkpt lat="45.96487" lon="6.07339">
        <ele>797.40002441406</ele>
        <time>2011-10-09T08:07:40.000Z</time>
      </trkpt>
      <trkpt lat="45.96489" lon="6.07335">
        <ele>797.79998779297</ele>
        <time>2011-10-09T08:07:42.000Z</time>
      </trkpt>
      <trkpt lat="45.96492" lon="6.07326">
        <ele>798.40002441406</ele>
        <time>2011-10-09T08:07:46.000Z</time>
      </trkpt>
      <trkpt lat="45.96495" lon="6.07318">
        <ele>799.20001220703</ele>
        <time>2011-10-09T08:07:49.000Z</time>
      </trkpt>
      <trkpt lat="45.96497" lon="6.07311">
        <ele>799.59997558594</ele>
        <time>2011-10-09T08:07:52.000Z</time>
      </trkpt>
      <trkpt lat="45.96497" lon="6.07296">
        <ele>799.79998779297</ele>
        <time>2011-10-09T08:07:57.000Z</time>
      </trkpt>
      <trkpt lat="45.96498" lon="6.07285">
        <ele>800.20001220703</ele>
        <time>2011-10-09T08:08:00.000Z</time>
      </trkpt>
      <trkpt lat="45.96501" lon="6.07275">
        <ele>800.79998779297</ele>
        <time>2011-10-09T08:08:03.000Z</time>
      </trkpt>
      <trkpt lat="45.96502" lon="6.07272">
        <ele>800.79998779297</ele>
        <time>2011-10-09T08:08:04.000Z</time>
      </trkpt>
      <trkpt lat="45.96506" lon="6.07259">
        <ele>801.40002441406</ele>
        <time>2011-10-09T08:08:08.000Z</time>
      </trkpt>
      <trkpt lat="45.96507" lon="6.07257">
        <ele>801.59997558594</ele>
        <time>2011-10-09T08:08:09.000Z</time>
      </trkpt>
      <trkpt lat="45.96509" lon="6.07255">
        <ele>801.79998779297</ele>
        <time>2011-10-09T08:08:11.000Z</time>
      </trkpt>
      <trkpt lat="45.96512" lon="6.07254">
        <ele>802.20001220703</ele>
        <time>2011-10-09T08:08:13.000Z</time>
      </trkpt>
      <trkpt lat="45.96521" lon="6.07249">
        <ele>803.20001220703</ele>
        <time>2011-10-09T08:08:18.000Z</time>
      </trkpt>
      <trkpt lat="45.96526" lon="6.0724">
        <ele>803.40002441406</ele>
        <time>2011-10-09T08:08:23.000Z</time>
      </trkpt>
      <trkpt lat="45.96532" lon="6.07232">
        <ele>803.79998779297</ele>
        <time>2011-10-09T08:08:28.000Z</time>
      </trkpt>
      <trkpt lat="45.96534" lon="6.07231">
        <ele>804</ele>
        <time>2011-10-09T08:08:29.000Z</time>
      </trkpt>
      <trkpt lat="45.96543" lon="6.07225">
        <ele>804.79998779297</ele>
        <time>2011-10-09T08:08:33.000Z</time>
      </trkpt>
      <trkpt lat="45.96551" lon="6.07219">
        <ele>805.59997558594</ele>
        <time>2011-10-09T08:08:38.000Z</time>
      </trkpt>
      <trkpt lat="45.96553" lon="6.07217">
        <ele>805.59997558594</ele>
        <time>2011-10-09T08:08:39.000Z</time>
      </trkpt>
      <trkpt lat="45.96564" lon="6.07206">
        <ele>806.59997558594</ele>
        <time>2011-10-09T08:08:45.000Z</time>
      </trkpt>
      <trkpt lat="45.96574" lon="6.0719">
        <ele>807.40002441406</ele>
        <time>2011-10-09T08:08:51.000Z</time>
      </trkpt>
      <trkpt lat="45.96583" lon="6.0718">
        <ele>808.20001220703</ele>
        <time>2011-10-09T08:08:56.000Z</time>
      </trkpt>
      <trkpt lat="45.96593" lon="6.07169">
        <ele>809</ele>
        <time>2011-10-09T08:09:02.000Z</time>
      </trkpt>
      <trkpt lat="45.96594" lon="6.07168">
        <ele>809.20001220703</ele>
        <time>2011-10-09T08:09:03.000Z</time>
      </trkpt>
      <trkpt lat="45.966" lon="6.07166">
        <ele>809.59997558594</ele>
        <time>2011-10-09T08:09:06.000Z</time>
      </trkpt>
      <trkpt lat="45.96609" lon="6.07154">
        <ele>810.40002441406</ele>
        <time>2011-10-09T08:09:12.000Z</time>
      </trkpt>
      <trkpt lat="45.96612" lon="6.07152">
        <ele>810.59997558594</ele>
        <time>2011-10-09T08:09:14.000Z</time>
      </trkpt>
      <trkpt lat="45.96616" lon="6.07146">
        <ele>811</ele>
        <time>2011-10-09T08:09:16.000Z</time>
      </trkpt>
      <trkpt lat="45.96619" lon="6.07139">
        <ele>811.20001220703</ele>
        <time>2011-10-09T08:09:18.000Z</time>
      </trkpt>
      <trkpt lat="45.96623" lon="6.07131">
        <ele>811.40002441406</ele>
        <time>2011-10-09T08:09:21.000Z</time>
      </trkpt>
      <trkpt lat="45.96623" lon="6.0712">
        <ele>811.20001220703</ele>
        <time>2011-10-09T08:09:25.000Z</time>
      </trkpt>
      <trkpt lat="45.9663" lon="6.07108">
        <ele>811.40002441406</ele>
        <time>2011-10-09T08:09:30.000Z</time>
      </trkpt>
      <trkpt lat="45.96638" lon="6.07094">
        <ele>811.79998779297</ele>
        <time>2011-10-09T08:09:36.000Z</time>
      </trkpt>
      <trkpt lat="45.96651" lon="6.07088">
        <ele>812.79998779297</ele>
        <time>2011-10-09T08:09:41.000Z</time>
      </trkpt>
      <trkpt lat="45.96661" lon="6.07081">
        <ele>813.40002441406</ele>
        <time>2011-10-09T08:09:46.000Z</time>
      </trkpt>
      <trkpt lat="45.96668" lon="6.07066">
        <ele>813.79998779297</ele>
        <time>2011-10-09T08:09:52.000Z</time>
      </trkpt>
      <trkpt lat="45.96673" lon="6.07046">
        <ele>814.20001220703</ele>
        <time>2011-10-09T08:09:58.000Z</time>
      </trkpt>
      <trkpt lat="45.96679" lon="6.07031">
        <ele>814.59997558594</ele>
        <time>2011-10-09T08:10:03.000Z</time>
      </trkpt>
      <trkpt lat="45.96683" lon="6.07017">
        <ele>814.79998779297</ele>
        <time>2011-10-09T08:10:08.000Z</time>
      </trkpt>
      <trkpt lat="45.96685" lon="6.07012">
        <ele>814.79998779297</ele>
        <time>2011-10-09T08:10:10.000Z</time>
      </trkpt>
      <trkpt lat="45.9669" lon="6.07003">
        <ele>815.20001220703</ele>
        <time>2011-10-09T08:10:13.000Z</time>
      </trkpt>
      <trkpt lat="45.96695" lon="6.0699">
        <ele>815.20001220703</ele>
        <time>2011-10-09T08:10:18.000Z</time>
      </trkpt>
      <trkpt lat="45.96697" lon="6.06984">
        <ele>815.20001220703</ele>
        <time>2011-10-09T08:10:20.000Z</time>
      </trkpt>
      <trkpt lat="45.96697" lon="6.06979">
        <ele>815</ele>
        <time>2011-10-09T08:10:22.000Z</time>
      </trkpt>
      <trkpt lat="45.96703" lon="6.06963">
        <ele>814.79998779297</ele>
        <time>2011-10-09T08:10:28.000Z</time>
      </trkpt>
      <trkpt lat="45.96708" lon="6.06951">
        <ele>814.59997558594</ele>
        <time>2011-10-09T08:10:33.000Z</time>
      </trkpt>
      <trkpt lat="45.96716" lon="6.06932">
        <ele>814</ele>
        <time>2011-10-09T08:10:38.000Z</time>
      </trkpt>
      <trkpt lat="45.96719" lon="6.06913">
        <ele>813.40002441406</ele>
        <time>2011-10-09T08:10:43.000Z</time>
      </trkpt>
      <trkpt lat="45.96723" lon="6.06891">
        <ele>812.79998779297</ele>
        <time>2011-10-09T08:10:49.000Z</time>
      </trkpt>
      <trkpt lat="45.96727" lon="6.06878">
        <ele>812.79998779297</ele>
        <time>2011-10-09T08:10:54.000Z</time>
      </trkpt>
      <trkpt lat="45.96734" lon="6.06863">
        <ele>812.59997558594</ele>
        <time>2011-10-09T08:11:00.000Z</time>
      </trkpt>
      <trkpt lat="45.96739" lon="6.06849">
        <ele>812.59997558594</ele>
        <time>2011-10-09T08:11:05.000Z</time>
      </trkpt>
      <trkpt lat="45.96746" lon="6.06834">
        <ele>812.79998779297</ele>
        <time>2011-10-09T08:11:10.000Z</time>
      </trkpt>
      <trkpt lat="45.96753" lon="6.06824">
        <ele>812.40002441406</ele>
        <time>2011-10-09T08:11:15.000Z</time>
      </trkpt>
      <trkpt lat="45.96754" lon="6.06818">
        <ele>812</ele>
        <time>2011-10-09T08:11:17.000Z</time>
      </trkpt>
      <trkpt lat="45.96756" lon="6.0681">
        <ele>811.59997558594</ele>
        <time>2011-10-09T08:11:20.000Z</time>
      </trkpt>
      <trkpt lat="45.96755" lon="6.06808">
        <ele>811.40002441406</ele>
        <time>2011-10-09T08:11:21.000Z</time>
      </trkpt>
      <trkpt lat="45.96756" lon="6.06803">
        <ele>811.20001220703</ele>
        <time>2011-10-09T08:11:23.000Z</time>
      </trkpt>
      <trkpt lat="45.96756" lon="6.06793">
        <ele>810.40002441406</ele>
        <time>2011-10-09T08:11:26.000Z</time>
      </trkpt>
      <trkpt lat="45.96755" lon="6.0679">
        <ele>810.20001220703</ele>
        <time>2011-10-09T08:11:27.000Z</time>
      </trkpt>
      <trkpt lat="45.96754" lon="6.06782">
        <ele>809.40002441406</ele>
        <time>2011-10-09T08:11:30.000Z</time>
      </trkpt>
      <trkpt lat="45.96753" lon="6.06778">
        <ele>809.20001220703</ele>
        <time>2011-10-09T08:11:31.000Z</time>
      </trkpt>
      <trkpt lat="45.9675" lon="6.06771">
        <ele>808.40002441406</ele>
        <time>2011-10-09T08:11:34.000Z</time>
      </trkpt>
      <trkpt lat="45.96745" lon="6.06765">
        <ele>807.59997558594</ele>
        <time>2011-10-09T08:11:37.000Z</time>
      </trkpt>
      <trkpt lat="45.96738" lon="6.06752">
        <ele>806.20001220703</ele>
        <time>2011-10-09T08:11:42.000Z</time>
      </trkpt>
      <trkpt lat="45.96732" lon="6.06744">
        <ele>805</ele>
        <time>2011-10-09T08:11:45.000Z</time>
      </trkpt>
      <trkpt lat="45.9673" lon="6.06742">
        <ele>804.59997558594</ele>
        <time>2011-10-09T08:11:46.000Z</time>
      </trkpt>
      <trkpt lat="45.96723" lon="6.06732">
        <ele>803</ele>
        <time>2011-10-09T08:11:51.000Z</time>
      </trkpt>
      <trkpt lat="45.9672" lon="6.06725">
        <ele>802</ele>
        <time>2011-10-09T08:11:54.000Z</time>
      </trkpt>
      <trkpt lat="45.96719" lon="6.0672">
        <ele>801.59997558594</ele>
        <time>2011-10-09T08:11:55.000Z</time>
      </trkpt>
      <trkpt lat="45.96721" lon="6.06712">
        <ele>800.79998779297</ele>
        <time>2011-10-09T08:11:57.000Z</time>
      </trkpt>
      <trkpt lat="45.96725" lon="6.067">
        <ele>799.79998779297</ele>
        <time>2011-10-09T08:12:01.000Z</time>
      </trkpt>
      <trkpt lat="45.9673" lon="6.06685">
        <ele>798.59997558594</ele>
        <time>2011-10-09T08:12:06.000Z</time>
      </trkpt>
      <trkpt lat="45.96732" lon="6.06682">
        <ele>798.40002441406</ele>
        <time>2011-10-09T08:12:07.000Z</time>
      </trkpt>
      <trkpt lat="45.96733" lon="6.06679">
        <ele>798.20001220703</ele>
        <time>2011-10-09T08:12:08.000Z</time>
      </trkpt>
      <trkpt lat="45.96735" lon="6.06662">
        <ele>796.79998779297</ele>
        <time>2011-10-09T08:12:12.000Z</time>
      </trkpt>
      <trkpt lat="45.96735" lon="6.06647">
        <ele>796.20001220703</ele>
        <time>2011-10-09T08:12:17.000Z</time>
      </trkpt>
      <trkpt lat="45.96735" lon="6.06638">
        <ele>795.79998779297</ele>
        <time>2011-10-09T08:12:20.000Z</time>
      </trkpt>
      <trkpt lat="45.96736" lon="6.06629">
        <ele>795.40002441406</ele>
        <time>2011-10-09T08:12:23.000Z</time>
      </trkpt>
      <trkpt lat="45.96735" lon="6.06624">
        <ele>795.20001220703</ele>
        <time>2011-10-09T08:12:28.000Z</time>
      </trkpt>
      <trkpt lat="45.96733" lon="6.06626">
        <ele>795.20001220703</ele>
        <time>2011-10-09T08:12:32.000Z</time>
      </trkpt>
      <trkpt lat="45.96692" lon="6.06637">
        <ele>792.59997558594</ele>
        <time>2011-10-09T08:13:27.000Z</time>
      </trkpt>
      <trkpt lat="45.96687" lon="6.06639">
        <ele>792.40002441406</ele>
        <time>2011-10-09T08:13:31.000Z</time>
      </trkpt>
      <trkpt lat="45.96685" lon="6.06639">
        <ele>792.20001220703</ele>
        <time>2011-10-09T08:13:32.000Z</time>
      </trkpt>
      <trkpt lat="45.96675" lon="6.06644">
        <ele>791.79998779297</ele>
        <time>2011-10-09T08:13:37.000Z</time>
      </trkpt>
      <trkpt lat="45.96674" lon="6.06644">
        <ele>791.79998779297</ele>
        <time>2011-10-09T08:13:38.000Z</time>
      </trkpt>
      <trkpt lat="45.96673" lon="6.06645">
        <ele>791.79998779297</ele>
        <time>2011-10-09T08:13:44.000Z</time>
      </trkpt>
      <trkpt lat="45.9667" lon="6.06644">
        <ele>791.40002441406</ele>
        <time>2011-10-09T08:13:53.000Z</time>
      </trkpt>
      <trkpt lat="45.96682" lon="6.06639">
        <ele>792</ele>
        <time>2011-10-09T08:14:09.000Z</time>
      </trkpt>
      <trkpt lat="45.9668" lon="6.06639">
        <ele>791.79998779297</ele>
        <time>2011-10-09T08:14:14.000Z</time>
      </trkpt>
      <trkpt lat="45.96667" lon="6.06643">
        <ele>791.20001220703</ele>
        <time>2011-10-09T08:15:13.000Z</time>
      </trkpt>
      <trkpt lat="45.96671" lon="6.06648">
        <ele>791.79998779297</ele>
        <time>2011-10-09T08:15:52.000Z</time>
      </trkpt>
      <trkpt lat="45.9667" lon="6.06647">
        <ele>791.79998779297</ele>
        <time>2011-10-09T08:15:58.000Z</time>
      </trkpt>
      <trkpt lat="45.9667" lon="6.06648">
        <ele>791.79998779297</ele>
        <time>2011-10-09T08:16:11.000Z</time>
      </trkpt>
      <trkpt lat="45.96669" lon="6.06654">
        <ele>792</ele>
        <time>2011-10-09T08:16:36.000Z</time>
      </trkpt>
      <trkpt lat="45.96673" lon="6.06649">
        <ele>792</ele>
        <time>2011-10-09T08:17:10.000Z</time>
      </trkpt>
      <trkpt lat="45.96673" lon="6.06648">
        <ele>792</ele>
        <time>2011-10-09T08:17:16.000Z</time>
      </trkpt>
      <trkpt lat="45.96674" lon="6.06648">
        <ele>792</ele>
        <time>2011-10-09T08:17:19.000Z</time>
      </trkpt>
      <trkpt lat="45.96676" lon="6.06639">
        <ele>791.59997558594</ele>
        <time>2011-10-09T08:21:29.000Z</time>
      </trkpt>
      <trkpt lat="45.96675" lon="6.06639">
        <ele>791.59997558594</ele>
        <time>2011-10-09T08:21:32.000Z</time>
      </trkpt>
      <trkpt lat="45.96675" lon="6.0664">
        <ele>791.59997558594</ele>
        <time>2011-10-09T08:21:33.000Z</time>
      </trkpt>
      <trkpt lat="45.96669" lon="6.06645">
        <ele>791.40002441406</ele>
        <time>2011-10-09T08:21:36.000Z</time>
      </trkpt>
      <trkpt lat="45.96665" lon="6.06646">
        <ele>791.20001220703</ele>
        <time>2011-10-09T08:21:38.000Z</time>
      </trkpt>
      <trkpt lat="45.96657" lon="6.06651">
        <ele>790.40002441406</ele>
        <time>2011-10-09T08:21:41.000Z</time>
      </trkpt>
      <trkpt lat="45.96653" lon="6.06652">
        <ele>790</ele>
        <time>2011-10-09T08:21:43.000Z</time>
      </trkpt>
      <trkpt lat="45.96651" lon="6.06653">
        <ele>789.79998779297</ele>
        <time>2011-10-09T08:21:44.000Z</time>
      </trkpt>
      <trkpt lat="45.96649" lon="6.06654">
        <ele>789.59997558594</ele>
        <time>2011-10-09T08:21:46.000Z</time>
      </trkpt>
      <trkpt lat="45.96645" lon="6.06655">
        <ele>789</ele>
        <time>2011-10-09T08:21:48.000Z</time>
      </trkpt>
      <trkpt lat="45.96637" lon="6.06657">
        <ele>788</ele>
        <time>2011-10-09T08:21:52.000Z</time>
      </trkpt>
      <trkpt lat="45.96636" lon="6.06657">
        <ele>787.79998779297</ele>
        <time>2011-10-09T08:21:53.000Z</time>
      </trkpt>
      <trkpt lat="45.96628" lon="6.06657">
        <ele>786.59997558594</ele>
        <time>2011-10-09T08:21:56.000Z</time>
      </trkpt>
      <trkpt lat="45.96617" lon="6.06656">
        <ele>785.20001220703</ele>
        <time>2011-10-09T08:22:00.000Z</time>
      </trkpt>
      <trkpt lat="45.96602" lon="6.06656">
        <ele>783</ele>
        <time>2011-10-09T08:22:05.000Z</time>
      </trkpt>
      <trkpt lat="45.9659" lon="6.06664">
        <ele>781.59997558594</ele>
        <time>2011-10-09T08:22:10.000Z</time>
      </trkpt>
      <trkpt lat="45.96579" lon="6.06668">
        <ele>780.79998779297</ele>
        <time>2011-10-09T08:22:15.000Z</time>
      </trkpt>
      <trkpt lat="45.96564" lon="6.06675">
        <ele>780.40002441406</ele>
        <time>2011-10-09T08:22:20.000Z</time>
      </trkpt>
      <trkpt lat="45.9655" lon="6.06682">
        <ele>780.20001220703</ele>
        <time>2011-10-09T08:22:26.000Z</time>
      </trkpt>
      <trkpt lat="45.96537" lon="6.0669">
        <ele>780</ele>
        <time>2011-10-09T08:22:32.000Z</time>
      </trkpt>
      <trkpt lat="45.96526" lon="6.06696">
        <ele>779.59997558594</ele>
        <time>2011-10-09T08:22:37.000Z</time>
      </trkpt>
      <trkpt lat="45.96524" lon="6.06698">
        <ele>779.59997558594</ele>
        <time>2011-10-09T08:22:38.000Z</time>
      </trkpt>
      <trkpt lat="45.96518" lon="6.0671">
        <ele>779.79998779297</ele>
        <time>2011-10-09T08:22:43.000Z</time>
      </trkpt>
      <trkpt lat="45.96512" lon="6.06721">
        <ele>780.20001220703</ele>
        <time>2011-10-09T08:22:49.000Z</time>
      </trkpt>
      <trkpt lat="45.96513" lon="6.06718">
        <ele>780</ele>
        <time>2011-10-09T08:23:04.000Z</time>
      </trkpt>
      <trkpt lat="45.96513" lon="6.06713">
        <ele>779.79998779297</ele>
        <time>2011-10-09T08:23:07.000Z</time>
      </trkpt>
      <trkpt lat="45.96514" lon="6.06707">
        <ele>779.40002441406</ele>
        <time>2011-10-09T08:23:10.000Z</time>
      </trkpt>
      <trkpt lat="45.96517" lon="6.06702">
        <ele>779.40002441406</ele>
        <time>2011-10-09T08:23:13.000Z</time>
      </trkpt>
      <trkpt lat="45.96521" lon="6.06694">
        <ele>779</ele>
        <time>2011-10-09T08:23:17.000Z</time>
      </trkpt>
      <trkpt lat="45.96523" lon="6.06692">
        <ele>779</ele>
        <time>2011-10-09T08:23:18.000Z</time>
      </trkpt>
      <trkpt lat="45.96533" lon="6.06686">
        <ele>779.40002441406</ele>
        <time>2011-10-09T08:23:23.000Z</time>
      </trkpt>
      <trkpt lat="45.96543" lon="6.06678">
        <ele>779.40002441406</ele>
        <time>2011-10-09T08:23:29.000Z</time>
      </trkpt>
      <trkpt lat="45.9655" lon="6.0667">
        <ele>779.20001220703</ele>
        <time>2011-10-09T08:23:34.000Z</time>
      </trkpt>
      <trkpt lat="45.96548" lon="6.06656">
        <ele>778.40002441406</ele>
        <time>2011-10-09T08:23:39.000Z</time>
      </trkpt>
      <trkpt lat="45.96549" lon="6.0664">
        <ele>777.59997558594</ele>
        <time>2011-10-09T08:23:44.000Z</time>
      </trkpt>
      <trkpt lat="45.96555" lon="6.06618">
        <ele>776.79998779297</ele>
        <time>2011-10-09T08:23:51.000Z</time>
      </trkpt>
      <trkpt lat="45.96557" lon="6.06603">
        <ele>776.20001220703</ele>
        <time>2011-10-09T08:23:55.000Z</time>
      </trkpt>
      <trkpt lat="45.96558" lon="6.06597">
        <ele>776</ele>
        <time>2011-10-09T08:23:56.000Z</time>
      </trkpt>
      <trkpt lat="45.96563" lon="6.06579">
        <ele>774.79998779297</ele>
        <time>2011-10-09T08:24:01.000Z</time>
      </trkpt>
      <trkpt lat="45.96564" lon="6.06561">
        <ele>772.79998779297</ele>
        <time>2011-10-09T08:24:05.000Z</time>
      </trkpt>
      <trkpt lat="45.96561" lon="6.06546">
        <ele>770.79998779297</ele>
        <time>2011-10-09T08:24:10.000Z</time>
      </trkpt>
      <trkpt lat="45.96561" lon="6.0654">
        <ele>770</ele>
        <time>2011-10-09T08:24:15.000Z</time>
      </trkpt>
      <trkpt lat="45.9656" lon="6.06538">
        <ele>769.79998779297</ele>
        <time>2011-10-09T08:24:16.000Z</time>
      </trkpt>
      <trkpt lat="45.96555" lon="6.06526">
        <ele>768.20001220703</ele>
        <time>2011-10-09T08:24:22.000Z</time>
      </trkpt>
      <trkpt lat="45.96554" lon="6.06513">
        <ele>766.79998779297</ele>
        <time>2011-10-09T08:24:25.000Z</time>
      </trkpt>
      <trkpt lat="45.96555" lon="6.06511">
        <ele>766.59997558594</ele>
        <time>2011-10-09T08:24:26.000Z</time>
      </trkpt>
      <trkpt lat="45.96561" lon="6.06495">
        <ele>764.40002441406</ele>
        <time>2011-10-09T08:24:32.000Z</time>
      </trkpt>
      <trkpt lat="45.96562" lon="6.06492">
        <ele>764</ele>
        <time>2011-10-09T08:24:33.000Z</time>
      </trkpt>
      <trkpt lat="45.96561" lon="6.06485">
        <ele>763</ele>
        <time>2011-10-09T08:24:36.000Z</time>
      </trkpt>
      <trkpt lat="45.96562" lon="6.06473">
        <ele>761.20001220703</ele>
        <time>2011-10-09T08:24:41.000Z</time>
      </trkpt>
      <trkpt lat="45.96562" lon="6.06471">
        <ele>760.79998779297</ele>
        <time>2011-10-09T08:24:42.000Z</time>
      </trkpt>
      <trkpt lat="45.96565" lon="6.06459">
        <ele>759.20001220703</ele>
        <time>2011-10-09T08:24:47.000Z</time>
      </trkpt>
      <trkpt lat="45.96566" lon="6.06455">
        <ele>758.59997558594</ele>
        <time>2011-10-09T08:24:48.000Z</time>
      </trkpt>
      <trkpt lat="45.96569" lon="6.0644">
        <ele>756.40002441406</ele>
        <time>2011-10-09T08:24:53.000Z</time>
      </trkpt>
      <trkpt lat="45.96571" lon="6.06428">
        <ele>754.59997558594</ele>
        <time>2011-10-09T08:24:57.000Z</time>
      </trkpt>
      <trkpt lat="45.96574" lon="6.0642">
        <ele>753.40002441406</ele>
        <time>2011-10-09T08:25:00.000Z</time>
      </trkpt>
      <trkpt lat="45.9658" lon="6.06411">
        <ele>752</ele>
        <time>2011-10-09T08:25:04.000Z</time>
      </trkpt>
      <trkpt lat="45.96585" lon="6.064">
        <ele>750.20001220703</ele>
        <time>2011-10-09T08:25:08.000Z</time>
      </trkpt>
      <trkpt lat="45.96588" lon="6.06394">
        <ele>749.20001220703</ele>
        <time>2011-10-09T08:25:10.000Z</time>
      </trkpt>
      <trkpt lat="45.96593" lon="6.06385">
        <ele>747.79998779297</ele>
        <time>2011-10-09T08:25:13.000Z</time>
      </trkpt>
      <trkpt lat="45.96596" lon="6.06372">
        <ele>745.59997558594</ele>
        <time>2011-10-09T08:25:19.000Z</time>
      </trkpt>
      <trkpt lat="45.96599" lon="6.06363">
        <ele>744</ele>
        <time>2011-10-09T08:25:24.000Z</time>
      </trkpt>
      <trkpt lat="45.966" lon="6.06361">
        <ele>743.59997558594</ele>
        <time>2011-10-09T08:25:25.000Z</time>
      </trkpt>
      <trkpt lat="45.96601" lon="6.06357">
        <ele>742.79998779297</ele>
        <time>2011-10-09T08:25:28.000Z</time>
      </trkpt>
      <trkpt lat="45.96601" lon="6.06356">
        <ele>742.59997558594</ele>
        <time>2011-10-09T08:25:29.000Z</time>
      </trkpt>
      <trkpt lat="45.96601" lon="6.06354">
        <ele>742.20001220703</ele>
        <time>2011-10-09T08:25:30.000Z</time>
      </trkpt>
      <trkpt lat="45.96602" lon="6.06351">
        <ele>741.59997558594</ele>
        <time>2011-10-09T08:25:33.000Z</time>
      </trkpt>
      <trkpt lat="45.96605" lon="6.0634">
        <ele>739.40002441406</ele>
        <time>2011-10-09T08:25:38.000Z</time>
      </trkpt>
      <trkpt lat="45.96606" lon="6.06339">
        <ele>739.20001220703</ele>
        <time>2011-10-09T08:25:39.000Z</time>
      </trkpt>
      <trkpt lat="45.96608" lon="6.0633">
        <ele>737.40002441406</ele>
        <time>2011-10-09T08:25:43.000Z</time>
      </trkpt>
      <trkpt lat="45.96609" lon="6.06321">
        <ele>735.40002441406</ele>
        <time>2011-10-09T08:25:49.000Z</time>
      </trkpt>
      <trkpt lat="45.96609" lon="6.06308">
        <ele>732.79998779297</ele>
        <time>2011-10-09T08:25:55.000Z</time>
      </trkpt>
      <trkpt lat="45.96607" lon="6.06293">
        <ele>729.79998779297</ele>
        <time>2011-10-09T08:26:01.000Z</time>
      </trkpt>
      <trkpt lat="45.96606" lon="6.06286">
        <ele>728.40002441406</ele>
        <time>2011-10-09T08:26:04.000Z</time>
      </trkpt>
      <trkpt lat="45.96607" lon="6.06285">
        <ele>728.20001220703</ele>
        <time>2011-10-09T08:26:05.000Z</time>
      </trkpt>
      <trkpt lat="45.96606" lon="6.06272">
        <ele>725.59997558594</ele>
        <time>2011-10-09T08:26:11.000Z</time>
      </trkpt>
      <trkpt lat="45.96612" lon="6.0626">
        <ele>722.59997558594</ele>
        <time>2011-10-09T08:26:15.000Z</time>
      </trkpt>
      <trkpt lat="45.96613" lon="6.06257">
        <ele>722</ele>
        <time>2011-10-09T08:26:16.000Z</time>
      </trkpt>
      <trkpt lat="45.96617" lon="6.06251">
        <ele>720.20001220703</ele>
        <time>2011-10-09T08:26:20.000Z</time>
      </trkpt>
      <trkpt lat="45.96619" lon="6.06244">
        <ele>718.79998779297</ele>
        <time>2011-10-09T08:26:25.000Z</time>
      </trkpt>
      <trkpt lat="45.96621" lon="6.06233">
        <ele>716.40002441406</ele>
        <time>2011-10-09T08:26:31.000Z</time>
      </trkpt>
      <trkpt lat="45.96626" lon="6.06222">
        <ele>713.79998779297</ele>
        <time>2011-10-09T08:26:36.000Z</time>
      </trkpt>
      <trkpt lat="45.96627" lon="6.06211">
        <ele>711.79998779297</ele>
        <time>2011-10-09T08:26:41.000Z</time>
      </trkpt>
      <trkpt lat="45.96631" lon="6.06203">
        <ele>709.59997558594</ele>
        <time>2011-10-09T08:26:45.000Z</time>
      </trkpt>
      <trkpt lat="45.96632" lon="6.06201">
        <ele>709.20001220703</ele>
        <time>2011-10-09T08:26:46.000Z</time>
      </trkpt>
      <trkpt lat="45.96635" lon="6.06195">
        <ele>707.79998779297</ele>
        <time>2011-10-09T08:26:48.000Z</time>
      </trkpt>
      <trkpt lat="45.96639" lon="6.0619">
        <ele>706.20001220703</ele>
        <time>2011-10-09T08:26:51.000Z</time>
      </trkpt>
      <trkpt lat="45.96641" lon="6.06187">
        <ele>705.40002441406</ele>
        <time>2011-10-09T08:26:53.000Z</time>
      </trkpt>
      <trkpt lat="45.96643" lon="6.06183">
        <ele>704.40002441406</ele>
        <time>2011-10-09T08:26:55.000Z</time>
      </trkpt>
      <trkpt lat="45.96641" lon="6.06172">
        <ele>702.40002441406</ele>
        <time>2011-10-09T08:26:59.000Z</time>
      </trkpt>
      <trkpt lat="45.96639" lon="6.0616">
        <ele>700.40002441406</ele>
        <time>2011-10-09T08:27:03.000Z</time>
      </trkpt>
      <trkpt lat="45.96638" lon="6.06157">
        <ele>699.79998779297</ele>
        <time>2011-10-09T08:27:05.000Z</time>
      </trkpt>
      <trkpt lat="45.96636" lon="6.06151">
        <ele>699</ele>
        <time>2011-10-09T08:27:08.000Z</time>
      </trkpt>
      <trkpt lat="45.96637" lon="6.06145">
        <ele>697.59997558594</ele>
        <time>2011-10-09T08:27:12.000Z</time>
      </trkpt>
      <trkpt lat="45.96636" lon="6.06135">
        <ele>695.79998779297</ele>
        <time>2011-10-09T08:27:15.000Z</time>
      </trkpt>
      <trkpt lat="45.96637" lon="6.06129">
        <ele>694.59997558594</ele>
        <time>2011-10-09T08:27:19.000Z</time>
      </trkpt>
      <trkpt lat="45.96635" lon="6.06121">
        <ele>693.59997558594</ele>
        <time>2011-10-09T08:27:33.000Z</time>
      </trkpt>
      <trkpt lat="45.96634" lon="6.06118">
        <ele>693</ele>
        <time>2011-10-09T08:27:34.000Z</time>
      </trkpt>
      <trkpt lat="45.96628" lon="6.06107">
        <ele>691.79998779297</ele>
        <time>2011-10-09T08:27:39.000Z</time>
      </trkpt>
      <trkpt lat="45.96627" lon="6.06096">
        <ele>690</ele>
        <time>2011-10-09T08:27:44.000Z</time>
      </trkpt>
      <trkpt lat="45.96623" lon="6.06085">
        <ele>688.59997558594</ele>
        <time>2011-10-09T08:27:48.000Z</time>
      </trkpt>
      <trkpt lat="45.96622" lon="6.06083">
        <ele>688.20001220703</ele>
        <time>2011-10-09T08:27:49.000Z</time>
      </trkpt>
      <trkpt lat="45.96619" lon="6.06073">
        <ele>687.20001220703</ele>
        <time>2011-10-09T08:27:53.000Z</time>
      </trkpt>
      <trkpt lat="45.96621" lon="6.06075">
        <ele>687.40002441406</ele>
        <time>2011-10-09T08:28:17.000Z</time>
      </trkpt>
      <trkpt lat="45.96621" lon="6.0608">
        <ele>688</ele>
        <time>2011-10-09T08:28:26.000Z</time>
      </trkpt>
      <trkpt lat="45.96625" lon="6.06083">
        <ele>687.79998779297</ele>
        <time>2011-10-09T08:28:43.000Z</time>
      </trkpt>
      <trkpt lat="45.96623" lon="6.06081">
        <ele>687.79998779297</ele>
        <time>2011-10-09T08:28:46.000Z</time>
      </trkpt>
      <trkpt lat="45.9662" lon="6.0608">
        <ele>688.20001220703</ele>
        <time>2011-10-09T08:28:50.000Z</time>
      </trkpt>
      <trkpt lat="45.96611" lon="6.06079">
        <ele>689.40002441406</ele>
        <time>2011-10-09T08:29:05.000Z</time>
      </trkpt>
      <trkpt lat="45.96602" lon="6.06077">
        <ele>690.40002441406</ele>
        <time>2011-10-09T08:29:10.000Z</time>
      </trkpt>
      <trkpt lat="45.96592" lon="6.0607">
        <ele>691</ele>
        <time>2011-10-09T08:29:16.000Z</time>
      </trkpt>
      <trkpt lat="45.96584" lon="6.06062">
        <ele>691.20001220703</ele>
        <time>2011-10-09T08:29:21.000Z</time>
      </trkpt>
      <trkpt lat="45.96578" lon="6.06053">
        <ele>691.40002441406</ele>
        <time>2011-10-09T08:29:26.000Z</time>
      </trkpt>
      <trkpt lat="45.96569" lon="6.06041">
        <ele>691.40002441406</ele>
        <time>2011-10-09T08:29:32.000Z</time>
      </trkpt>
      <trkpt lat="45.96568" lon="6.06036">
        <ele>691</ele>
        <time>2011-10-09T08:29:34.000Z</time>
      </trkpt>
      <trkpt lat="45.96566" lon="6.06028">
        <ele>690.40002441406</ele>
        <time>2011-10-09T08:29:37.000Z</time>
      </trkpt>
      <trkpt lat="45.96564" lon="6.06019">
        <ele>689.79998779297</ele>
        <time>2011-10-09T08:29:40.000Z</time>
      </trkpt>
      <trkpt lat="45.96561" lon="6.0601">
        <ele>689.40002441406</ele>
        <time>2011-10-09T08:29:43.000Z</time>
      </trkpt>
      <trkpt lat="45.96554" lon="6.06">
        <ele>689.59997558594</ele>
        <time>2011-10-09T08:29:48.000Z</time>
      </trkpt>
      <trkpt lat="45.96548" lon="6.0599">
        <ele>690.20001220703</ele>
        <time>2011-10-09T08:29:53.000Z</time>
      </trkpt>
      <trkpt lat="45.96542" lon="6.05977">
        <ele>690.59997558594</ele>
        <time>2011-10-09T08:29:58.000Z</time>
      </trkpt>
      <trkpt lat="45.96536" lon="6.05963">
        <ele>691</ele>
        <time>2011-10-09T08:30:04.000Z</time>
      </trkpt>
      <trkpt lat="45.96534" lon="6.05943">
        <ele>690.20001220703</ele>
        <time>2011-10-09T08:30:10.000Z</time>
      </trkpt>
      <trkpt lat="45.96536" lon="6.05936">
        <ele>689.40002441406</ele>
        <time>2011-10-09T08:30:13.000Z</time>
      </trkpt>
      <trkpt lat="45.96536" lon="6.05927">
        <ele>689</ele>
        <time>2011-10-09T08:30:16.000Z</time>
      </trkpt>
      <trkpt lat="45.96534" lon="6.0591">
        <ele>688.20001220703</ele>
        <time>2011-10-09T08:30:21.000Z</time>
      </trkpt>
      <trkpt lat="45.96528" lon="6.05901">
        <ele>688.40002441406</ele>
        <time>2011-10-09T08:30:25.000Z</time>
      </trkpt>
      <trkpt lat="45.96527" lon="6.05899">
        <ele>688.40002441406</ele>
        <time>2011-10-09T08:30:26.000Z</time>
      </trkpt>
      <trkpt lat="45.96519" lon="6.05891">
        <ele>689.40002441406</ele>
        <time>2011-10-09T08:30:32.000Z</time>
      </trkpt>
      <trkpt lat="45.96515" lon="6.0589">
        <ele>690.20001220703</ele>
        <time>2011-10-09T08:30:35.000Z</time>
      </trkpt>
      <trkpt lat="45.9651" lon="6.05889">
        <ele>690.79998779297</ele>
        <time>2011-10-09T08:30:38.000Z</time>
      </trkpt>
      <trkpt lat="45.96498" lon="6.05888">
        <ele>693</ele>
        <time>2011-10-09T08:30:44.000Z</time>
      </trkpt>
      <trkpt lat="45.96489" lon="6.05889">
        <ele>693.79998779297</ele>
        <time>2011-10-09T08:30:49.000Z</time>
      </trkpt>
      <trkpt lat="45.96483" lon="6.0589">
        <ele>694.40002441406</ele>
        <time>2011-10-09T08:30:52.000Z</time>
      </trkpt>
      <trkpt lat="45.96475" lon="6.05891">
        <ele>695</ele>
        <time>2011-10-09T08:30:55.000Z</time>
      </trkpt>
      <trkpt lat="45.96473" lon="6.05892">
        <ele>695.40002441406</ele>
        <time>2011-10-09T08:30:56.000Z</time>
      </trkpt>
      <trkpt lat="45.96463" lon="6.05892">
        <ele>696</ele>
        <time>2011-10-09T08:31:01.000Z</time>
      </trkpt>
      <trkpt lat="45.96455" lon="6.05893">
        <ele>696.79998779297</ele>
        <time>2011-10-09T08:31:05.000Z</time>
      </trkpt>
      <trkpt lat="45.96453" lon="6.05893">
        <ele>697</ele>
        <time>2011-10-09T08:31:06.000Z</time>
      </trkpt>
      <trkpt lat="45.96441" lon="6.059">
        <ele>698.59997558594</ele>
        <time>2011-10-09T08:31:12.000Z</time>
      </trkpt>
      <trkpt lat="45.96439" lon="6.05902">
        <ele>698.79998779297</ele>
        <time>2011-10-09T08:31:13.000Z</time>
      </trkpt>
      <trkpt lat="45.96435" lon="6.05907">
        <ele>699.59997558594</ele>
        <time>2011-10-09T08:31:16.000Z</time>
      </trkpt>
      <trkpt lat="45.96433" lon="6.05913">
        <ele>700.20001220703</ele>
        <time>2011-10-09T08:31:18.000Z</time>
      </trkpt>
      <trkpt lat="45.96431" lon="6.05917">
        <ele>700.79998779297</ele>
        <time>2011-10-09T08:31:20.000Z</time>
      </trkpt>
      <trkpt lat="45.96429" lon="6.05927">
        <ele>701.79998779297</ele>
        <time>2011-10-09T08:31:24.000Z</time>
      </trkpt>
      <trkpt lat="45.9643" lon="6.0593">
        <ele>702</ele>
        <time>2011-10-09T08:31:27.000Z</time>
      </trkpt>
      <trkpt lat="45.9643" lon="6.05933">
        <ele>702.20001220703</ele>
        <time>2011-10-09T08:31:30.000Z</time>
      </trkpt>
      <trkpt lat="45.9643" lon="6.05935">
        <ele>702.40002441406</ele>
        <time>2011-10-09T08:31:31.000Z</time>
      </trkpt>
      <trkpt lat="45.96428" lon="6.05936">
        <ele>702.59997558594</ele>
        <time>2011-10-09T08:31:35.000Z</time>
      </trkpt>
      <trkpt lat="45.96422" lon="6.05935">
        <ele>703.20001220703</ele>
        <time>2011-10-09T08:32:09.000Z</time>
      </trkpt>
      <trkpt lat="45.9642" lon="6.05934">
        <ele>703.20001220703</ele>
        <time>2011-10-09T08:32:20.000Z</time>
      </trkpt>
      <trkpt lat="45.96416" lon="6.05934">
        <ele>703.59997558594</ele>
        <time>2011-10-09T08:32:37.000Z</time>
      </trkpt>
      <trkpt lat="45.96416" lon="6.05933">
        <ele>703.59997558594</ele>
        <time>2011-10-09T08:32:38.000Z</time>
      </trkpt>
      <trkpt lat="45.96415" lon="6.05934">
        <ele>703.79998779297</ele>
        <time>2011-10-09T08:32:40.000Z</time>
      </trkpt>
      <trkpt lat="45.96413" lon="6.05934">
        <ele>704</ele>
        <time>2011-10-09T08:32:41.000Z</time>
      </trkpt>
      <trkpt lat="45.96403" lon="6.05938">
        <ele>705.40002441406</ele>
        <time>2011-10-09T08:32:45.000Z</time>
      </trkpt>
      <trkpt lat="45.96388" lon="6.05943">
        <ele>707.40002441406</ele>
        <time>2011-10-09T08:32:51.000Z</time>
      </trkpt>
      <trkpt lat="45.96379" lon="6.05943">
        <ele>708.20001220703</ele>
        <time>2011-10-09T08:32:55.000Z</time>
      </trkpt>
      <trkpt lat="45.96377" lon="6.05941">
        <ele>708.20001220703</ele>
        <time>2011-10-09T08:32:56.000Z</time>
      </trkpt>
      <trkpt lat="45.96368" lon="6.05931">
        <ele>708.40002441406</ele>
        <time>2011-10-09T08:33:00.000Z</time>
      </trkpt>
      <trkpt lat="45.96366" lon="6.05928">
        <ele>708.20001220703</ele>
        <time>2011-10-09T08:33:01.000Z</time>
      </trkpt>
      <trkpt lat="45.96361" lon="6.05915">
        <ele>707.79998779297</ele>
        <time>2011-10-09T08:33:05.000Z</time>
      </trkpt>
      <trkpt lat="45.96355" lon="6.059">
        <ele>707.59997558594</ele>
        <time>2011-10-09T08:33:10.000Z</time>
      </trkpt>
      <trkpt lat="45.96347" lon="6.05883">
        <ele>707.59997558594</ele>
        <time>2011-10-09T08:33:15.000Z</time>
      </trkpt>
      <trkpt lat="45.96341" lon="6.05869">
        <ele>707.59997558594</ele>
        <time>2011-10-09T08:33:20.000Z</time>
      </trkpt>
      <trkpt lat="45.96335" lon="6.05855">
        <ele>707.59997558594</ele>
        <time>2011-10-09T08:33:25.000Z</time>
      </trkpt>
      <trkpt lat="45.96331" lon="6.05838">
        <ele>707.59997558594</ele>
        <time>2011-10-09T08:33:30.000Z</time>
      </trkpt>
      <trkpt lat="45.96327" lon="6.05816">
        <ele>706.79998779297</ele>
        <time>2011-10-09T08:33:36.000Z</time>
      </trkpt>
      <trkpt lat="45.96327" lon="6.05797">
        <ele>705.59997558594</ele>
        <time>2011-10-09T08:33:41.000Z</time>
      </trkpt>
      <trkpt lat="45.96326" lon="6.05794">
        <ele>705.59997558594</ele>
        <time>2011-10-09T08:33:42.000Z</time>
      </trkpt>
      <trkpt lat="45.96323" lon="6.05785">
        <ele>705.40002441406</ele>
        <time>2011-10-09T08:33:45.000Z</time>
      </trkpt>
      <trkpt lat="45.96318" lon="6.05776">
        <ele>705.79998779297</ele>
        <time>2011-10-09T08:33:48.000Z</time>
      </trkpt>
      <trkpt lat="45.96315" lon="6.05771">
        <ele>706</ele>
        <time>2011-10-09T08:33:50.000Z</time>
      </trkpt>
      <trkpt lat="45.96312" lon="6.05758">
        <ele>705.79998779297</ele>
        <time>2011-10-09T08:33:54.000Z</time>
      </trkpt>
      <trkpt lat="45.9631" lon="6.05755">
        <ele>706</ele>
        <time>2011-10-09T08:33:55.000Z</time>
      </trkpt>
      <trkpt lat="45.96305" lon="6.05748">
        <ele>706.40002441406</ele>
        <time>2011-10-09T08:33:58.000Z</time>
      </trkpt>
      <trkpt lat="45.96301" lon="6.05739">
        <ele>706.59997558594</ele>
        <time>2011-10-09T08:34:01.000Z</time>
      </trkpt>
      <trkpt lat="45.96293" lon="6.05723">
        <ele>706.59997558594</ele>
        <time>2011-10-09T08:34:07.000Z</time>
      </trkpt>
      <trkpt lat="45.96289" lon="6.05709">
        <ele>706.20001220703</ele>
        <time>2011-10-09T08:34:12.000Z</time>
      </trkpt>
      <trkpt lat="45.96284" lon="6.05698">
        <ele>706.40002441406</ele>
        <time>2011-10-09T08:34:17.000Z</time>
      </trkpt>
      <trkpt lat="45.96279" lon="6.05696">
        <ele>707.20001220703</ele>
        <time>2011-10-09T08:34:19.000Z</time>
      </trkpt>
      <trkpt lat="45.96274" lon="6.0569">
        <ele>707.79998779297</ele>
        <time>2011-10-09T08:34:22.000Z</time>
      </trkpt>
      <trkpt lat="45.96266" lon="6.05675">
        <ele>708.40002441406</ele>
        <time>2011-10-09T08:34:28.000Z</time>
      </trkpt>
      <trkpt lat="45.96264" lon="6.05674">
        <ele>708.59997558594</ele>
        <time>2011-10-09T08:34:29.000Z</time>
      </trkpt>
      <trkpt lat="45.96258" lon="6.05664">
        <ele>709</ele>
        <time>2011-10-09T08:34:33.000Z</time>
      </trkpt>
      <trkpt lat="45.96249" lon="6.05648">
        <ele>709.40002441406</ele>
        <time>2011-10-09T08:34:39.000Z</time>
      </trkpt>
      <trkpt lat="45.96245" lon="6.05631">
        <ele>708.79998779297</ele>
        <time>2011-10-09T08:34:44.000Z</time>
      </trkpt>
      <trkpt lat="45.96241" lon="6.05615">
        <ele>708.40002441406</ele>
        <time>2011-10-09T08:34:49.000Z</time>
      </trkpt>
      <trkpt lat="45.96231" lon="6.05603">
        <ele>709.40002441406</ele>
        <time>2011-10-09T08:34:54.000Z</time>
      </trkpt>
      <trkpt lat="45.96221" lon="6.05589">
        <ele>710.40002441406</ele>
        <time>2011-10-09T08:35:00.000Z</time>
      </trkpt>
      <trkpt lat="45.9622" lon="6.05586">
        <ele>710.40002441406</ele>
        <time>2011-10-09T08:35:05.000Z</time>
      </trkpt>
      <trkpt lat="45.96227" lon="6.05584">
        <ele>708.59997558594</ele>
        <time>2011-10-09T08:36:34.000Z</time>
      </trkpt>
      <trkpt lat="45.96222" lon="6.0558">
        <ele>709</ele>
        <time>2011-10-09T08:36:49.000Z</time>
      </trkpt>
      <trkpt lat="45.96219" lon="6.05573">
        <ele>708.59997558594</ele>
        <time>2011-10-09T08:36:55.000Z</time>
      </trkpt>
      <trkpt lat="45.96214" lon="6.05556">
        <ele>707</ele>
        <time>2011-10-09T08:37:00.000Z</time>
      </trkpt>
      <trkpt lat="45.96209" lon="6.05532">
        <ele>704</ele>
        <time>2011-10-09T08:37:06.000Z</time>
      </trkpt>
      <trkpt lat="45.96204" lon="6.05507">
        <ele>700.59997558594</ele>
        <time>2011-10-09T08:37:12.000Z</time>
      </trkpt>
      <trkpt lat="45.96203" lon="6.05481">
        <ele>698.20001220703</ele>
        <time>2011-10-09T08:37:18.000Z</time>
      </trkpt>
      <trkpt lat="45.96202" lon="6.05478">
        <ele>698.20001220703</ele>
        <time>2011-10-09T08:37:19.000Z</time>
      </trkpt>
      <trkpt lat="45.96196" lon="6.0547">
        <ele>698.20001220703</ele>
        <time>2011-10-09T08:37:22.000Z</time>
      </trkpt>
      <trkpt lat="45.96188" lon="6.05463">
        <ele>699</ele>
        <time>2011-10-09T08:37:25.000Z</time>
      </trkpt>
      <trkpt lat="45.96183" lon="6.0546">
        <ele>699.59997558594</ele>
        <time>2011-10-09T08:37:27.000Z</time>
      </trkpt>
      <trkpt lat="45.96171" lon="6.05448">
        <ele>700.40002441406</ele>
        <time>2011-10-09T08:37:33.000Z</time>
      </trkpt>
      <trkpt lat="45.96161" lon="6.05439">
        <ele>701</ele>
        <time>2011-10-09T08:37:37.000Z</time>
      </trkpt>
      <trkpt lat="45.96152" lon="6.05432">
        <ele>701.20001220703</ele>
        <time>2011-10-09T08:37:42.000Z</time>
      </trkpt>
      <trkpt lat="45.96153" lon="6.0543">
        <ele>701</ele>
        <time>2011-10-09T08:37:49.000Z</time>
      </trkpt>
      <trkpt lat="45.96155" lon="6.05433">
        <ele>701</ele>
        <time>2011-10-09T08:37:55.000Z</time>
      </trkpt>
      <trkpt lat="45.9616" lon="6.05435">
        <ele>700.79998779297</ele>
        <time>2011-10-09T08:37:58.000Z</time>
      </trkpt>
      <trkpt lat="45.96159" lon="6.05435">
        <ele>700.79998779297</ele>
        <time>2011-10-09T08:38:03.000Z</time>
      </trkpt>
      <trkpt lat="45.96154" lon="6.05435">
        <ele>701.20001220703</ele>
        <time>2011-10-09T08:38:10.000Z</time>
      </trkpt>
      <trkpt lat="45.96143" lon="6.0543">
        <ele>701.79998779297</ele>
        <time>2011-10-09T08:38:15.000Z</time>
      </trkpt>
      <trkpt lat="45.96133" lon="6.05427">
        <ele>702.59997558594</ele>
        <time>2011-10-09T08:38:20.000Z</time>
      </trkpt>
      <trkpt lat="45.96131" lon="6.05425">
        <ele>702.59997558594</ele>
        <time>2011-10-09T08:38:21.000Z</time>
      </trkpt>
      <trkpt lat="45.96128" lon="6.05414">
        <ele>702.59997558594</ele>
        <time>2011-10-09T08:38:24.000Z</time>
      </trkpt>
      <trkpt lat="45.9613" lon="6.05399">
        <ele>703.40002441406</ele>
        <time>2011-10-09T08:38:28.000Z</time>
      </trkpt>
      <trkpt lat="45.96132" lon="6.05391">
        <ele>703.40002441406</ele>
        <time>2011-10-09T08:38:30.000Z</time>
      </trkpt>
      <trkpt lat="45.96138" lon="6.05382">
        <ele>703</ele>
        <time>2011-10-09T08:38:33.000Z</time>
      </trkpt>
      <trkpt lat="45.96139" lon="6.05379">
        <ele>703</ele>
        <time>2011-10-09T08:38:35.000Z</time>
      </trkpt>
      <trkpt lat="45.96138" lon="6.05375">
        <ele>703.40002441406</ele>
        <time>2011-10-09T08:38:37.000Z</time>
      </trkpt>
      <trkpt lat="45.96137" lon="6.05358">
        <ele>704.20001220703</ele>
        <time>2011-10-09T08:38:42.000Z</time>
      </trkpt>
      <trkpt lat="45.96136" lon="6.0535">
        <ele>704.79998779297</ele>
        <time>2011-10-09T08:38:45.000Z</time>
      </trkpt>
      <trkpt lat="45.96135" lon="6.05347">
        <ele>705</ele>
        <time>2011-10-09T08:38:47.000Z</time>
      </trkpt>
      <trkpt lat="45.96138" lon="6.05344">
        <ele>704.59997558594</ele>
        <time>2011-10-09T08:38:54.000Z</time>
      </trkpt>
      <trkpt lat="45.96141" lon="6.05346">
        <ele>704</ele>
        <time>2011-10-09T08:38:56.000Z</time>
      </trkpt>
      <trkpt lat="45.96145" lon="6.05342">
        <ele>703.40002441406</ele>
        <time>2011-10-09T08:38:58.000Z</time>
      </trkpt>
      <trkpt lat="45.96155" lon="6.05335">
        <ele>701.79998779297</ele>
        <time>2011-10-09T08:39:03.000Z</time>
      </trkpt>
      <trkpt lat="45.96165" lon="6.05328">
        <ele>700.40002441406</ele>
        <time>2011-10-09T08:39:07.000Z</time>
      </trkpt>
      <trkpt lat="45.96169" lon="6.05318">
        <ele>699.79998779297</ele>
        <time>2011-10-09T08:39:10.000Z</time>
      </trkpt>
      <trkpt lat="45.9617" lon="6.05313">
        <ele>700</ele>
        <time>2011-10-09T08:39:12.000Z</time>
      </trkpt>
      <trkpt lat="45.9617" lon="6.05298">
        <ele>700.40002441406</ele>
        <time>2011-10-09T08:39:19.000Z</time>
      </trkpt>
      <trkpt lat="45.9617" lon="6.05292">
        <ele>700.79998779297</ele>
        <time>2011-10-09T08:39:22.000Z</time>
      </trkpt>
      <trkpt lat="45.9617" lon="6.05284">
        <ele>700.79998779297</ele>
        <time>2011-10-09T08:39:25.000Z</time>
      </trkpt>
      <trkpt lat="45.96169" lon="6.05273">
        <ele>701.40002441406</ele>
        <time>2011-10-09T08:39:30.000Z</time>
      </trkpt>
      <trkpt lat="45.96166" lon="6.05259">
        <ele>702.79998779297</ele>
        <time>2011-10-09T08:39:36.000Z</time>
      </trkpt>
      <trkpt lat="45.96163" lon="6.05248">
        <ele>703.79998779297</ele>
        <time>2011-10-09T08:39:42.000Z</time>
      </trkpt>
      <trkpt lat="45.9616" lon="6.05236">
        <ele>705</ele>
        <time>2011-10-09T08:39:48.000Z</time>
      </trkpt>
      <trkpt lat="45.96161" lon="6.05224">
        <ele>705</ele>
        <time>2011-10-09T08:39:53.000Z</time>
      </trkpt>
      <trkpt lat="45.96163" lon="6.05224">
        <ele>704.40002441406</ele>
        <time>2011-10-09T08:40:10.000Z</time>
      </trkpt>
      <trkpt lat="45.9616" lon="6.05226">
        <ele>705</ele>
        <time>2011-10-09T08:40:13.000Z</time>
      </trkpt>
      <trkpt lat="45.96161" lon="6.05229">
        <ele>704.59997558594</ele>
        <time>2011-10-09T08:40:19.000Z</time>
      </trkpt>
      <trkpt lat="45.96161" lon="6.05227">
        <ele>704.79998779297</ele>
        <time>2011-10-09T08:40:22.000Z</time>
      </trkpt>
      <trkpt lat="45.96164" lon="6.05227">
        <ele>704</ele>
        <time>2011-10-09T08:40:24.000Z</time>
      </trkpt>
      <trkpt lat="45.96163" lon="6.05227">
        <ele>704.20001220703</ele>
        <time>2011-10-09T08:40:28.000Z</time>
      </trkpt>
      <trkpt lat="45.96162" lon="6.05227">
        <ele>704.40002441406</ele>
        <time>2011-10-09T08:40:29.000Z</time>
      </trkpt>
      <trkpt lat="45.9616" lon="6.05228">
        <ele>705</ele>
        <time>2011-10-09T08:40:34.000Z</time>
      </trkpt>
      <trkpt lat="45.96158" lon="6.0522">
        <ele>705.79998779297</ele>
        <time>2011-10-09T08:40:37.000Z</time>
      </trkpt>
      <trkpt lat="45.96157" lon="6.05203">
        <ele>706.40002441406</ele>
        <time>2011-10-09T08:40:41.000Z</time>
      </trkpt>
      <trkpt lat="45.96156" lon="6.05188">
        <ele>707.40002441406</ele>
        <time>2011-10-09T08:40:46.000Z</time>
      </trkpt>
      <trkpt lat="45.96156" lon="6.05173">
        <ele>708</ele>
        <time>2011-10-09T08:40:50.000Z</time>
      </trkpt>
      <trkpt lat="45.96153" lon="6.05154">
        <ele>708.40002441406</ele>
        <time>2011-10-09T08:40:55.000Z</time>
      </trkpt>
      <trkpt lat="45.96149" lon="6.05137">
        <ele>708.79998779297</ele>
        <time>2011-10-09T08:41:00.000Z</time>
      </trkpt>
      <trkpt lat="45.96146" lon="6.05131">
        <ele>709.59997558594</ele>
        <time>2011-10-09T08:41:03.000Z</time>
      </trkpt>
      <trkpt lat="45.96142" lon="6.05128">
        <ele>711.20001220703</ele>
        <time>2011-10-09T08:41:05.000Z</time>
      </trkpt>
      <trkpt lat="45.96138" lon="6.05118">
        <ele>712.59997558594</ele>
        <time>2011-10-09T08:41:09.000Z</time>
      </trkpt>
      <trkpt lat="45.96134" lon="6.05117">
        <ele>714</ele>
        <time>2011-10-09T08:41:11.000Z</time>
      </trkpt>
      <trkpt lat="45.96131" lon="6.05112">
        <ele>715.40002441406</ele>
        <time>2011-10-09T08:41:14.000Z</time>
      </trkpt>
      <trkpt lat="45.96126" lon="6.05105">
        <ele>717.20001220703</ele>
        <time>2011-10-09T08:41:21.000Z</time>
      </trkpt>
      <trkpt lat="45.96124" lon="6.05101">
        <ele>718.20001220703</ele>
        <time>2011-10-09T08:41:26.000Z</time>
      </trkpt>
      <trkpt lat="45.96122" lon="6.05098">
        <ele>719</ele>
        <time>2011-10-09T08:41:32.000Z</time>
      </trkpt>
      <trkpt lat="45.9612" lon="6.05094">
        <ele>719.79998779297</ele>
        <time>2011-10-09T08:41:36.000Z</time>
      </trkpt>
      <trkpt lat="45.96117" lon="6.0509">
        <ele>720.59997558594</ele>
        <time>2011-10-09T08:41:39.000Z</time>
      </trkpt>
      <trkpt lat="45.96116" lon="6.0509">
        <ele>721.20001220703</ele>
        <time>2011-10-09T08:41:40.000Z</time>
      </trkpt>
      <trkpt lat="45.96114" lon="6.05088">
        <ele>722.40002441406</ele>
        <time>2011-10-09T08:41:44.000Z</time>
      </trkpt>
      <trkpt lat="45.96113" lon="6.05086">
        <ele>722.79998779297</ele>
        <time>2011-10-09T08:41:46.000Z</time>
      </trkpt>
      <trkpt lat="45.96109" lon="6.05082">
        <ele>724.20001220703</ele>
        <time>2011-10-09T08:41:52.000Z</time>
      </trkpt>
      <trkpt lat="45.96108" lon="6.05078">
        <ele>724.20001220703</ele>
        <time>2011-10-09T08:41:58.000Z</time>
      </trkpt>
      <trkpt lat="45.96104" lon="6.05074">
        <ele>725.40002441406</ele>
        <time>2011-10-09T08:42:04.000Z</time>
      </trkpt>
      <trkpt lat="45.96104" lon="6.05072">
        <ele>725.40002441406</ele>
        <time>2011-10-09T08:42:05.000Z</time>
      </trkpt>
      <trkpt lat="45.961" lon="6.05064">
        <ele>725.79998779297</ele>
        <time>2011-10-09T08:42:10.000Z</time>
      </trkpt>
      <trkpt lat="45.96093" lon="6.05059">
        <ele>728.20001220703</ele>
        <time>2011-10-09T08:42:18.000Z</time>
      </trkpt>
      <trkpt lat="45.96091" lon="6.05058">
        <ele>729.20001220703</ele>
        <time>2011-10-09T08:42:21.000Z</time>
      </trkpt>
      <trkpt lat="45.9609" lon="6.05057">
        <ele>729.79998779297</ele>
        <time>2011-10-09T08:42:24.000Z</time>
      </trkpt>
      <trkpt lat="45.96088" lon="6.05055">
        <ele>730.40002441406</ele>
        <time>2011-10-09T08:42:32.000Z</time>
      </trkpt>
      <trkpt lat="45.96087" lon="6.05052">
        <ele>730.40002441406</ele>
        <time>2011-10-09T08:42:38.000Z</time>
      </trkpt>
      <trkpt lat="45.96084" lon="6.0505">
        <ele>731.20001220703</ele>
        <time>2011-10-09T08:42:57.000Z</time>
      </trkpt>
      <trkpt lat="45.96084" lon="6.05048">
        <ele>731.20001220703</ele>
        <time>2011-10-09T08:43:01.000Z</time>
      </trkpt>
      <trkpt lat="45.96077" lon="6.05038">
        <ele>732.79998779297</ele>
        <time>2011-10-09T08:43:07.000Z</time>
      </trkpt>
      <trkpt lat="45.96066" lon="6.05023">
        <ele>735.59997558594</ele>
        <time>2011-10-09T08:43:13.000Z</time>
      </trkpt>
      <trkpt lat="45.96058" lon="6.05018">
        <ele>738.59997558594</ele>
        <time>2011-10-09T08:43:18.000Z</time>
      </trkpt>
      <trkpt lat="45.96052" lon="6.05008">
        <ele>740.59997558594</ele>
        <time>2011-10-09T08:43:23.000Z</time>
      </trkpt>
      <trkpt lat="45.96051" lon="6.05005">
        <ele>740.20001220703</ele>
        <time>2011-10-09T08:43:24.000Z</time>
      </trkpt>
      <trkpt lat="45.96051" lon="6.05001">
        <ele>740.20001220703</ele>
        <time>2011-10-09T08:43:28.000Z</time>
      </trkpt>
      <trkpt lat="45.96049" lon="6.04989">
        <ele>739.59997558594</ele>
        <time>2011-10-09T08:43:32.000Z</time>
      </trkpt>
      <trkpt lat="45.9605" lon="6.04975">
        <ele>737.40002441406</ele>
        <time>2011-10-09T08:43:36.000Z</time>
      </trkpt>
      <trkpt lat="45.96052" lon="6.04961">
        <ele>734.59997558594</ele>
        <time>2011-10-09T08:43:41.000Z</time>
      </trkpt>
      <trkpt lat="45.96051" lon="6.04953">
        <ele>734.20001220703</ele>
        <time>2011-10-09T08:43:45.000Z</time>
      </trkpt>
      <trkpt lat="45.96053" lon="6.04942">
        <ele>731.79998779297</ele>
        <time>2011-10-09T08:43:50.000Z</time>
      </trkpt>
      <trkpt lat="45.96053" lon="6.04941">
        <ele>731.59997558594</ele>
        <time>2011-10-09T08:43:51.000Z</time>
      </trkpt>
      <trkpt lat="45.96052" lon="6.04932">
        <ele>731.20001220703</ele>
        <time>2011-10-09T08:43:54.000Z</time>
      </trkpt>
      <trkpt lat="45.96052" lon="6.0493">
        <ele>730.79998779297</ele>
        <time>2011-10-09T08:43:55.000Z</time>
      </trkpt>
      <trkpt lat="45.96054" lon="6.04914">
        <ele>728.20001220703</ele>
        <time>2011-10-09T08:44:00.000Z</time>
      </trkpt>
      <trkpt lat="45.96056" lon="6.04903">
        <ele>725.20001220703</ele>
        <time>2011-10-09T08:44:02.000Z</time>
      </trkpt>
      <trkpt lat="45.96056" lon="6.04891">
        <ele>722.59997558594</ele>
        <time>2011-10-09T08:44:05.000Z</time>
      </trkpt>
      <trkpt lat="45.96053" lon="6.04876">
        <ele>720.59997558594</ele>
        <time>2011-10-09T08:44:09.000Z</time>
      </trkpt>
      <trkpt lat="45.96049" lon="6.04863">
        <ele>719.20001220703</ele>
        <time>2011-10-09T08:44:13.000Z</time>
      </trkpt>
      <trkpt lat="45.96047" lon="6.04858">
        <ele>718.79998779297</ele>
        <time>2011-10-09T08:44:15.000Z</time>
      </trkpt>
      <trkpt lat="45.96043" lon="6.04852">
        <ele>718.59997558594</ele>
        <time>2011-10-09T08:44:18.000Z</time>
      </trkpt>
      <trkpt lat="45.96036" lon="6.04836">
        <ele>716.79998779297</ele>
        <time>2011-10-09T08:44:24.000Z</time>
      </trkpt>
      <trkpt lat="45.96036" lon="6.04829">
        <ele>714.59997558594</ele>
        <time>2011-10-09T08:44:26.000Z</time>
      </trkpt>
      <trkpt lat="45.96032" lon="6.04821">
        <ele>712</ele>
        <time>2011-10-09T08:44:29.000Z</time>
      </trkpt>
      <trkpt lat="45.96025" lon="6.04807">
        <ele>707.20001220703</ele>
        <time>2011-10-09T08:44:35.000Z</time>
      </trkpt>
      <trkpt lat="45.96021" lon="6.04786">
        <ele>698.59997558594</ele>
        <time>2011-10-09T08:44:40.000Z</time>
      </trkpt>
      <trkpt lat="45.96016" lon="6.04779">
        <ele>695.59997558594</ele>
        <time>2011-10-09T08:44:45.000Z</time>
      </trkpt>
      <trkpt lat="45.96015" lon="6.04777">
        <ele>694.79998779297</ele>
        <time>2011-10-09T08:44:46.000Z</time>
      </trkpt>
      <trkpt lat="45.96013" lon="6.04773">
        <ele>693.40002441406</ele>
        <time>2011-10-09T08:44:50.000Z</time>
      </trkpt>
      <trkpt lat="45.9601" lon="6.04771">
        <ele>692.59997558594</ele>
        <time>2011-10-09T08:44:57.000Z</time>
      </trkpt>
      <trkpt lat="45.9601" lon="6.04768">
        <ele>691</ele>
        <time>2011-10-09T08:44:59.000Z</time>
      </trkpt>
      <trkpt lat="45.9601" lon="6.04767">
        <ele>690.59997558594</ele>
        <time>2011-10-09T08:45:00.000Z</time>
      </trkpt>
      <trkpt lat="45.96009" lon="6.04764">
        <ele>689.20001220703</ele>
        <time>2011-10-09T08:45:05.000Z</time>
      </trkpt>
      <trkpt lat="45.9601" lon="6.04763">
        <ele>688.59997558594</ele>
        <time>2011-10-09T08:45:31.000Z</time>
      </trkpt>
      <trkpt lat="45.96011" lon="6.04763">
        <ele>688.79998779297</ele>
        <time>2011-10-09T08:45:38.000Z</time>
      </trkpt>
      <trkpt lat="45.96016" lon="6.04768">
        <ele>690.40002441406</ele>
        <time>2011-10-09T08:46:00.000Z</time>
      </trkpt>
      <trkpt lat="45.96017" lon="6.04774">
        <ele>693</ele>
        <time>2011-10-09T08:46:04.000Z</time>
      </trkpt>
      <trkpt lat="45.96017" lon="6.04775">
        <ele>693.59997558594</ele>
        <time>2011-10-09T08:46:05.000Z</time>
      </trkpt>
      <trkpt lat="45.96018" lon="6.04779">
        <ele>695.40002441406</ele>
        <time>2011-10-09T08:46:08.000Z</time>
      </trkpt>
      <trkpt lat="45.96023" lon="6.04788">
        <ele>698.79998779297</ele>
        <time>2011-10-09T08:46:12.000Z</time>
      </trkpt>
      <trkpt lat="45.96025" lon="6.04791">
        <ele>700</ele>
        <time>2011-10-09T08:46:13.000Z</time>
      </trkpt>
      <trkpt lat="45.96028" lon="6.04801">
        <ele>704</ele>
        <time>2011-10-09T08:46:18.000Z</time>
      </trkpt>
      <trkpt lat="45.96028" lon="6.04803">
        <ele>705</ele>
        <time>2011-10-09T08:46:20.000Z</time>
      </trkpt>
      <trkpt lat="45.96028" lon="6.04805">
        <ele>705.79998779297</ele>
        <time>2011-10-09T08:46:22.000Z</time>
      </trkpt>
      <trkpt lat="45.96029" lon="6.04806">
        <ele>705.79998779297</ele>
        <time>2011-10-09T08:46:23.000Z</time>
      </trkpt>
      <trkpt lat="45.96031" lon="6.04808">
        <ele>706.40002441406</ele>
        <time>2011-10-09T08:46:27.000Z</time>
      </trkpt>
      <trkpt lat="45.96032" lon="6.04809">
        <ele>706.79998779297</ele>
        <time>2011-10-09T08:46:32.000Z</time>
      </trkpt>
      <trkpt lat="45.96033" lon="6.0481">
        <ele>707.20001220703</ele>
        <time>2011-10-09T08:46:38.000Z</time>
      </trkpt>
      <trkpt lat="45.96036" lon="6.04817">
        <ele>709.20001220703</ele>
        <time>2011-10-09T08:47:00.000Z</time>
      </trkpt>
      <trkpt lat="45.9604" lon="6.04822">
        <ele>710.79998779297</ele>
        <time>2011-10-09T08:47:07.000Z</time>
      </trkpt>
      <trkpt lat="45.96038" lon="6.04825">
        <ele>712.40002441406</ele>
        <time>2011-10-09T08:47:18.000Z</time>
      </trkpt>
      <trkpt lat="45.96038" lon="6.04827">
        <ele>713.20001220703</ele>
        <time>2011-10-09T08:47:20.000Z</time>
      </trkpt>
      <trkpt lat="45.9604" lon="6.04833">
        <ele>715</ele>
        <time>2011-10-09T08:47:23.000Z</time>
      </trkpt>
      <trkpt lat="45.96045" lon="6.04843">
        <ele>716.20001220703</ele>
        <time>2011-10-09T08:47:28.000Z</time>
      </trkpt>
      <trkpt lat="45.96046" lon="6.04844">
        <ele>716</ele>
        <time>2011-10-09T08:47:29.000Z</time>
      </trkpt>
      <trkpt lat="45.96053" lon="6.04854">
        <ele>716</ele>
        <time>2011-10-09T08:47:34.000Z</time>
      </trkpt>
      <trkpt lat="45.96055" lon="6.0486">
        <ele>716.79998779297</ele>
        <time>2011-10-09T08:47:36.000Z</time>
      </trkpt>
      <trkpt lat="45.96057" lon="6.04868">
        <ele>717.59997558594</ele>
        <time>2011-10-09T08:47:39.000Z</time>
      </trkpt>
      <trkpt lat="45.9606" lon="6.04882">
        <ele>719.40002441406</ele>
        <time>2011-10-09T08:47:43.000Z</time>
      </trkpt>
      <trkpt lat="45.9606" lon="6.04885">
        <ele>720</ele>
        <time>2011-10-09T08:47:44.000Z</time>
      </trkpt>
      <trkpt lat="45.96059" lon="6.04905">
        <ele>724</ele>
        <time>2011-10-09T08:47:49.000Z</time>
      </trkpt>
      <trkpt lat="45.96056" lon="6.04919">
        <ele>727.79998779297</ele>
        <time>2011-10-09T08:47:54.000Z</time>
      </trkpt>
      <trkpt lat="45.96058" lon="6.04925">
        <ele>728</ele>
        <time>2011-10-09T08:47:57.000Z</time>
      </trkpt>
      <trkpt lat="45.96058" lon="6.04928">
        <ele>728.40002441406</ele>
        <time>2011-10-09T08:47:59.000Z</time>
      </trkpt>
      <trkpt lat="45.96057" lon="6.04937">
        <ele>729.59997558594</ele>
        <time>2011-10-09T08:48:04.000Z</time>
      </trkpt>
      <trkpt lat="45.96057" lon="6.04938">
        <ele>729.79998779297</ele>
        <time>2011-10-09T08:48:05.000Z</time>
      </trkpt>
      <trkpt lat="45.96058" lon="6.0494">
        <ele>729.59997558594</ele>
        <time>2011-10-09T08:48:06.000Z</time>
      </trkpt>
      <trkpt lat="45.9606" lon="6.04944">
        <ele>729.20001220703</ele>
        <time>2011-10-09T08:48:09.000Z</time>
      </trkpt>
      <trkpt lat="45.9606" lon="6.04948">
        <ele>729.40002441406</ele>
        <time>2011-10-09T08:48:11.000Z</time>
      </trkpt>
      <trkpt lat="45.96062" lon="6.0495">
        <ele>729</ele>
        <time>2011-10-09T08:48:13.000Z</time>
      </trkpt>
      <trkpt lat="45.96062" lon="6.04952">
        <ele>729.20001220703</ele>
        <time>2011-10-09T08:48:14.000Z</time>
      </trkpt>
      <trkpt lat="45.96061" lon="6.0496">
        <ele>730.40002441406</ele>
        <time>2011-10-09T08:48:19.000Z</time>
      </trkpt>
      <trkpt lat="45.9606" lon="6.04962">
        <ele>731.20001220703</ele>
        <time>2011-10-09T08:48:20.000Z</time>
      </trkpt>
      <trkpt lat="45.9606" lon="6.04964">
        <ele>731.20001220703</ele>
        <time>2011-10-09T08:48:22.000Z</time>
      </trkpt>
      <trkpt lat="45.96059" lon="6.04971">
        <ele>732.40002441406</ele>
        <time>2011-10-09T08:48:25.000Z</time>
      </trkpt>
      <trkpt lat="45.96056" lon="6.04989">
        <ele>736.40002441406</ele>
        <time>2011-10-09T08:48:31.000Z</time>
      </trkpt>
      <trkpt lat="45.96058" lon="6.04999">
        <ele>736</ele>
        <time>2011-10-09T08:48:35.000Z</time>
      </trkpt>
      <trkpt lat="45.96062" lon="6.05003">
        <ele>734.59997558594</ele>
        <time>2011-10-09T08:48:39.000Z</time>
      </trkpt>
      <trkpt lat="45.96063" lon="6.05004">
        <ele>734.40002441406</ele>
        <time>2011-10-09T08:48:40.000Z</time>
      </trkpt>
      <trkpt lat="45.96063" lon="6.05006">
        <ele>734.59997558594</ele>
        <time>2011-10-09T08:48:41.000Z</time>
      </trkpt>
      <trkpt lat="45.96068" lon="6.0501">
        <ele>733</ele>
        <time>2011-10-09T08:48:45.000Z</time>
      </trkpt>
      <trkpt lat="45.96069" lon="6.05012">
        <ele>732.59997558594</ele>
        <time>2011-10-09T08:48:46.000Z</time>
      </trkpt>
      <trkpt lat="45.96071" lon="6.05013">
        <ele>732</ele>
        <time>2011-10-09T08:48:48.000Z</time>
      </trkpt>
      <trkpt lat="45.96072" lon="6.05014">
        <ele>731.40002441406</ele>
        <time>2011-10-09T08:48:49.000Z</time>
      </trkpt>
      <trkpt lat="45.96077" lon="6.05023">
        <ele>730.40002441406</ele>
        <time>2011-10-09T08:48:53.000Z</time>
      </trkpt>
      <trkpt lat="45.96078" lon="6.05026">
        <ele>730.20001220703</ele>
        <time>2011-10-09T08:48:54.000Z</time>
      </trkpt>
      <trkpt lat="45.9608" lon="6.0503">
        <ele>730.20001220703</ele>
        <time>2011-10-09T08:48:56.000Z</time>
      </trkpt>
      <trkpt lat="45.96083" lon="6.05034">
        <ele>729.20001220703</ele>
        <time>2011-10-09T08:48:59.000Z</time>
      </trkpt>
      <trkpt lat="45.96084" lon="6.05034">
        <ele>729</ele>
        <time>2011-10-09T08:49:00.000Z</time>
      </trkpt>
      <trkpt lat="45.96086" lon="6.05038">
        <ele>728.59997558594</ele>
        <time>2011-10-09T08:49:03.000Z</time>
      </trkpt>
      <trkpt lat="45.96089" lon="6.05043">
        <ele>727.79998779297</ele>
        <time>2011-10-09T08:49:07.000Z</time>
      </trkpt>
      <trkpt lat="45.96091" lon="6.05045">
        <ele>727</ele>
        <time>2011-10-09T08:49:09.000Z</time>
      </trkpt>
      <trkpt lat="45.96092" lon="6.05047">
        <ele>727</ele>
        <time>2011-10-09T08:49:11.000Z</time>
      </trkpt>
      <trkpt lat="45.96093" lon="6.05049">
        <ele>726.79998779297</ele>
        <time>2011-10-09T08:49:14.000Z</time>
      </trkpt>
      <trkpt lat="45.96104" lon="6.05054">
        <ele>722.20001220703</ele>
        <time>2011-10-09T08:50:19.000Z</time>
      </trkpt>
      <trkpt lat="45.96106" lon="6.05059">
        <ele>722.20001220703</ele>
        <time>2011-10-09T08:50:21.000Z</time>
      </trkpt>
      <trkpt lat="45.96108" lon="6.05063">
        <ele>721.79998779297</ele>
        <time>2011-10-09T08:50:23.000Z</time>
      </trkpt>
      <trkpt lat="45.96109" lon="6.05064">
        <ele>721.40002441406</ele>
        <time>2011-10-09T08:50:24.000Z</time>
      </trkpt>
      <trkpt lat="45.96114" lon="6.05069">
        <ele>720</ele>
        <time>2011-10-09T08:50:28.000Z</time>
      </trkpt>
      <trkpt lat="45.96118" lon="6.05081">
        <ele>719.79998779297</ele>
        <time>2011-10-09T08:50:33.000Z</time>
      </trkpt>
      <trkpt lat="45.96122" lon="6.05091">
        <ele>718.59997558594</ele>
        <time>2011-10-09T08:50:38.000Z</time>
      </trkpt>
      <trkpt lat="45.96123" lon="6.05093">
        <ele>718.20001220703</ele>
        <time>2011-10-09T08:50:39.000Z</time>
      </trkpt>
      <trkpt lat="45.96127" lon="6.05099">
        <ele>716.59997558594</ele>
        <time>2011-10-09T08:50:42.000Z</time>
      </trkpt>
      <trkpt lat="45.96136" lon="6.05108">
        <ele>713</ele>
        <time>2011-10-09T08:50:45.000Z</time>
      </trkpt>
      <trkpt lat="45.96138" lon="6.05111">
        <ele>712.40002441406</ele>
        <time>2011-10-09T08:50:46.000Z</time>
      </trkpt>
      <trkpt lat="45.96143" lon="6.05123">
        <ele>710.40002441406</ele>
        <time>2011-10-09T08:50:51.000Z</time>
      </trkpt>
      <trkpt lat="45.96146" lon="6.05123">
        <ele>709</ele>
        <time>2011-10-09T08:50:52.000Z</time>
      </trkpt>
      <trkpt lat="45.96151" lon="6.05128">
        <ele>707.20001220703</ele>
        <time>2011-10-09T08:50:54.000Z</time>
      </trkpt>
      <trkpt lat="45.96153" lon="6.05133">
        <ele>707</ele>
        <time>2011-10-09T08:50:55.000Z</time>
      </trkpt>
      <trkpt lat="45.96155" lon="6.05153">
        <ele>707.40002441406</ele>
        <time>2011-10-09T08:50:59.000Z</time>
      </trkpt>
      <trkpt lat="45.96157" lon="6.05167">
        <ele>707.59997558594</ele>
        <time>2011-10-09T08:51:03.000Z</time>
      </trkpt>
      <trkpt lat="45.96158" lon="6.0517">
        <ele>707.20001220703</ele>
        <time>2011-10-09T08:51:04.000Z</time>
      </trkpt>
      <trkpt lat="45.96159" lon="6.05182">
        <ele>706.40002441406</ele>
        <time>2011-10-09T08:51:07.000Z</time>
      </trkpt>
      <trkpt lat="45.96163" lon="6.05206">
        <ele>704.40002441406</ele>
        <time>2011-10-09T08:51:12.000Z</time>
      </trkpt>
      <trkpt lat="45.96163" lon="6.05223">
        <ele>704.40002441406</ele>
        <time>2011-10-09T08:51:16.000Z</time>
      </trkpt>
      <trkpt lat="45.96163" lon="6.05241">
        <ele>704</ele>
        <time>2011-10-09T08:51:22.000Z</time>
      </trkpt>
      <trkpt lat="45.96168" lon="6.05262">
        <ele>702.20001220703</ele>
        <time>2011-10-09T08:51:28.000Z</time>
      </trkpt>
      <trkpt lat="45.96172" lon="6.05287">
        <ele>700.40002441406</ele>
        <time>2011-10-09T08:51:33.000Z</time>
      </trkpt>
      <trkpt lat="45.96179" lon="6.05312">
        <ele>698</ele>
        <time>2011-10-09T08:51:38.000Z</time>
      </trkpt>
      <trkpt lat="45.96174" lon="6.05323">
        <ele>698.59997558594</ele>
        <time>2011-10-09T08:51:42.000Z</time>
      </trkpt>
      <trkpt lat="45.96167" lon="6.05327">
        <ele>700</ele>
        <time>2011-10-09T08:51:45.000Z</time>
      </trkpt>
      <trkpt lat="45.96163" lon="6.0533">
        <ele>700.79998779297</ele>
        <time>2011-10-09T08:51:47.000Z</time>
      </trkpt>
      <trkpt lat="45.96154" lon="6.0534">
        <ele>702</ele>
        <time>2011-10-09T08:51:52.000Z</time>
      </trkpt>
      <trkpt lat="45.96145" lon="6.05352">
        <ele>703.20001220703</ele>
        <time>2011-10-09T08:51:58.000Z</time>
      </trkpt>
      <trkpt lat="45.96143" lon="6.05361">
        <ele>703.20001220703</ele>
        <time>2011-10-09T08:52:02.000Z</time>
      </trkpt>
      <trkpt lat="45.96142" lon="6.05362">
        <ele>703.20001220703</ele>
        <time>2011-10-09T08:52:03.000Z</time>
      </trkpt>
      <trkpt lat="45.96143" lon="6.05365">
        <ele>703</ele>
        <time>2011-10-09T08:52:05.000Z</time>
      </trkpt>
      <trkpt lat="45.96143" lon="6.05369">
        <ele>702.79998779297</ele>
        <time>2011-10-09T08:52:07.000Z</time>
      </trkpt>
      <trkpt lat="45.96136" lon="6.05381">
        <ele>703.40002441406</ele>
        <time>2011-10-09T08:52:11.000Z</time>
      </trkpt>
      <trkpt lat="45.96132" lon="6.05397">
        <ele>703.20001220703</ele>
        <time>2011-10-09T08:52:16.000Z</time>
      </trkpt>
      <trkpt lat="45.96133" lon="6.0541">
        <ele>702.40002441406</ele>
        <time>2011-10-09T08:52:20.000Z</time>
      </trkpt>
      <trkpt lat="45.96135" lon="6.05415">
        <ele>702</ele>
        <time>2011-10-09T08:52:22.000Z</time>
      </trkpt>
      <trkpt lat="45.96139" lon="6.05419">
        <ele>701.59997558594</ele>
        <time>2011-10-09T08:52:26.000Z</time>
      </trkpt>
      <trkpt lat="45.96141" lon="6.0542">
        <ele>701.59997558594</ele>
        <time>2011-10-09T08:52:27.000Z</time>
      </trkpt>
      <trkpt lat="45.96143" lon="6.0542">
        <ele>701.40002441406</ele>
        <time>2011-10-09T08:52:30.000Z</time>
      </trkpt>
      <trkpt lat="45.96146" lon="6.05421">
        <ele>701.20001220703</ele>
        <time>2011-10-09T08:52:32.000Z</time>
      </trkpt>
      <trkpt lat="45.9615" lon="6.05421">
        <ele>700.79998779297</ele>
        <time>2011-10-09T08:52:35.000Z</time>
      </trkpt>
      <trkpt lat="45.96153" lon="6.05421">
        <ele>700.40002441406</ele>
        <time>2011-10-09T08:52:38.000Z</time>
      </trkpt>
      <trkpt lat="45.96158" lon="6.05421">
        <ele>700</ele>
        <time>2011-10-09T08:52:41.000Z</time>
      </trkpt>
      <trkpt lat="45.96164" lon="6.05426">
        <ele>699.79998779297</ele>
        <time>2011-10-09T08:52:45.000Z</time>
      </trkpt>
      <trkpt lat="45.96164" lon="6.05428">
        <ele>700</ele>
        <time>2011-10-09T08:52:53.000Z</time>
      </trkpt>
      <trkpt lat="45.96163" lon="6.05429">
        <ele>700</ele>
        <time>2011-10-09T08:53:05.000Z</time>
      </trkpt>
      <trkpt lat="45.96161" lon="6.05434">
        <ele>700.59997558594</ele>
        <time>2011-10-09T08:53:21.000Z</time>
      </trkpt>
      <trkpt lat="45.96162" lon="6.05432">
        <ele>700.40002441406</ele>
        <time>2011-10-09T08:53:24.000Z</time>
      </trkpt>
      <trkpt lat="45.96164" lon="6.05432">
        <ele>700.20001220703</ele>
        <time>2011-10-09T08:53:25.000Z</time>
      </trkpt>
      <trkpt lat="45.96169" lon="6.05431">
        <ele>699.59997558594</ele>
        <time>2011-10-09T08:53:30.000Z</time>
      </trkpt>
      <trkpt lat="45.96178" lon="6.05431">
        <ele>698</ele>
        <time>2011-10-09T08:53:35.000Z</time>
      </trkpt>
      <trkpt lat="45.96191" lon="6.05432">
        <ele>696.20001220703</ele>
        <time>2011-10-09T08:53:41.000Z</time>
      </trkpt>
      <trkpt lat="45.96203" lon="6.05436">
        <ele>694.40002441406</ele>
        <time>2011-10-09T08:53:46.000Z</time>
      </trkpt>
      <trkpt lat="45.96207" lon="6.05438">
        <ele>694</ele>
        <time>2011-10-09T08:53:48.000Z</time>
      </trkpt>
      <trkpt lat="45.96219" lon="6.05439">
        <ele>692</ele>
        <time>2011-10-09T08:53:52.000Z</time>
      </trkpt>
      <trkpt lat="45.96234" lon="6.05442">
        <ele>689.79998779297</ele>
        <time>2011-10-09T08:53:57.000Z</time>
      </trkpt>
      <trkpt lat="45.96244" lon="6.05443">
        <ele>688.40002441406</ele>
        <time>2011-10-09T08:54:02.000Z</time>
      </trkpt>
      <trkpt lat="45.96255" lon="6.05446">
        <ele>686.59997558594</ele>
        <time>2011-10-09T08:54:07.000Z</time>
      </trkpt>
      <trkpt lat="45.96271" lon="6.05451">
        <ele>683.40002441406</ele>
        <time>2011-10-09T08:54:13.000Z</time>
      </trkpt>
      <trkpt lat="45.96282" lon="6.05459">
        <ele>681.59997558594</ele>
        <time>2011-10-09T08:54:19.000Z</time>
      </trkpt>
      <trkpt lat="45.96298" lon="6.05467">
        <ele>679</ele>
        <time>2011-10-09T08:54:25.000Z</time>
      </trkpt>
      <trkpt lat="45.96307" lon="6.05474">
        <ele>678</ele>
        <time>2011-10-09T08:54:30.000Z</time>
      </trkpt>
      <trkpt lat="45.9632" lon="6.05484">
        <ele>676.40002441406</ele>
        <time>2011-10-09T08:54:36.000Z</time>
      </trkpt>
      <trkpt lat="45.96328" lon="6.0549">
        <ele>675.59997558594</ele>
        <time>2011-10-09T08:54:40.000Z</time>
      </trkpt>
      <trkpt lat="45.96336" lon="6.05502">
        <ele>675.20001220703</ele>
        <time>2011-10-09T08:54:44.000Z</time>
      </trkpt>
      <trkpt lat="45.96341" lon="6.05515">
        <ele>675.40002441406</ele>
        <time>2011-10-09T08:54:48.000Z</time>
      </trkpt>
      <trkpt lat="45.96348" lon="6.05537">
        <ele>676.20001220703</ele>
        <time>2011-10-09T08:54:54.000Z</time>
      </trkpt>
      <trkpt lat="45.96355" lon="6.05553">
        <ele>676.40002441406</ele>
        <time>2011-10-09T08:54:59.000Z</time>
      </trkpt>
      <trkpt lat="45.96359" lon="6.05569">
        <ele>677.59997558594</ele>
        <time>2011-10-09T08:55:04.000Z</time>
      </trkpt>
      <trkpt lat="45.96366" lon="6.05582">
        <ele>677.79998779297</ele>
        <time>2011-10-09T08:55:08.000Z</time>
      </trkpt>
      <trkpt lat="45.96375" lon="6.05598">
        <ele>677.20001220703</ele>
        <time>2011-10-09T08:55:14.000Z</time>
      </trkpt>
      <trkpt lat="45.96378" lon="6.05607">
        <ele>677.40002441406</ele>
        <time>2011-10-09T08:55:17.000Z</time>
      </trkpt>
      <trkpt lat="45.9638" lon="6.0561">
        <ele>677.20001220703</ele>
        <time>2011-10-09T08:55:18.000Z</time>
      </trkpt>
      <trkpt lat="45.96393" lon="6.05619">
        <ele>675.20001220703</ele>
        <time>2011-10-09T08:55:23.000Z</time>
      </trkpt>
      <trkpt lat="45.96398" lon="6.05632">
        <ele>675.59997558594</ele>
        <time>2011-10-09T08:55:27.000Z</time>
      </trkpt>
      <trkpt lat="45.964" lon="6.05638">
        <ele>676</ele>
        <time>2011-10-09T08:55:29.000Z</time>
      </trkpt>
      <trkpt lat="45.96404" lon="6.05641">
        <ele>675.79998779297</ele>
        <time>2011-10-09T08:55:31.000Z</time>
      </trkpt>
      <trkpt lat="45.96411" lon="6.05647">
        <ele>675</ele>
        <time>2011-10-09T08:55:36.000Z</time>
      </trkpt>
      <trkpt lat="45.96423" lon="6.05635">
        <ele>670.40002441406</ele>
        <time>2011-10-09T08:55:40.000Z</time>
      </trkpt>
      <trkpt lat="45.96437" lon="6.05628">
        <ele>665.59997558594</ele>
        <time>2011-10-09T08:55:44.000Z</time>
      </trkpt>
      <trkpt lat="45.96444" lon="6.05628">
        <ele>663.79998779297</ele>
        <time>2011-10-09T08:55:46.000Z</time>
      </trkpt>
      <trkpt lat="45.96453" lon="6.05628">
        <ele>661.40002441406</ele>
        <time>2011-10-09T08:55:49.000Z</time>
      </trkpt>
      <trkpt lat="45.9647" lon="6.05632">
        <ele>658</ele>
        <time>2011-10-09T08:55:54.000Z</time>
      </trkpt>
      <trkpt lat="45.96474" lon="6.05631">
        <ele>656.79998779297</ele>
        <time>2011-10-09T08:55:56.000Z</time>
      </trkpt>
      <trkpt lat="45.96473" lon="6.05632">
        <ele>657</ele>
        <time>2011-10-09T08:55:58.000Z</time>
      </trkpt>
      <trkpt lat="45.96468" lon="6.05636">
        <ele>659.59997558594</ele>
        <time>2011-10-09T08:56:07.000Z</time>
      </trkpt>
      <trkpt lat="45.96463" lon="6.05639">
        <ele>661.40002441406</ele>
        <time>2011-10-09T08:56:14.000Z</time>
      </trkpt>
      <trkpt lat="45.96462" lon="6.05636">
        <ele>661</ele>
        <time>2011-10-09T08:56:16.000Z</time>
      </trkpt>
      <trkpt lat="45.96459" lon="6.05631">
        <ele>660.59997558594</ele>
        <time>2011-10-09T08:56:18.000Z</time>
      </trkpt>
      <trkpt lat="45.9646" lon="6.05627">
        <ele>659.59997558594</ele>
        <time>2011-10-09T08:56:20.000Z</time>
      </trkpt>
      <trkpt lat="45.9646" lon="6.05624">
        <ele>658.79998779297</ele>
        <time>2011-10-09T08:56:22.000Z</time>
      </trkpt>
      <trkpt lat="45.96461" lon="6.05619">
        <ele>657.40002441406</ele>
        <time>2011-10-09T08:56:24.000Z</time>
      </trkpt>
      <trkpt lat="45.9646" lon="6.05618">
        <ele>657.40002441406</ele>
        <time>2011-10-09T08:56:25.000Z</time>
      </trkpt>
      <trkpt lat="45.96463" lon="6.05615">
        <ele>655.79998779297</ele>
        <time>2011-10-09T08:56:27.000Z</time>
      </trkpt>
      <trkpt lat="45.96466" lon="6.05601">
        <ele>651.79998779297</ele>
        <time>2011-10-09T08:56:32.000Z</time>
      </trkpt>
      <trkpt lat="45.96467" lon="6.05592">
        <ele>649.40002441406</ele>
        <time>2011-10-09T08:56:35.000Z</time>
      </trkpt>
      <trkpt lat="45.96469" lon="6.05584">
        <ele>647</ele>
        <time>2011-10-09T08:56:37.000Z</time>
      </trkpt>
      <trkpt lat="45.96474" lon="6.05571">
        <ele>642.20001220703</ele>
        <time>2011-10-09T08:56:41.000Z</time>
      </trkpt>
      <trkpt lat="45.96474" lon="6.05569">
        <ele>641.59997558594</ele>
        <time>2011-10-09T08:56:42.000Z</time>
      </trkpt>
      <trkpt lat="45.96473" lon="6.05566">
        <ele>641.40002441406</ele>
        <time>2011-10-09T08:56:43.000Z</time>
      </trkpt>
      <trkpt lat="45.96467" lon="6.0556">
        <ele>641.79998779297</ele>
        <time>2011-10-09T08:56:46.000Z</time>
      </trkpt>
      <trkpt lat="45.96459" lon="6.05546">
        <ele>641.20001220703</ele>
        <time>2011-10-09T08:56:50.000Z</time>
      </trkpt>
      <trkpt lat="45.96457" lon="6.05542">
        <ele>641.20001220703</ele>
        <time>2011-10-09T08:56:51.000Z</time>
      </trkpt>
      <trkpt lat="45.96449" lon="6.05532">
        <ele>642</ele>
        <time>2011-10-09T08:56:55.000Z</time>
      </trkpt>
      <trkpt lat="45.96441" lon="6.05526">
        <ele>644</ele>
        <time>2011-10-09T08:57:00.000Z</time>
      </trkpt>
      <trkpt lat="45.96432" lon="6.05516">
        <ele>645.40002441406</ele>
        <time>2011-10-09T08:57:04.000Z</time>
      </trkpt>
      <trkpt lat="45.96432" lon="6.05512">
        <ele>645</ele>
        <time>2011-10-09T08:57:06.000Z</time>
      </trkpt>
      <trkpt lat="45.96429" lon="6.05511">
        <ele>646</ele>
        <time>2011-10-09T08:57:08.000Z</time>
      </trkpt>
      <trkpt lat="45.96426" lon="6.05511">
        <ele>647.20001220703</ele>
        <time>2011-10-09T08:57:09.000Z</time>
      </trkpt>
      <trkpt lat="45.96425" lon="6.05498">
        <ele>645</ele>
        <time>2011-10-09T08:57:13.000Z</time>
      </trkpt>
      <trkpt lat="45.96427" lon="6.05487">
        <ele>640.59997558594</ele>
        <time>2011-10-09T08:57:16.000Z</time>
      </trkpt>
      <trkpt lat="45.96428" lon="6.05483">
        <ele>638.79998779297</ele>
        <time>2011-10-09T08:57:17.000Z</time>
      </trkpt>
      <trkpt lat="45.96431" lon="6.05482">
        <ele>637.40002441406</ele>
        <time>2011-10-09T08:57:18.000Z</time>
      </trkpt>
      <trkpt lat="45.96435" lon="6.05476">
        <ele>633.79998779297</ele>
        <time>2011-10-09T08:57:21.000Z</time>
      </trkpt>
      <trkpt lat="45.96437" lon="6.05473">
        <ele>632</ele>
        <time>2011-10-09T08:57:23.000Z</time>
      </trkpt>
      <trkpt lat="45.96448" lon="6.0547">
        <ele>627</ele>
        <time>2011-10-09T08:57:27.000Z</time>
      </trkpt>
      <trkpt lat="45.9645" lon="6.0547">
        <ele>626.20001220703</ele>
        <time>2011-10-09T08:57:28.000Z</time>
      </trkpt>
      <trkpt lat="45.9646" lon="6.05472">
        <ele>622.79998779297</ele>
        <time>2011-10-09T08:57:32.000Z</time>
      </trkpt>
      <trkpt lat="45.96474" lon="6.05478">
        <ele>619</ele>
        <time>2011-10-09T08:57:37.000Z</time>
      </trkpt>
      <trkpt lat="45.96486" lon="6.05471">
        <ele>612.40002441406</ele>
        <time>2011-10-09T08:57:41.000Z</time>
      </trkpt>
      <trkpt lat="45.9649" lon="6.05467">
        <ele>610.20001220703</ele>
        <time>2011-10-09T08:57:44.000Z</time>
      </trkpt>
      <trkpt lat="45.9649" lon="6.05467">
        <ele>610.20001220703</ele>
        <time>2011-10-09T08:57:45.000Z</time>
      </trkpt>
      <trkpt lat="45.9649" lon="6.05472">
        <ele>611.20001220703</ele>
        <time>2011-10-09T08:57:50.000Z</time>
      </trkpt>
      <trkpt lat="45.96489" lon="6.05472">
        <ele>611.40002441406</ele>
        <time>2011-10-09T08:57:52.000Z</time>
      </trkpt>
      <trkpt lat="45.96486" lon="6.05472">
        <ele>612.79998779297</ele>
        <time>2011-10-09T08:58:04.000Z</time>
      </trkpt>
      <trkpt lat="45.96487" lon="6.05471">
        <ele>612</ele>
        <time>2011-10-09T08:58:06.000Z</time>
      </trkpt>
      <trkpt lat="45.96488" lon="6.05472">
        <ele>611.59997558594</ele>
        <time>2011-10-09T08:58:07.000Z</time>
      </trkpt>
      <trkpt lat="45.96482" lon="6.05468">
        <ele>613.20001220703</ele>
        <time>2011-10-09T08:59:25.000Z</time>
      </trkpt>
      <trkpt lat="45.96491" lon="6.05452">
        <ele>606.40002441406</ele>
        <time>2011-10-09T09:00:06.000Z</time>
      </trkpt>
      <trkpt lat="45.96488" lon="6.05441">
        <ele>605</ele>
        <time>2011-10-09T09:00:11.000Z</time>
      </trkpt>
      <trkpt lat="45.96485" lon="6.05422">
        <ele>601.79998779297</ele>
        <time>2011-10-09T09:00:16.000Z</time>
      </trkpt>
      <trkpt lat="45.9648" lon="6.05408">
        <ele>600.20001220703</ele>
        <time>2011-10-09T09:00:20.000Z</time>
      </trkpt>
      <trkpt lat="45.96472" lon="6.0539">
        <ele>598.59997558594</ele>
        <time>2011-10-09T09:00:26.000Z</time>
      </trkpt>
      <trkpt lat="45.96472" lon="6.05388">
        <ele>598.20001220703</ele>
        <time>2011-10-09T09:00:27.000Z</time>
      </trkpt>
      <trkpt lat="45.96472" lon="6.05379">
        <ele>596.40002441406</ele>
        <time>2011-10-09T09:00:30.000Z</time>
      </trkpt>
      <trkpt lat="45.96471" lon="6.05364">
        <ele>593.20001220703</ele>
        <time>2011-10-09T09:00:35.000Z</time>
      </trkpt>
      <trkpt lat="45.96465" lon="6.05344">
        <ele>590.20001220703</ele>
        <time>2011-10-09T09:00:41.000Z</time>
      </trkpt>
      <trkpt lat="45.96457" lon="6.05324">
        <ele>588</ele>
        <time>2011-10-09T09:00:47.000Z</time>
      </trkpt>
      <trkpt lat="45.96454" lon="6.05312">
        <ele>586.59997558594</ele>
        <time>2011-10-09T09:00:50.000Z</time>
      </trkpt>
      <trkpt lat="45.96454" lon="6.05305">
        <ele>585.20001220703</ele>
        <time>2011-10-09T09:00:52.000Z</time>
      </trkpt>
      <trkpt lat="45.96453" lon="6.05296">
        <ele>583.79998779297</ele>
        <time>2011-10-09T09:00:55.000Z</time>
      </trkpt>
      <trkpt lat="45.96452" lon="6.05292">
        <ele>583.59997558594</ele>
        <time>2011-10-09T09:00:56.000Z</time>
      </trkpt>
      <trkpt lat="45.96448" lon="6.05277">
        <ele>582</ele>
        <time>2011-10-09T09:01:00.000Z</time>
      </trkpt>
      <trkpt lat="45.96442" lon="6.05257">
        <ele>580.40002441406</ele>
        <time>2011-10-09T09:01:06.000Z</time>
      </trkpt>
      <trkpt lat="45.96437" lon="6.05241">
        <ele>579.20001220703</ele>
        <time>2011-10-09T09:01:11.000Z</time>
      </trkpt>
      <trkpt lat="45.96433" lon="6.05231">
        <ele>578.79998779297</ele>
        <time>2011-10-09T09:01:14.000Z</time>
      </trkpt>
      <trkpt lat="45.96434" lon="6.05228">
        <ele>578</ele>
        <time>2011-10-09T09:01:15.000Z</time>
      </trkpt>
      <trkpt lat="45.96435" lon="6.05212">
        <ele>575</ele>
        <time>2011-10-09T09:01:20.000Z</time>
      </trkpt>
      <trkpt lat="45.96435" lon="6.05206">
        <ele>574.20001220703</ele>
        <time>2011-10-09T09:01:22.000Z</time>
      </trkpt>
      <trkpt lat="45.96435" lon="6.05199">
        <ele>573.20001220703</ele>
        <time>2011-10-09T09:01:24.000Z</time>
      </trkpt>
      <trkpt lat="45.96434" lon="6.05185">
        <ele>571.20001220703</ele>
        <time>2011-10-09T09:01:28.000Z</time>
      </trkpt>
      <trkpt lat="45.96434" lon="6.05183">
        <ele>571</ele>
        <time>2011-10-09T09:01:29.000Z</time>
      </trkpt>
      <trkpt lat="45.9643" lon="6.05173">
        <ele>571.20001220703</ele>
        <time>2011-10-09T09:01:32.000Z</time>
      </trkpt>
      <trkpt lat="45.96427" lon="6.05167">
        <ele>571.40002441406</ele>
        <time>2011-10-09T09:01:34.000Z</time>
      </trkpt>
      <trkpt lat="45.96424" lon="6.05144">
        <ele>567.59997558594</ele>
        <time>2011-10-09T09:01:40.000Z</time>
      </trkpt>
      <trkpt lat="45.96423" lon="6.05131">
        <ele>565.20001220703</ele>
        <time>2011-10-09T09:01:44.000Z</time>
      </trkpt>
      <trkpt lat="45.96419" lon="6.05109">
        <ele>562</ele>
        <time>2011-10-09T09:01:50.000Z</time>
      </trkpt>
      <trkpt lat="45.96418" lon="6.05103">
        <ele>561.20001220703</ele>
        <time>2011-10-09T09:01:52.000Z</time>
      </trkpt>
      <trkpt lat="45.96415" lon="6.05091">
        <ele>559.40002441406</ele>
        <time>2011-10-09T09:01:55.000Z</time>
      </trkpt>
      <trkpt lat="45.96412" lon="6.05084">
        <ele>558.79998779297</ele>
        <time>2011-10-09T09:01:57.000Z</time>
      </trkpt>
      <trkpt lat="45.96409" lon="6.05075">
        <ele>558.40002441406</ele>
        <time>2011-10-09T09:02:00.000Z</time>
      </trkpt>
      <trkpt lat="45.96406" lon="6.05064">
        <ele>558</ele>
        <time>2011-10-09T09:02:04.000Z</time>
      </trkpt>
      <trkpt lat="45.96405" lon="6.0506">
        <ele>557.59997558594</ele>
        <time>2011-10-09T09:02:05.000Z</time>
      </trkpt>
      <trkpt lat="45.96397" lon="6.05036">
        <ele>556.59997558594</ele>
        <time>2011-10-09T09:02:12.000Z</time>
      </trkpt>
      <trkpt lat="45.96392" lon="6.05019">
        <ele>556</ele>
        <time>2011-10-09T09:02:17.000Z</time>
      </trkpt>
      <trkpt lat="45.96386" lon="6.04999">
        <ele>555.59997558594</ele>
        <time>2011-10-09T09:02:23.000Z</time>
      </trkpt>
      <trkpt lat="45.9638" lon="6.04979">
        <ele>554.79998779297</ele>
        <time>2011-10-09T09:02:29.000Z</time>
      </trkpt>
      <trkpt lat="45.96378" lon="6.04969">
        <ele>553.79998779297</ele>
        <time>2011-10-09T09:02:32.000Z</time>
      </trkpt>
      <trkpt lat="45.96379" lon="6.0496">
        <ele>552.20001220703</ele>
        <time>2011-10-09T09:02:34.000Z</time>
      </trkpt>
      <trkpt lat="45.96378" lon="6.04957">
        <ele>552</ele>
        <time>2011-10-09T09:02:35.000Z</time>
      </trkpt>
      <trkpt lat="45.96378" lon="6.04945">
        <ele>550</ele>
        <time>2011-10-09T09:02:38.000Z</time>
      </trkpt>
      <trkpt lat="45.96375" lon="6.04931">
        <ele>548.79998779297</ele>
        <time>2011-10-09T09:02:42.000Z</time>
      </trkpt>
      <trkpt lat="45.9637" lon="6.04915">
        <ele>548.40002441406</ele>
        <time>2011-10-09T09:02:47.000Z</time>
      </trkpt>
      <trkpt lat="45.96365" lon="6.04893">
        <ele>549.20001220703</ele>
        <time>2011-10-09T09:02:53.000Z</time>
      </trkpt>
      <trkpt lat="45.96361" lon="6.04879">
        <ele>549.79998779297</ele>
        <time>2011-10-09T09:02:58.000Z</time>
      </trkpt>
      <trkpt lat="45.9636" lon="6.04865">
        <ele>549.59997558594</ele>
        <time>2011-10-09T09:03:03.000Z</time>
      </trkpt>
      <trkpt lat="45.96359" lon="6.04862">
        <ele>549.79998779297</ele>
        <time>2011-10-09T09:03:04.000Z</time>
      </trkpt>
      <trkpt lat="45.96354" lon="6.04846">
        <ele>550.79998779297</ele>
        <time>2011-10-09T09:03:09.000Z</time>
      </trkpt>
      <trkpt lat="45.96353" lon="6.04827">
        <ele>550.20001220703</ele>
        <time>2011-10-09T09:03:14.000Z</time>
      </trkpt>
      <trkpt lat="45.96353" lon="6.04804">
        <ele>548.20001220703</ele>
        <time>2011-10-09T09:03:20.000Z</time>
      </trkpt>
      <trkpt lat="45.96354" lon="6.04782">
        <ele>545.59997558594</ele>
        <time>2011-10-09T09:03:26.000Z</time>
      </trkpt>
      <trkpt lat="45.96355" lon="6.04765">
        <ele>543.79998779297</ele>
        <time>2011-10-09T09:03:31.000Z</time>
      </trkpt>
      <trkpt lat="45.96356" lon="6.04744">
        <ele>541</ele>
        <time>2011-10-09T09:03:36.000Z</time>
      </trkpt>
      <trkpt lat="45.96357" lon="6.04725">
        <ele>537.59997558594</ele>
        <time>2011-10-09T09:03:41.000Z</time>
      </trkpt>
      <trkpt lat="45.96351" lon="6.04699">
        <ele>534.59997558594</ele>
        <time>2011-10-09T09:03:48.000Z</time>
      </trkpt>
      <trkpt lat="45.96341" lon="6.04678">
        <ele>533.40002441406</ele>
        <time>2011-10-09T09:03:54.000Z</time>
      </trkpt>
      <trkpt lat="45.96331" lon="6.04659">
        <ele>531.59997558594</ele>
        <time>2011-10-09T09:04:00.000Z</time>
      </trkpt>
      <trkpt lat="45.96326" lon="6.04642">
        <ele>528.59997558594</ele>
        <time>2011-10-09T09:04:05.000Z</time>
      </trkpt>
      <trkpt lat="45.96319" lon="6.0463">
        <ele>527.20001220703</ele>
        <time>2011-10-09T09:04:10.000Z</time>
      </trkpt>
      <trkpt lat="45.96309" lon="6.04618">
        <ele>526</ele>
        <time>2011-10-09T09:04:15.000Z</time>
      </trkpt>
      <trkpt lat="45.96301" lon="6.04608">
        <ele>524.59997558594</ele>
        <time>2011-10-09T09:04:19.000Z</time>
      </trkpt>
      <trkpt lat="45.96297" lon="6.04604">
        <ele>524.40002441406</ele>
        <time>2011-10-09T09:04:21.000Z</time>
      </trkpt>
      <trkpt lat="45.96288" lon="6.04601">
        <ele>525</ele>
        <time>2011-10-09T09:04:25.000Z</time>
      </trkpt>
      <trkpt lat="45.96275" lon="6.04592">
        <ele>524.40002441406</ele>
        <time>2011-10-09T09:04:31.000Z</time>
      </trkpt>
      <trkpt lat="45.96266" lon="6.04585">
        <ele>523</ele>
        <time>2011-10-09T09:04:36.000Z</time>
      </trkpt>
      <trkpt lat="45.96262" lon="6.04584">
        <ele>523.40002441406</ele>
        <time>2011-10-09T09:04:37.000Z</time>
      </trkpt>
      <trkpt lat="45.96252" lon="6.0458">
        <ele>523.79998779297</ele>
        <time>2011-10-09T09:04:40.000Z</time>
      </trkpt>
      <trkpt lat="45.96246" lon="6.04578">
        <ele>525</ele>
        <time>2011-10-09T09:04:42.000Z</time>
      </trkpt>
      <trkpt lat="45.96237" lon="6.04571">
        <ele>526.20001220703</ele>
        <time>2011-10-09T09:04:46.000Z</time>
      </trkpt>
      <trkpt lat="45.96225" lon="6.04556">
        <ele>525.40002441406</ele>
        <time>2011-10-09T09:04:52.000Z</time>
      </trkpt>
      <trkpt lat="45.96209" lon="6.04541">
        <ele>524.79998779297</ele>
        <time>2011-10-09T09:04:59.000Z</time>
      </trkpt>
      <trkpt lat="45.962" lon="6.04529">
        <ele>522.40002441406</ele>
        <time>2011-10-09T09:05:04.000Z</time>
      </trkpt>
      <trkpt lat="45.96186" lon="6.04515">
        <ele>519.59997558594</ele>
        <time>2011-10-09T09:05:10.000Z</time>
      </trkpt>
      <trkpt lat="45.96176" lon="6.04505">
        <ele>517</ele>
        <time>2011-10-09T09:05:15.000Z</time>
      </trkpt>
      <trkpt lat="45.96162" lon="6.04492">
        <ele>515.20001220703</ele>
        <time>2011-10-09T09:05:21.000Z</time>
      </trkpt>
      <trkpt lat="45.96151" lon="6.0448">
        <ele>515</ele>
        <time>2011-10-09T09:05:27.000Z</time>
      </trkpt>
      <trkpt lat="45.96138" lon="6.0447">
        <ele>515</ele>
        <time>2011-10-09T09:05:32.000Z</time>
      </trkpt>
      <trkpt lat="45.96127" lon="6.04463">
        <ele>515.40002441406</ele>
        <time>2011-10-09T09:05:36.000Z</time>
      </trkpt>
      <trkpt lat="45.96117" lon="6.04455">
        <ele>514.59997558594</ele>
        <time>2011-10-09T09:05:41.000Z</time>
      </trkpt>
      <trkpt lat="45.96103" lon="6.04445">
        <ele>513.40002441406</ele>
        <time>2011-10-09T09:05:47.000Z</time>
      </trkpt>
      <trkpt lat="45.96092" lon="6.04436">
        <ele>511.20001220703</ele>
        <time>2011-10-09T09:05:53.000Z</time>
      </trkpt>
      <trkpt lat="45.96081" lon="6.04426">
        <ele>508.39999389648</ele>
        <time>2011-10-09T09:05:59.000Z</time>
      </trkpt>
      <trkpt lat="45.96072" lon="6.04416">
        <ele>504.20001220703</ele>
        <time>2011-10-09T09:06:04.000Z</time>
      </trkpt>
      <trkpt lat="45.96065" lon="6.04398">
        <ele>502.39999389648</ele>
        <time>2011-10-09T09:06:10.000Z</time>
      </trkpt>
      <trkpt lat="45.96058" lon="6.04384">
        <ele>500.79998779297</ele>
        <time>2011-10-09T09:06:15.000Z</time>
      </trkpt>
      <trkpt lat="45.96053" lon="6.04371">
        <ele>499.20001220703</ele>
        <time>2011-10-09T09:06:20.000Z</time>
      </trkpt>
      <trkpt lat="45.96049" lon="6.04357">
        <ele>497.60000610352</ele>
        <time>2011-10-09T09:06:25.000Z</time>
      </trkpt>
      <trkpt lat="45.96047" lon="6.04347">
        <ele>496.39999389648</ele>
        <time>2011-10-09T09:06:29.000Z</time>
      </trkpt>
      <trkpt lat="45.96046" lon="6.04348">
        <ele>496.39999389648</ele>
        <time>2011-10-09T09:06:31.000Z</time>
      </trkpt>
      <trkpt lat="45.96041" lon="6.04344">
        <ele>495.79998779297</ele>
        <time>2011-10-09T09:06:35.000Z</time>
      </trkpt>
      <trkpt lat="45.96037" lon="6.04344">
        <ele>495.60000610352</ele>
        <time>2011-10-09T09:06:38.000Z</time>
      </trkpt>
      <trkpt lat="45.95981" lon="6.04409">
        <ele>504.39999389648</ele>
        <time>2011-10-09T09:09:25.000Z</time>
      </trkpt>
      <trkpt lat="45.9598" lon="6.04411">
        <ele>504.60000610352</ele>
        <time>2011-10-09T09:09:26.000Z</time>
      </trkpt>
      <trkpt lat="45.9598" lon="6.04412">
        <ele>504.60000610352</ele>
        <time>2011-10-09T09:09:27.000Z</time>
      </trkpt>
      <trkpt lat="45.95972" lon="6.04417">
        <ele>505.39999389648</ele>
        <time>2011-10-09T09:09:31.000Z</time>
      </trkpt>
      <trkpt lat="45.95964" lon="6.04429">
        <ele>510.20001220703</ele>
        <time>2011-10-09T09:09:37.000Z</time>
      </trkpt>
      <trkpt lat="45.95957" lon="6.04438">
        <ele>513.40002441406</ele>
        <time>2011-10-09T09:09:42.000Z</time>
      </trkpt>
      <trkpt lat="45.95948" lon="6.04449">
        <ele>517.20001220703</ele>
        <time>2011-10-09T09:09:47.000Z</time>
      </trkpt>
      <trkpt lat="45.95942" lon="6.04455">
        <ele>518.59997558594</ele>
        <time>2011-10-09T09:09:51.000Z</time>
      </trkpt>
      <trkpt lat="45.95929" lon="6.0446">
        <ele>518.79998779297</ele>
        <time>2011-10-09T09:09:58.000Z</time>
      </trkpt>
      <trkpt lat="45.95922" lon="6.04463">
        <ele>519</ele>
        <time>2011-10-09T09:10:03.000Z</time>
      </trkpt>
      <trkpt lat="45.95916" lon="6.04465">
        <ele>519</ele>
        <time>2011-10-09T09:10:08.000Z</time>
      </trkpt>
      <trkpt lat="45.95914" lon="6.04468">
        <ele>520</ele>
        <time>2011-10-09T09:10:09.000Z</time>
      </trkpt>
      <trkpt lat="45.95909" lon="6.0447">
        <ele>520.59997558594</ele>
        <time>2011-10-09T09:10:12.000Z</time>
      </trkpt>
      <trkpt lat="45.959" lon="6.04473">
        <ele>521.40002441406</ele>
        <time>2011-10-09T09:10:16.000Z</time>
      </trkpt>
      <trkpt lat="45.95887" lon="6.04485">
        <ele>524.20001220703</ele>
        <time>2011-10-09T09:10:22.000Z</time>
      </trkpt>
      <trkpt lat="45.95876" lon="6.0449">
        <ele>524.79998779297</ele>
        <time>2011-10-09T09:10:27.000Z</time>
      </trkpt>
      <trkpt lat="45.9587" lon="6.04494">
        <ele>525.40002441406</ele>
        <time>2011-10-09T09:10:31.000Z</time>
      </trkpt>
      <trkpt lat="45.95868" lon="6.04495">
        <ele>525.40002441406</ele>
        <time>2011-10-09T09:10:32.000Z</time>
      </trkpt>
      <trkpt lat="45.95864" lon="6.045">
        <ele>526</ele>
        <time>2011-10-09T09:10:35.000Z</time>
      </trkpt>
      <trkpt lat="45.95859" lon="6.04502">
        <ele>526.20001220703</ele>
        <time>2011-10-09T09:10:37.000Z</time>
      </trkpt>
      <trkpt lat="45.95852" lon="6.04508">
        <ele>527.59997558594</ele>
        <time>2011-10-09T09:10:42.000Z</time>
      </trkpt>
      <trkpt lat="45.95843" lon="6.04517">
        <ele>529.20001220703</ele>
        <time>2011-10-09T09:10:48.000Z</time>
      </trkpt>
      <trkpt lat="45.95836" lon="6.04526">
        <ele>530.20001220703</ele>
        <time>2011-10-09T09:10:52.000Z</time>
      </trkpt>
      <trkpt lat="45.95825" lon="6.04539">
        <ele>533.20001220703</ele>
        <time>2011-10-09T09:10:58.000Z</time>
      </trkpt>
      <trkpt lat="45.95816" lon="6.04549">
        <ele>535.40002441406</ele>
        <time>2011-10-09T09:11:03.000Z</time>
      </trkpt>
      <trkpt lat="45.95806" lon="6.04558">
        <ele>536.79998779297</ele>
        <time>2011-10-09T09:11:09.000Z</time>
      </trkpt>
      <trkpt lat="45.95801" lon="6.04562">
        <ele>537.40002441406</ele>
        <time>2011-10-09T09:11:13.000Z</time>
      </trkpt>
      <trkpt lat="45.95795" lon="6.04567">
        <ele>537.79998779297</ele>
        <time>2011-10-09T09:11:16.000Z</time>
      </trkpt>
      <trkpt lat="45.95791" lon="6.04571">
        <ele>538.20001220703</ele>
        <time>2011-10-09T09:11:19.000Z</time>
      </trkpt>
      <trkpt lat="45.95789" lon="6.04573">
        <ele>538.20001220703</ele>
        <time>2011-10-09T09:11:21.000Z</time>
      </trkpt>
      <trkpt lat="45.95783" lon="6.04577">
        <ele>538.20001220703</ele>
        <time>2011-10-09T09:11:25.000Z</time>
      </trkpt>
      <trkpt lat="45.9578" lon="6.04577">
        <ele>538</ele>
        <time>2011-10-09T09:11:27.000Z</time>
      </trkpt>
      <trkpt lat="45.95777" lon="6.0458">
        <ele>538</ele>
        <time>2011-10-09T09:11:30.000Z</time>
      </trkpt>
      <trkpt lat="45.95774" lon="6.04581">
        <ele>537.79998779297</ele>
        <time>2011-10-09T09:11:33.000Z</time>
      </trkpt>
      <trkpt lat="45.95767" lon="6.04585">
        <ele>537.79998779297</ele>
        <time>2011-10-09T09:11:38.000Z</time>
      </trkpt>
      <trkpt lat="45.95763" lon="6.04586">
        <ele>537.79998779297</ele>
        <time>2011-10-09T09:11:40.000Z</time>
      </trkpt>
      <trkpt lat="45.95754" lon="6.04593">
        <ele>538.40002441406</ele>
        <time>2011-10-09T09:11:46.000Z</time>
      </trkpt>
      <trkpt lat="45.95747" lon="6.04596">
        <ele>538.40002441406</ele>
        <time>2011-10-09T09:11:52.000Z</time>
      </trkpt>
      <trkpt lat="45.95742" lon="6.046">
        <ele>538.79998779297</ele>
        <time>2011-10-09T09:11:58.000Z</time>
      </trkpt>
      <trkpt lat="45.95739" lon="6.04601">
        <ele>538.79998779297</ele>
        <time>2011-10-09T09:12:03.000Z</time>
      </trkpt>
      <trkpt lat="45.95738" lon="6.04602">
        <ele>538.79998779297</ele>
        <time>2011-10-09T09:12:04.000Z</time>
      </trkpt>
      <trkpt lat="45.95734" lon="6.04605">
        <ele>539.20001220703</ele>
        <time>2011-10-09T09:12:09.000Z</time>
      </trkpt>
      <trkpt lat="45.95732" lon="6.04607">
        <ele>539.40002441406</ele>
        <time>2011-10-09T09:12:11.000Z</time>
      </trkpt>
      <trkpt lat="45.95733" lon="6.04609">
        <ele>540</ele>
        <time>2011-10-09T09:12:14.000Z</time>
      </trkpt>
      <trkpt lat="45.95739" lon="6.04608">
        <ele>540.20001220703</ele>
        <time>2011-10-09T09:12:36.000Z</time>
      </trkpt>
      <trkpt lat="45.95743" lon="6.04606">
        <ele>540.20001220703</ele>
        <time>2011-10-09T09:12:40.000Z</time>
      </trkpt>
      <trkpt lat="45.95736" lon="6.04608">
        <ele>540</ele>
        <time>2011-10-09T09:13:05.000Z</time>
      </trkpt>
      <trkpt lat="45.95735" lon="6.04609">
        <ele>540.20001220703</ele>
        <time>2011-10-09T09:13:06.000Z</time>
      </trkpt>
      <trkpt lat="45.95732" lon="6.04609">
        <ele>539.59997558594</ele>
        <time>2011-10-09T09:13:07.000Z</time>
      </trkpt>
      <trkpt lat="45.95725" lon="6.04608">
        <ele>539</ele>
        <time>2011-10-09T09:13:10.000Z</time>
      </trkpt>
      <trkpt lat="45.9571" lon="6.04612">
        <ele>538.40002441406</ele>
        <time>2011-10-09T09:13:15.000Z</time>
      </trkpt>
      <trkpt lat="45.95696" lon="6.04617">
        <ele>538.20001220703</ele>
        <time>2011-10-09T09:13:19.000Z</time>
      </trkpt>
      <trkpt lat="45.95682" lon="6.04623">
        <ele>538</ele>
        <time>2011-10-09T09:13:24.000Z</time>
      </trkpt>
      <trkpt lat="45.95667" lon="6.04625">
        <ele>537</ele>
        <time>2011-10-09T09:13:29.000Z</time>
      </trkpt>
      <trkpt lat="45.95655" lon="6.04627">
        <ele>536.59997558594</ele>
        <time>2011-10-09T09:13:33.000Z</time>
      </trkpt>
      <trkpt lat="45.95643" lon="6.04627">
        <ele>535.79998779297</ele>
        <time>2011-10-09T09:13:38.000Z</time>
      </trkpt>
      <trkpt lat="45.95624" lon="6.04628">
        <ele>534.59997558594</ele>
        <time>2011-10-09T09:13:45.000Z</time>
      </trkpt>
      <trkpt lat="45.95612" lon="6.04626">
        <ele>533.40002441406</ele>
        <time>2011-10-09T09:13:50.000Z</time>
      </trkpt>
      <trkpt lat="45.95596" lon="6.04626">
        <ele>532.20001220703</ele>
        <time>2011-10-09T09:13:57.000Z</time>
      </trkpt>
      <trkpt lat="45.95592" lon="6.04627">
        <ele>532.20001220703</ele>
        <time>2011-10-09T09:13:59.000Z</time>
      </trkpt>
      <trkpt lat="45.95586" lon="6.04632">
        <ele>532.40002441406</ele>
        <time>2011-10-09T09:14:02.000Z</time>
      </trkpt>
      <trkpt lat="45.95575" lon="6.04636">
        <ele>531</ele>
        <time>2011-10-09T09:14:07.000Z</time>
      </trkpt>
      <trkpt lat="45.95563" lon="6.04641">
        <ele>529</ele>
        <time>2011-10-09T09:14:12.000Z</time>
      </trkpt>
      <trkpt lat="45.95546" lon="6.04651">
        <ele>526.40002441406</ele>
        <time>2011-10-09T09:14:18.000Z</time>
      </trkpt>
      <trkpt lat="45.95534" lon="6.04658">
        <ele>524.20001220703</ele>
        <time>2011-10-09T09:14:23.000Z</time>
      </trkpt>
      <trkpt lat="45.95517" lon="6.04671">
        <ele>522.20001220703</ele>
        <time>2011-10-09T09:14:29.000Z</time>
      </trkpt>
      <trkpt lat="45.95497" lon="6.0468">
        <ele>519</ele>
        <time>2011-10-09T09:14:35.000Z</time>
      </trkpt>
      <trkpt lat="45.95486" lon="6.04688">
        <ele>518.79998779297</ele>
        <time>2011-10-09T09:14:39.000Z</time>
      </trkpt>
      <trkpt lat="45.95474" lon="6.04705">
        <ele>519.20001220703</ele>
        <time>2011-10-09T09:14:44.000Z</time>
      </trkpt>
      <trkpt lat="45.95468" lon="6.0472">
        <ele>520</ele>
        <time>2011-10-09T09:14:48.000Z</time>
      </trkpt>
      <trkpt lat="45.95458" lon="6.04738">
        <ele>519.79998779297</ele>
        <time>2011-10-09T09:14:53.000Z</time>
      </trkpt>
      <trkpt lat="45.95446" lon="6.04753">
        <ele>518.40002441406</ele>
        <time>2011-10-09T09:14:59.000Z</time>
      </trkpt>
      <trkpt lat="45.95432" lon="6.04769">
        <ele>516.79998779297</ele>
        <time>2011-10-09T09:15:05.000Z</time>
      </trkpt>
      <trkpt lat="45.95419" lon="6.04783">
        <ele>512.59997558594</ele>
        <time>2011-10-09T09:15:11.000Z</time>
      </trkpt>
      <trkpt lat="45.95406" lon="6.04797">
        <ele>510.79998779297</ele>
        <time>2011-10-09T09:15:17.000Z</time>
      </trkpt>
      <trkpt lat="45.9539" lon="6.04813">
        <ele>508.79998779297</ele>
        <time>2011-10-09T09:15:23.000Z</time>
      </trkpt>
      <trkpt lat="45.95377" lon="6.04827">
        <ele>506.60000610352</ele>
        <time>2011-10-09T09:15:28.000Z</time>
      </trkpt>
      <trkpt lat="45.95365" lon="6.04835">
        <ele>504.39999389648</ele>
        <time>2011-10-09T09:15:32.000Z</time>
      </trkpt>
      <trkpt lat="45.9535" lon="6.04848">
        <ele>502.39999389648</ele>
        <time>2011-10-09T09:15:37.000Z</time>
      </trkpt>
      <trkpt lat="45.95341" lon="6.04865">
        <ele>500</ele>
        <time>2011-10-09T09:15:43.000Z</time>
      </trkpt>
      <trkpt lat="45.9533" lon="6.04883">
        <ele>496.20001220703</ele>
        <time>2011-10-09T09:15:49.000Z</time>
      </trkpt>
      <trkpt lat="45.95316" lon="6.04897">
        <ele>495.60000610352</ele>
        <time>2011-10-09T09:15:55.000Z</time>
      </trkpt>
      <trkpt lat="45.95301" lon="6.04911">
        <ele>494.79998779297</ele>
        <time>2011-10-09T09:16:01.000Z</time>
      </trkpt>
      <trkpt lat="45.95288" lon="6.04924">
        <ele>495.60000610352</ele>
        <time>2011-10-09T09:16:06.000Z</time>
      </trkpt>
      <trkpt lat="45.95273" lon="6.04941">
        <ele>496.79998779297</ele>
        <time>2011-10-09T09:16:12.000Z</time>
      </trkpt>
      <trkpt lat="45.95263" lon="6.04962">
        <ele>497.20001220703</ele>
        <time>2011-10-09T09:16:18.000Z</time>
      </trkpt>
      <trkpt lat="45.95261" lon="6.04965">
        <ele>497.20001220703</ele>
        <time>2011-10-09T09:16:19.000Z</time>
      </trkpt>
      <trkpt lat="45.95254" lon="6.04988">
        <ele>496.60000610352</ele>
        <time>2011-10-09T09:16:25.000Z</time>
      </trkpt>
      <trkpt lat="45.95244" lon="6.0501">
        <ele>497.60000610352</ele>
        <time>2011-10-09T09:16:31.000Z</time>
      </trkpt>
      <trkpt lat="45.95233" lon="6.05027">
        <ele>499.79998779297</ele>
        <time>2011-10-09T09:16:36.000Z</time>
      </trkpt>
      <trkpt lat="45.95221" lon="6.05045">
        <ele>500.60000610352</ele>
        <time>2011-10-09T09:16:42.000Z</time>
      </trkpt>
      <trkpt lat="45.95208" lon="6.0506">
        <ele>500</ele>
        <time>2011-10-09T09:16:48.000Z</time>
      </trkpt>
      <trkpt lat="45.95198" lon="6.05073">
        <ele>499</ele>
        <time>2011-10-09T09:16:53.000Z</time>
      </trkpt>
      <trkpt lat="45.95189" lon="6.05089">
        <ele>498.20001220703</ele>
        <time>2011-10-09T09:16:58.000Z</time>
      </trkpt>
      <trkpt lat="45.95181" lon="6.05104">
        <ele>497.60000610352</ele>
        <time>2011-10-09T09:17:03.000Z</time>
      </trkpt>
      <trkpt lat="45.95178" lon="6.05111">
        <ele>497</ele>
        <time>2011-10-09T09:17:05.000Z</time>
      </trkpt>
      <trkpt lat="45.95176" lon="6.05118">
        <ele>497</ele>
        <time>2011-10-09T09:17:07.000Z</time>
      </trkpt>
      <trkpt lat="45.95167" lon="6.05131">
        <ele>493.39999389648</ele>
        <time>2011-10-09T09:17:11.000Z</time>
      </trkpt>
      <trkpt lat="45.95153" lon="6.05148">
        <ele>492.39999389648</ele>
        <time>2011-10-09T09:17:17.000Z</time>
      </trkpt>
      <trkpt lat="45.95144" lon="6.05165">
        <ele>492</ele>
        <time>2011-10-09T09:17:22.000Z</time>
      </trkpt>
      <trkpt lat="45.95133" lon="6.05182">
        <ele>495.39999389648</ele>
        <time>2011-10-09T09:17:27.000Z</time>
      </trkpt>
      <trkpt lat="45.95121" lon="6.05197">
        <ele>496.60000610352</ele>
        <time>2011-10-09T09:17:32.000Z</time>
      </trkpt>
      <trkpt lat="45.95106" lon="6.0521">
        <ele>494.79998779297</ele>
        <time>2011-10-09T09:17:38.000Z</time>
      </trkpt>
      <trkpt lat="45.95092" lon="6.05221">
        <ele>491.39999389648</ele>
        <time>2011-10-09T09:17:43.000Z</time>
      </trkpt>
      <trkpt lat="45.95082" lon="6.05235">
        <ele>488.79998779297</ele>
        <time>2011-10-09T09:17:48.000Z</time>
      </trkpt>
      <trkpt lat="45.95071" lon="6.05256">
        <ele>489.79998779297</ele>
        <time>2011-10-09T09:17:54.000Z</time>
      </trkpt>
      <trkpt lat="45.95067" lon="6.05274">
        <ele>493.20001220703</ele>
        <time>2011-10-09T09:17:59.000Z</time>
      </trkpt>
      <trkpt lat="45.9506" lon="6.0529">
        <ele>495.79998779297</ele>
        <time>2011-10-09T09:18:04.000Z</time>
      </trkpt>
      <trkpt lat="45.95051" lon="6.05305">
        <ele>497.39999389648</ele>
        <time>2011-10-09T09:18:09.000Z</time>
      </trkpt>
      <trkpt lat="45.95041" lon="6.05312">
        <ele>497</ele>
        <time>2011-10-09T09:18:14.000Z</time>
      </trkpt>
      <trkpt lat="45.95023" lon="6.0532">
        <ele>495.20001220703</ele>
        <time>2011-10-09T09:18:20.000Z</time>
      </trkpt>
      <trkpt lat="45.95009" lon="6.05319">
        <ele>492.39999389648</ele>
        <time>2011-10-09T09:18:25.000Z</time>
      </trkpt>
      <trkpt lat="45.94988" lon="6.05317">
        <ele>489.20001220703</ele>
        <time>2011-10-09T09:18:31.000Z</time>
      </trkpt>
      <trkpt lat="45.94971" lon="6.05318">
        <ele>487.39999389648</ele>
        <time>2011-10-09T09:18:37.000Z</time>
      </trkpt>
      <trkpt lat="45.94955" lon="6.05323">
        <ele>486.39999389648</ele>
        <time>2011-10-09T09:18:43.000Z</time>
      </trkpt>
      <trkpt lat="45.94937" lon="6.05333">
        <ele>485.39999389648</ele>
        <time>2011-10-09T09:18:50.000Z</time>
      </trkpt>
      <trkpt lat="45.94934" lon="6.05335">
        <ele>485.39999389648</ele>
        <time>2011-10-09T09:18:51.000Z</time>
      </trkpt>
      <trkpt lat="45.94915" lon="6.05345">
        <ele>485</ele>
        <time>2011-10-09T09:18:58.000Z</time>
      </trkpt>
      <trkpt lat="45.94912" lon="6.05345">
        <ele>484.79998779297</ele>
        <time>2011-10-09T09:18:59.000Z</time>
      </trkpt>
      <trkpt lat="45.94898" lon="6.05351">
        <ele>485.20001220703</ele>
        <time>2011-10-09T09:19:04.000Z</time>
      </trkpt>
      <trkpt lat="45.94886" lon="6.05362">
        <ele>486.20001220703</ele>
        <time>2011-10-09T09:19:09.000Z</time>
      </trkpt>
      <trkpt lat="45.94876" lon="6.05367">
        <ele>486.39999389648</ele>
        <time>2011-10-09T09:19:13.000Z</time>
      </trkpt>
      <trkpt lat="45.94864" lon="6.05376">
        <ele>487</ele>
        <time>2011-10-09T09:19:19.000Z</time>
      </trkpt>
      <trkpt lat="45.94849" lon="6.05381">
        <ele>486.60000610352</ele>
        <time>2011-10-09T09:19:25.000Z</time>
      </trkpt>
      <trkpt lat="45.94833" lon="6.05386">
        <ele>486.20001220703</ele>
        <time>2011-10-09T09:19:32.000Z</time>
      </trkpt>
      <trkpt lat="45.94822" lon="6.05393">
        <ele>487</ele>
        <time>2011-10-09T09:19:37.000Z</time>
      </trkpt>
      <trkpt lat="45.94809" lon="6.05399">
        <ele>487.60000610352</ele>
        <time>2011-10-09T09:19:42.000Z</time>
      </trkpt>
      <trkpt lat="45.94796" lon="6.05407">
        <ele>488.39999389648</ele>
        <time>2011-10-09T09:19:48.000Z</time>
      </trkpt>
      <trkpt lat="45.94781" lon="6.05416">
        <ele>489</ele>
        <time>2011-10-09T09:19:55.000Z</time>
      </trkpt>
      <trkpt lat="45.94766" lon="6.05423">
        <ele>488.60000610352</ele>
        <time>2011-10-09T09:20:01.000Z</time>
      </trkpt>
      <trkpt lat="45.94751" lon="6.05432">
        <ele>488.20001220703</ele>
        <time>2011-10-09T09:20:07.000Z</time>
      </trkpt>
      <trkpt lat="45.94744" lon="6.0544">
        <ele>487.79998779297</ele>
        <time>2011-10-09T09:20:11.000Z</time>
      </trkpt>
      <trkpt lat="45.9473" lon="6.05448">
        <ele>487</ele>
        <time>2011-10-09T09:20:16.000Z</time>
      </trkpt>
      <trkpt lat="45.94714" lon="6.05458">
        <ele>486.20001220703</ele>
        <time>2011-10-09T09:20:22.000Z</time>
      </trkpt>
      <trkpt lat="45.94711" lon="6.0546">
        <ele>486</ele>
        <time>2011-10-09T09:20:23.000Z</time>
      </trkpt>
      <trkpt lat="45.94698" lon="6.05472">
        <ele>485.39999389648</ele>
        <time>2011-10-09T09:20:29.000Z</time>
      </trkpt>
      <trkpt lat="45.94688" lon="6.05483">
        <ele>485</ele>
        <time>2011-10-09T09:20:34.000Z</time>
      </trkpt>
      <trkpt lat="45.94686" lon="6.05486">
        <ele>485</ele>
        <time>2011-10-09T09:20:37.000Z</time>
      </trkpt>
      <trkpt lat="45.94661" lon="6.05522">
        <ele>484.20001220703</ele>
        <time>2011-10-09T09:21:16.000Z</time>
      </trkpt>
      <trkpt lat="45.9466" lon="6.05523">
        <ele>484.20001220703</ele>
        <time>2011-10-09T09:21:17.000Z</time>
      </trkpt>
      <trkpt lat="45.94652" lon="6.05534">
        <ele>484</ele>
        <time>2011-10-09T09:21:24.000Z</time>
      </trkpt>
      <trkpt lat="45.94648" lon="6.05544">
        <ele>484</ele>
        <time>2011-10-09T09:21:29.000Z</time>
      </trkpt>
      <trkpt lat="45.94643" lon="6.05554">
        <ele>483.79998779297</ele>
        <time>2011-10-09T09:21:35.000Z</time>
      </trkpt>
      <trkpt lat="45.94642" lon="6.05556">
        <ele>483.79998779297</ele>
        <time>2011-10-09T09:21:36.000Z</time>
      </trkpt>
      <trkpt lat="45.94639" lon="6.05563">
        <ele>483.60000610352</ele>
        <time>2011-10-09T09:21:40.000Z</time>
      </trkpt>
      <trkpt lat="45.94639" lon="6.05564">
        <ele>483.60000610352</ele>
        <time>2011-10-09T09:21:41.000Z</time>
      </trkpt>
      <trkpt lat="45.94638" lon="6.05568">
        <ele>483.60000610352</ele>
        <time>2011-10-09T09:21:44.000Z</time>
      </trkpt>
      <trkpt lat="45.94635" lon="6.05573">
        <ele>483.60000610352</ele>
        <time>2011-10-09T09:21:47.000Z</time>
      </trkpt>
      <trkpt lat="45.94635" lon="6.05575">
        <ele>483.39999389648</ele>
        <time>2011-10-09T09:21:48.000Z</time>
      </trkpt>
      <trkpt lat="45.94598" lon="6.05613">
        <ele>480.39999389648</ele>
        <time>2011-10-09T09:22:19.000Z</time>
      </trkpt>
      <trkpt lat="45.94594" lon="6.05617">
        <ele>480.20001220703</ele>
        <time>2011-10-09T09:22:22.000Z</time>
      </trkpt>
      <trkpt lat="45.94583" lon="6.05626">
        <ele>479.39999389648</ele>
        <time>2011-10-09T09:22:27.000Z</time>
      </trkpt>
      <trkpt lat="45.94572" lon="6.05637">
        <ele>479.60000610352</ele>
        <time>2011-10-09T09:22:33.000Z</time>
      </trkpt>
      <trkpt lat="45.94562" lon="6.05642">
        <ele>479.60000610352</ele>
        <time>2011-10-09T09:22:38.000Z</time>
      </trkpt>
      <trkpt lat="45.94549" lon="6.05654">
        <ele>479.79998779297</ele>
        <time>2011-10-09T09:22:44.000Z</time>
      </trkpt>
      <trkpt lat="45.94538" lon="6.0567">
        <ele>479.79998779297</ele>
        <time>2011-10-09T09:22:50.000Z</time>
      </trkpt>
      <trkpt lat="45.94527" lon="6.05694">
        <ele>479.60000610352</ele>
        <time>2011-10-09T09:22:57.000Z</time>
      </trkpt>
      <trkpt lat="45.94518" lon="6.05715">
        <ele>479.39999389648</ele>
        <time>2011-10-09T09:23:03.000Z</time>
      </trkpt>
      <trkpt lat="45.94508" lon="6.05736">
        <ele>479</ele>
        <time>2011-10-09T09:23:09.000Z</time>
      </trkpt>
      <trkpt lat="45.94498" lon="6.05757">
        <ele>478.39999389648</ele>
        <time>2011-10-09T09:23:15.000Z</time>
      </trkpt>
      <trkpt lat="45.94488" lon="6.05779">
        <ele>476.79998779297</ele>
        <time>2011-10-09T09:23:21.000Z</time>
      </trkpt>
      <trkpt lat="45.94481" lon="6.05796">
        <ele>475.79998779297</ele>
        <time>2011-10-09T09:23:26.000Z</time>
      </trkpt>
      <trkpt lat="45.9447" lon="6.05821">
        <ele>474.60000610352</ele>
        <time>2011-10-09T09:23:33.000Z</time>
      </trkpt>
      <trkpt lat="45.9446" lon="6.05842">
        <ele>473.60000610352</ele>
        <time>2011-10-09T09:23:39.000Z</time>
      </trkpt>
      <trkpt lat="45.94446" lon="6.05865">
        <ele>472.39999389648</ele>
        <time>2011-10-09T09:23:46.000Z</time>
      </trkpt>
      <trkpt lat="45.94432" lon="6.0588">
        <ele>471.39999389648</ele>
        <time>2011-10-09T09:23:52.000Z</time>
      </trkpt>
      <trkpt lat="45.94417" lon="6.05892">
        <ele>470.60000610352</ele>
        <time>2011-10-09T09:23:58.000Z</time>
      </trkpt>
      <trkpt lat="45.94404" lon="6.05903">
        <ele>469.20001220703</ele>
        <time>2011-10-09T09:24:03.000Z</time>
      </trkpt>
      <trkpt lat="45.94393" lon="6.05918">
        <ele>467.60000610352</ele>
        <time>2011-10-09T09:24:08.000Z</time>
      </trkpt>
      <trkpt lat="45.94381" lon="6.05938">
        <ele>466.20001220703</ele>
        <time>2011-10-09T09:24:14.000Z</time>
      </trkpt>
      <trkpt lat="45.9438" lon="6.05942">
        <ele>466</ele>
        <time>2011-10-09T09:24:15.000Z</time>
      </trkpt>
      <trkpt lat="45.94371" lon="6.05963">
        <ele>464.60000610352</ele>
        <time>2011-10-09T09:24:21.000Z</time>
      </trkpt>
      <trkpt lat="45.94364" lon="6.05981">
        <ele>463.60000610352</ele>
        <time>2011-10-09T09:24:26.000Z</time>
      </trkpt>
      <trkpt lat="45.94352" lon="6.06004">
        <ele>462.79998779297</ele>
        <time>2011-10-09T09:24:33.000Z</time>
      </trkpt>
      <trkpt lat="45.9434" lon="6.06019">
        <ele>462.79998779297</ele>
        <time>2011-10-09T09:24:39.000Z</time>
      </trkpt>
      <trkpt lat="45.94329" lon="6.06033">
        <ele>463</ele>
        <time>2011-10-09T09:24:45.000Z</time>
      </trkpt>
      <trkpt lat="45.94329" lon="6.06036">
        <ele>463</ele>
        <time>2011-10-09T09:24:46.000Z</time>
      </trkpt>
      <trkpt lat="45.9433" lon="6.06047">
        <ele>463</ele>
        <time>2011-10-09T09:24:49.000Z</time>
      </trkpt>
      <trkpt lat="45.94335" lon="6.06062">
        <ele>463</ele>
        <time>2011-10-09T09:24:53.000Z</time>
      </trkpt>
      <trkpt lat="45.94336" lon="6.0607">
        <ele>463</ele>
        <time>2011-10-09T09:24:55.000Z</time>
      </trkpt>
      <trkpt lat="45.94336" lon="6.06074">
        <ele>463</ele>
        <time>2011-10-09T09:24:56.000Z</time>
      </trkpt>
      <trkpt lat="45.94336" lon="6.06084">
        <ele>463</ele>
        <time>2011-10-09T09:24:59.000Z</time>
      </trkpt>
      <trkpt lat="45.94335" lon="6.06089">
        <ele>463</ele>
        <time>2011-10-09T09:25:01.000Z</time>
      </trkpt>
      <trkpt lat="45.94334" lon="6.06091">
        <ele>463</ele>
        <time>2011-10-09T09:25:03.000Z</time>
      </trkpt>
      <trkpt lat="45.94331" lon="6.06093">
        <ele>462.79998779297</ele>
        <time>2011-10-09T09:25:07.000Z</time>
      </trkpt>
    </trkseg>
  </trk>
</gpx>